<?xml version="1.0" encoding="UTF-8" standalone="no" ?>
<gpx xmlns="http://www.topografix.com/GPX/1/1" xmlns:xsi="http://www.w3.org/2001/XMLSchema-instance" xsi:schemaLocation="http://www.topografix.com/GPX/1/1 http://www.topografix.com/GPX/1/1/gpx.xsd" version="1.1" creator="VisuGPX - https://www.visugpx.com">
  <metadata>
    <name>Tour du Parc de Miribel Jonage</name>
    <desc><![CDATA[Tour du Parc de Miribel Jonage.Départ et arrivé au Pont de Meyzieu.Randonnée Nature de 20 kms.]]></desc>
  </metadata>
  <trk>
    <name><![CDATA[2011-04-24-01]]></name>
    <trkseg>
      <trkpt lat="45.78738" lon="5.01344">
        <ele>173.3</ele>
        <time>2011-04-24T07:41:52Z</time>
      </trkpt>
      <trkpt lat="45.78739" lon="5.0135">
        <ele>171</ele>
        <time>2011-04-24T07:42:00Z</time>
      </trkpt>
      <trkpt lat="45.78739" lon="5.01348">
        <ele>170.3</ele>
        <time>2011-04-24T07:42:01Z</time>
      </trkpt>
      <trkpt lat="45.78741" lon="5.01345">
        <ele>170.1</ele>
        <time>2011-04-24T07:42:03Z</time>
      </trkpt>
      <trkpt lat="45.78743" lon="5.01344">
        <ele>169.1</ele>
        <time>2011-04-24T07:42:04Z</time>
      </trkpt>
      <trkpt lat="45.78745" lon="5.01344">
        <ele>168.1</ele>
        <time>2011-04-24T07:42:05Z</time>
      </trkpt>
      <trkpt lat="45.78747" lon="5.01345">
        <ele>167.6</ele>
        <time>2011-04-24T07:42:06Z</time>
      </trkpt>
      <trkpt lat="45.78748" lon="5.01346">
        <ele>167.3</ele>
        <time>2011-04-24T07:42:07Z</time>
      </trkpt>
      <trkpt lat="45.7875" lon="5.01348">
        <ele>167.3</ele>
        <time>2011-04-24T07:42:08Z</time>
      </trkpt>
      <trkpt lat="45.78759" lon="5.01354">
        <ele>164.5</ele>
        <time>2011-04-24T07:42:12Z</time>
      </trkpt>
      <trkpt lat="45.78762" lon="5.01355">
        <ele>165.3</ele>
        <time>2011-04-24T07:42:13Z</time>
      </trkpt>
      <trkpt lat="45.78765" lon="5.01357">
        <ele>165.6</ele>
        <time>2011-04-24T07:42:14Z</time>
      </trkpt>
      <trkpt lat="45.78775" lon="5.01361">
        <ele>168.1</ele>
        <time>2011-04-24T07:42:17Z</time>
      </trkpt>
      <trkpt lat="45.78791" lon="5.01365">
        <ele>170.8</ele>
        <time>2011-04-24T07:42:21Z</time>
      </trkpt>
      <trkpt lat="45.78794" lon="5.01368">
        <ele>171.1</ele>
        <time>2011-04-24T07:42:22Z</time>
      </trkpt>
      <trkpt lat="45.78797" lon="5.0137">
        <ele>170.8</ele>
        <time>2011-04-24T07:42:23Z</time>
      </trkpt>
      <trkpt lat="45.788" lon="5.01373">
        <ele>169.5</ele>
        <time>2011-04-24T07:42:24Z</time>
      </trkpt>
      <trkpt lat="45.78801" lon="5.01376">
        <ele>169.8</ele>
        <time>2011-04-24T07:42:25Z</time>
      </trkpt>
      <trkpt lat="45.78803" lon="5.0138">
        <ele>169.1</ele>
        <time>2011-04-24T07:42:26Z</time>
      </trkpt>
      <trkpt lat="45.78811" lon="5.01398">
        <ele>174.8</ele>
        <time>2011-04-24T07:42:31Z</time>
      </trkpt>
      <trkpt lat="45.78811" lon="5.01403">
        <ele>175.1</ele>
        <time>2011-04-24T07:42:32Z</time>
      </trkpt>
      <trkpt lat="45.78812" lon="5.01407">
        <ele>176.6</ele>
        <time>2011-04-24T07:42:33Z</time>
      </trkpt>
      <trkpt lat="45.78824" lon="5.01456">
        <ele>183.6</ele>
        <time>2011-04-24T07:42:44Z</time>
      </trkpt>
      <trkpt lat="45.78826" lon="5.01462">
        <ele>182.8</ele>
        <time>2011-04-24T07:42:46Z</time>
      </trkpt>
      <trkpt lat="45.7885" lon="5.01549">
        <ele>176.6</ele>
        <time>2011-04-24T07:43:11Z</time>
      </trkpt>
      <trkpt lat="45.78852" lon="5.01551">
        <ele>176.6</ele>
        <time>2011-04-24T07:43:12Z</time>
      </trkpt>
      <trkpt lat="45.78854" lon="5.01557">
        <ele>176.3</ele>
        <time>2011-04-24T07:43:14Z</time>
      </trkpt>
      <trkpt lat="45.78856" lon="5.01566">
        <ele>176.1</ele>
        <time>2011-04-24T07:43:17Z</time>
      </trkpt>
      <trkpt lat="45.78865" lon="5.01598">
        <ele>182.6</ele>
        <time>2011-04-24T07:43:30Z</time>
      </trkpt>
      <trkpt lat="45.78866" lon="5.01602">
        <ele>182.1</ele>
        <time>2011-04-24T07:43:31Z</time>
      </trkpt>
      <trkpt lat="45.78876" lon="5.01628">
        <ele>185.6</ele>
        <time>2011-04-24T07:43:39Z</time>
      </trkpt>
      <trkpt lat="45.78882" lon="5.01642">
        <ele>186.3</ele>
        <time>2011-04-24T07:43:43Z</time>
      </trkpt>
      <trkpt lat="45.78883" lon="5.01646">
        <ele>186</ele>
        <time>2011-04-24T07:43:44Z</time>
      </trkpt>
      <trkpt lat="45.78885" lon="5.0165">
        <ele>185</ele>
        <time>2011-04-24T07:43:45Z</time>
      </trkpt>
      <trkpt lat="45.78887" lon="5.01653">
        <ele>184.1</ele>
        <time>2011-04-24T07:43:46Z</time>
      </trkpt>
      <trkpt lat="45.78893" lon="5.01669">
        <ele>188.6</ele>
        <time>2011-04-24T07:43:51Z</time>
      </trkpt>
      <trkpt lat="45.78894" lon="5.01672">
        <ele>188</ele>
        <time>2011-04-24T07:43:52Z</time>
      </trkpt>
      <trkpt lat="45.78895" lon="5.01674">
        <ele>186.8</ele>
        <time>2011-04-24T07:43:53Z</time>
      </trkpt>
      <trkpt lat="45.78896" lon="5.01676">
        <ele>185.3</ele>
        <time>2011-04-24T07:43:54Z</time>
      </trkpt>
      <trkpt lat="45.78897" lon="5.01677">
        <ele>185.3</ele>
        <time>2011-04-24T07:43:55Z</time>
      </trkpt>
      <trkpt lat="45.78898" lon="5.0168">
        <ele>184.8</ele>
        <time>2011-04-24T07:43:56Z</time>
      </trkpt>
      <trkpt lat="45.78898" lon="5.01683">
        <ele>183.1</ele>
        <time>2011-04-24T07:43:57Z</time>
      </trkpt>
      <trkpt lat="45.78898" lon="5.01685">
        <ele>181.3</ele>
        <time>2011-04-24T07:43:58Z</time>
      </trkpt>
      <trkpt lat="45.78899" lon="5.01686">
        <ele>180.8</ele>
        <time>2011-04-24T07:43:59Z</time>
      </trkpt>
      <trkpt lat="45.789" lon="5.01689">
        <ele>181.1</ele>
        <time>2011-04-24T07:44:00Z</time>
      </trkpt>
      <trkpt lat="45.78901" lon="5.01692">
        <ele>181.1</ele>
        <time>2011-04-24T07:44:01Z</time>
      </trkpt>
      <trkpt lat="45.78902" lon="5.01694">
        <ele>180.1</ele>
        <time>2011-04-24T07:44:02Z</time>
      </trkpt>
      <trkpt lat="45.78904" lon="5.01704">
        <ele>178.6</ele>
        <time>2011-04-24T07:44:04Z</time>
      </trkpt>
      <trkpt lat="45.78905" lon="5.01717">
        <ele>174.6</ele>
        <time>2011-04-24T07:44:08Z</time>
      </trkpt>
      <trkpt lat="45.78904" lon="5.0172">
        <ele>173.5</ele>
        <time>2011-04-24T07:44:09Z</time>
      </trkpt>
      <trkpt lat="45.78904" lon="5.01721">
        <ele>172.1</ele>
        <time>2011-04-24T07:44:10Z</time>
      </trkpt>
      <trkpt lat="45.78905" lon="5.01723">
        <ele>171.6</ele>
        <time>2011-04-24T07:44:11Z</time>
      </trkpt>
      <trkpt lat="45.78906" lon="5.01725">
        <ele>170.3</ele>
        <time>2011-04-24T07:44:12Z</time>
      </trkpt>
      <trkpt lat="45.78913" lon="5.01741">
        <ele>171.8</ele>
        <time>2011-04-24T07:44:18Z</time>
      </trkpt>
      <trkpt lat="45.78914" lon="5.01746">
        <ele>172.1</ele>
        <time>2011-04-24T07:44:19Z</time>
      </trkpt>
      <trkpt lat="45.78923" lon="5.01792">
        <ele>175.8</ele>
        <time>2011-04-24T07:44:31Z</time>
      </trkpt>
      <trkpt lat="45.78924" lon="5.01796">
        <ele>176.3</ele>
        <time>2011-04-24T07:44:32Z</time>
      </trkpt>
      <trkpt lat="45.78925" lon="5.01799">
        <ele>175.8</ele>
        <time>2011-04-24T07:44:33Z</time>
      </trkpt>
      <trkpt lat="45.78926" lon="5.01802">
        <ele>175.1</ele>
        <time>2011-04-24T07:44:34Z</time>
      </trkpt>
      <trkpt lat="45.78928" lon="5.01805">
        <ele>175.3</ele>
        <time>2011-04-24T07:44:35Z</time>
      </trkpt>
      <trkpt lat="45.78928" lon="5.01809">
        <ele>174.8</ele>
        <time>2011-04-24T07:44:36Z</time>
      </trkpt>
      <trkpt lat="45.78933" lon="5.01822">
        <ele>172.3</ele>
        <time>2011-04-24T07:44:40Z</time>
      </trkpt>
      <trkpt lat="45.78936" lon="5.01831">
        <ele>173.1</ele>
        <time>2011-04-24T07:44:43Z</time>
      </trkpt>
      <trkpt lat="45.78956" lon="5.01868">
        <ele>176.8</ele>
        <time>2011-04-24T07:44:55Z</time>
      </trkpt>
      <trkpt lat="45.78957" lon="5.01871">
        <ele>176.6</ele>
        <time>2011-04-24T07:44:56Z</time>
      </trkpt>
      <trkpt lat="45.78958" lon="5.01875">
        <ele>176.8</ele>
        <time>2011-04-24T07:44:57Z</time>
      </trkpt>
      <trkpt lat="45.78962" lon="5.01885">
        <ele>176.5</ele>
        <time>2011-04-24T07:45:00Z</time>
      </trkpt>
      <trkpt lat="45.78964" lon="5.01887">
        <ele>175.8</ele>
        <time>2011-04-24T07:45:01Z</time>
      </trkpt>
      <trkpt lat="45.78966" lon="5.01889">
        <ele>176</ele>
        <time>2011-04-24T07:45:02Z</time>
      </trkpt>
      <trkpt lat="45.78968" lon="5.01892">
        <ele>175.5</ele>
        <time>2011-04-24T07:45:03Z</time>
      </trkpt>
      <trkpt lat="45.7897" lon="5.01895">
        <ele>175</ele>
        <time>2011-04-24T07:45:04Z</time>
      </trkpt>
      <trkpt lat="45.78971" lon="5.01898">
        <ele>174.6</ele>
        <time>2011-04-24T07:45:05Z</time>
      </trkpt>
      <trkpt lat="45.78973" lon="5.01901">
        <ele>174.8</ele>
        <time>2011-04-24T07:45:06Z</time>
      </trkpt>
      <trkpt lat="45.78979" lon="5.01909">
        <ele>173.8</ele>
        <time>2011-04-24T07:45:09Z</time>
      </trkpt>
      <trkpt lat="45.78981" lon="5.0191">
        <ele>173.3</ele>
        <time>2011-04-24T07:45:10Z</time>
      </trkpt>
      <trkpt lat="45.78983" lon="5.01912">
        <ele>173.8</ele>
        <time>2011-04-24T07:45:11Z</time>
      </trkpt>
      <trkpt lat="45.78986" lon="5.01912">
        <ele>174.3</ele>
        <time>2011-04-24T07:45:12Z</time>
      </trkpt>
      <trkpt lat="45.78989" lon="5.01912">
        <ele>174</ele>
        <time>2011-04-24T07:45:13Z</time>
      </trkpt>
      <trkpt lat="45.78991" lon="5.01912">
        <ele>172.3</ele>
        <time>2011-04-24T07:45:14Z</time>
      </trkpt>
      <trkpt lat="45.78994" lon="5.01911">
        <ele>172.1</ele>
        <time>2011-04-24T07:45:15Z</time>
      </trkpt>
      <trkpt lat="45.79012" lon="5.01906">
        <ele>169.8</ele>
        <time>2011-04-24T07:45:22Z</time>
      </trkpt>
      <trkpt lat="45.79015" lon="5.01905">
        <ele>169.8</ele>
        <time>2011-04-24T07:45:23Z</time>
      </trkpt>
      <trkpt lat="45.79017" lon="5.01905">
        <ele>170.3</ele>
        <time>2011-04-24T07:45:24Z</time>
      </trkpt>
      <trkpt lat="45.79019" lon="5.01905">
        <ele>170.8</ele>
        <time>2011-04-24T07:45:25Z</time>
      </trkpt>
      <trkpt lat="45.79021" lon="5.01906">
        <ele>170.8</ele>
        <time>2011-04-24T07:45:26Z</time>
      </trkpt>
      <trkpt lat="45.79023" lon="5.01905">
        <ele>171.1</ele>
        <time>2011-04-24T07:45:27Z</time>
      </trkpt>
      <trkpt lat="45.79043" lon="5.01897">
        <ele>175.3</ele>
        <time>2011-04-24T07:45:34Z</time>
      </trkpt>
      <trkpt lat="45.79044" lon="5.01896">
        <ele>174</ele>
        <time>2011-04-24T07:45:35Z</time>
      </trkpt>
      <trkpt lat="45.79046" lon="5.01894">
        <ele>173.3</ele>
        <time>2011-04-24T07:45:36Z</time>
      </trkpt>
      <trkpt lat="45.79058" lon="5.01888">
        <ele>176.5</ele>
        <time>2011-04-24T07:45:40Z</time>
      </trkpt>
      <trkpt lat="45.79065" lon="5.01886">
        <ele>176.3</ele>
        <time>2011-04-24T07:45:42Z</time>
      </trkpt>
      <trkpt lat="45.79068" lon="5.01886">
        <ele>175.8</ele>
        <time>2011-04-24T07:45:43Z</time>
      </trkpt>
      <trkpt lat="45.7907" lon="5.01885">
        <ele>172.8</ele>
        <time>2011-04-24T07:45:44Z</time>
      </trkpt>
      <trkpt lat="45.79089" lon="5.01877">
        <ele>167.5</ele>
        <time>2011-04-24T07:45:51Z</time>
      </trkpt>
      <trkpt lat="45.79091" lon="5.01877">
        <ele>167.5</ele>
        <time>2011-04-24T07:45:52Z</time>
      </trkpt>
      <trkpt lat="45.79094" lon="5.01878">
        <ele>167.8</ele>
        <time>2011-04-24T07:45:53Z</time>
      </trkpt>
      <trkpt lat="45.79098" lon="5.01881">
        <ele>169.6</ele>
        <time>2011-04-24T07:45:55Z</time>
      </trkpt>
      <trkpt lat="45.79107" lon="5.01891">
        <ele>170.1</ele>
        <time>2011-04-24T07:45:59Z</time>
      </trkpt>
      <trkpt lat="45.79107" lon="5.01894">
        <ele>170.5</ele>
        <time>2011-04-24T07:46:00Z</time>
      </trkpt>
      <trkpt lat="45.79108" lon="5.01899">
        <ele>171.6</ele>
        <time>2011-04-24T07:46:01Z</time>
      </trkpt>
      <trkpt lat="45.7911" lon="5.01903">
        <ele>171.6</ele>
        <time>2011-04-24T07:46:02Z</time>
      </trkpt>
      <trkpt lat="45.79112" lon="5.01907">
        <ele>174.5</ele>
        <time>2011-04-24T07:46:03Z</time>
      </trkpt>
      <trkpt lat="45.79112" lon="5.01912">
        <ele>173.6</ele>
        <time>2011-04-24T07:46:04Z</time>
      </trkpt>
      <trkpt lat="45.79113" lon="5.01916">
        <ele>173.5</ele>
        <time>2011-04-24T07:46:05Z</time>
      </trkpt>
      <trkpt lat="45.79114" lon="5.0192">
        <ele>175.3</ele>
        <time>2011-04-24T07:46:06Z</time>
      </trkpt>
      <trkpt lat="45.79121" lon="5.01939">
        <ele>178.3</ele>
        <time>2011-04-24T07:46:11Z</time>
      </trkpt>
      <trkpt lat="45.79145" lon="5.02021">
        <ele>178.1</ele>
        <time>2011-04-24T07:46:33Z</time>
      </trkpt>
      <trkpt lat="45.79146" lon="5.02025">
        <ele>178.3</ele>
        <time>2011-04-24T07:46:34Z</time>
      </trkpt>
      <trkpt lat="45.79148" lon="5.02042">
        <ele>178.6</ele>
        <time>2011-04-24T07:46:38Z</time>
      </trkpt>
      <trkpt lat="45.7915" lon="5.02054">
        <ele>179.3</ele>
        <time>2011-04-24T07:46:41Z</time>
      </trkpt>
      <trkpt lat="45.79152" lon="5.02061">
        <ele>179</ele>
        <time>2011-04-24T07:46:43Z</time>
      </trkpt>
      <trkpt lat="45.79154" lon="5.02068">
        <ele>179.3</ele>
        <time>2011-04-24T07:46:45Z</time>
      </trkpt>
      <trkpt lat="45.79165" lon="5.02096">
        <ele>176</ele>
        <time>2011-04-24T07:46:53Z</time>
      </trkpt>
      <trkpt lat="45.79167" lon="5.02099">
        <ele>177.3</ele>
        <time>2011-04-24T07:46:54Z</time>
      </trkpt>
      <trkpt lat="45.79168" lon="5.02103">
        <ele>176.6</ele>
        <time>2011-04-24T07:46:55Z</time>
      </trkpt>
      <trkpt lat="45.79171" lon="5.02105">
        <ele>177.3</ele>
        <time>2011-04-24T07:46:56Z</time>
      </trkpt>
      <trkpt lat="45.79171" lon="5.02109">
        <ele>176.5</ele>
        <time>2011-04-24T07:46:57Z</time>
      </trkpt>
      <trkpt lat="45.79173" lon="5.02112">
        <ele>176.8</ele>
        <time>2011-04-24T07:46:58Z</time>
      </trkpt>
      <trkpt lat="45.79179" lon="5.02122">
        <ele>178</ele>
        <time>2011-04-24T07:47:01Z</time>
      </trkpt>
      <trkpt lat="45.79186" lon="5.02129">
        <ele>179.1</ele>
        <time>2011-04-24T07:47:04Z</time>
      </trkpt>
      <trkpt lat="45.79188" lon="5.0213">
        <ele>179</ele>
        <time>2011-04-24T07:47:05Z</time>
      </trkpt>
      <trkpt lat="45.79191" lon="5.02131">
        <ele>180.5</ele>
        <time>2011-04-24T07:47:06Z</time>
      </trkpt>
      <trkpt lat="45.79195" lon="5.02131">
        <ele>181</ele>
        <time>2011-04-24T07:47:07Z</time>
      </trkpt>
      <trkpt lat="45.79198" lon="5.02131">
        <ele>181</ele>
        <time>2011-04-24T07:47:08Z</time>
      </trkpt>
      <trkpt lat="45.792" lon="5.02131">
        <ele>181.6</ele>
        <time>2011-04-24T07:47:09Z</time>
      </trkpt>
      <trkpt lat="45.79246" lon="5.02122">
        <ele>184.1</ele>
        <time>2011-04-24T07:47:26Z</time>
      </trkpt>
      <trkpt lat="45.79266" lon="5.02116">
        <ele>178.1</ele>
        <time>2011-04-24T07:47:34Z</time>
      </trkpt>
      <trkpt lat="45.7928" lon="5.02113">
        <ele>179.1</ele>
        <time>2011-04-24T07:47:39Z</time>
      </trkpt>
      <trkpt lat="45.79284" lon="5.02112">
        <ele>180.3</ele>
        <time>2011-04-24T07:47:40Z</time>
      </trkpt>
      <trkpt lat="45.79292" lon="5.02113">
        <ele>179.6</ele>
        <time>2011-04-24T07:47:43Z</time>
      </trkpt>
      <trkpt lat="45.79322" lon="5.02124">
        <ele>181.6</ele>
        <time>2011-04-24T07:47:53Z</time>
      </trkpt>
      <trkpt lat="45.79324" lon="5.02126">
        <ele>181.3</ele>
        <time>2011-04-24T07:47:54Z</time>
      </trkpt>
      <trkpt lat="45.79335" lon="5.02136">
        <ele>180.8</ele>
        <time>2011-04-24T07:47:58Z</time>
      </trkpt>
      <trkpt lat="45.79337" lon="5.02138">
        <ele>180</ele>
        <time>2011-04-24T07:47:59Z</time>
      </trkpt>
      <trkpt lat="45.7934" lon="5.0214">
        <ele>180.6</ele>
        <time>2011-04-24T07:48:00Z</time>
      </trkpt>
      <trkpt lat="45.79347" lon="5.02144">
        <ele>182.3</ele>
        <time>2011-04-24T07:48:02Z</time>
      </trkpt>
      <trkpt lat="45.79349" lon="5.02145">
        <ele>182.3</ele>
        <time>2011-04-24T07:48:03Z</time>
      </trkpt>
      <trkpt lat="45.79366" lon="5.02158">
        <ele>183.1</ele>
        <time>2011-04-24T07:48:10Z</time>
      </trkpt>
      <trkpt lat="45.79368" lon="5.02161">
        <ele>183.1</ele>
        <time>2011-04-24T07:48:11Z</time>
      </trkpt>
      <trkpt lat="45.79376" lon="5.02177">
        <ele>180.3</ele>
        <time>2011-04-24T07:48:16Z</time>
      </trkpt>
      <trkpt lat="45.7938" lon="5.02184">
        <ele>181.1</ele>
        <time>2011-04-24T07:48:18Z</time>
      </trkpt>
      <trkpt lat="45.79381" lon="5.02187">
        <ele>180.1</ele>
        <time>2011-04-24T07:48:19Z</time>
      </trkpt>
      <trkpt lat="45.79383" lon="5.0219">
        <ele>179.5</ele>
        <time>2011-04-24T07:48:20Z</time>
      </trkpt>
      <trkpt lat="45.79385" lon="5.02193">
        <ele>180.3</ele>
        <time>2011-04-24T07:48:21Z</time>
      </trkpt>
      <trkpt lat="45.79388" lon="5.02199">
        <ele>179.3</ele>
        <time>2011-04-24T07:48:23Z</time>
      </trkpt>
      <trkpt lat="45.7939" lon="5.02202">
        <ele>178.6</ele>
        <time>2011-04-24T07:48:24Z</time>
      </trkpt>
      <trkpt lat="45.79392" lon="5.02205">
        <ele>178.8</ele>
        <time>2011-04-24T07:48:25Z</time>
      </trkpt>
      <trkpt lat="45.79396" lon="5.02211">
        <ele>178.8</ele>
        <time>2011-04-24T07:48:27Z</time>
      </trkpt>
      <trkpt lat="45.79403" lon="5.02226">
        <ele>178.1</ele>
        <time>2011-04-24T07:48:32Z</time>
      </trkpt>
      <trkpt lat="45.79405" lon="5.02229">
        <ele>178.8</ele>
        <time>2011-04-24T07:48:33Z</time>
      </trkpt>
      <trkpt lat="45.79407" lon="5.02241">
        <ele>177.3</ele>
        <time>2011-04-24T07:48:36Z</time>
      </trkpt>
      <trkpt lat="45.7941" lon="5.02251">
        <ele>178.3</ele>
        <time>2011-04-24T07:48:39Z</time>
      </trkpt>
      <trkpt lat="45.79411" lon="5.02257">
        <ele>178.1</ele>
        <time>2011-04-24T07:48:41Z</time>
      </trkpt>
      <trkpt lat="45.79411" lon="5.0226">
        <ele>178</ele>
        <time>2011-04-24T07:48:42Z</time>
      </trkpt>
      <trkpt lat="45.79418" lon="5.02285">
        <ele>179.1</ele>
        <time>2011-04-24T07:48:50Z</time>
      </trkpt>
      <trkpt lat="45.79423" lon="5.02304">
        <ele>178.3</ele>
        <time>2011-04-24T07:48:58Z</time>
      </trkpt>
      <trkpt lat="45.79423" lon="5.02304">
        <ele>178.6</ele>
        <time>2011-04-24T07:48:59Z</time>
      </trkpt>
      <trkpt lat="45.79424" lon="5.02304">
        <ele>178.6</ele>
        <time>2011-04-24T07:49:00Z</time>
      </trkpt>
      <trkpt lat="45.79431" lon="5.02299">
        <ele>179.8</ele>
        <time>2011-04-24T07:49:04Z</time>
      </trkpt>
      <trkpt lat="45.79434" lon="5.02296">
        <ele>180</ele>
        <time>2011-04-24T07:49:05Z</time>
      </trkpt>
      <trkpt lat="45.79436" lon="5.02295">
        <ele>179.8</ele>
        <time>2011-04-24T07:49:06Z</time>
      </trkpt>
      <trkpt lat="45.79439" lon="5.02295">
        <ele>180.1</ele>
        <time>2011-04-24T07:49:07Z</time>
      </trkpt>
      <trkpt lat="45.79444" lon="5.02292">
        <ele>180.6</ele>
        <time>2011-04-24T07:49:09Z</time>
      </trkpt>
      <trkpt lat="45.79447" lon="5.0229">
        <ele>180</ele>
        <time>2011-04-24T07:49:10Z</time>
      </trkpt>
      <trkpt lat="45.79457" lon="5.0228">
        <ele>179.5</ele>
        <time>2011-04-24T07:49:15Z</time>
      </trkpt>
      <trkpt lat="45.79459" lon="5.02278">
        <ele>179.3</ele>
        <time>2011-04-24T07:49:16Z</time>
      </trkpt>
      <trkpt lat="45.79475" lon="5.02258">
        <ele>181.1</ele>
        <time>2011-04-24T07:49:32Z</time>
      </trkpt>
      <trkpt lat="45.79476" lon="5.02256">
        <ele>181.5</ele>
        <time>2011-04-24T07:49:33Z</time>
      </trkpt>
      <trkpt lat="45.79476" lon="5.02249">
        <ele>179.8</ele>
        <time>2011-04-24T07:49:37Z</time>
      </trkpt>
      <trkpt lat="45.79477" lon="5.02248">
        <ele>179.1</ele>
        <time>2011-04-24T07:49:38Z</time>
      </trkpt>
      <trkpt lat="45.79478" lon="5.02247">
        <ele>178.3</ele>
        <time>2011-04-24T07:49:39Z</time>
      </trkpt>
      <trkpt lat="45.79479" lon="5.02244">
        <ele>177.3</ele>
        <time>2011-04-24T07:49:40Z</time>
      </trkpt>
      <trkpt lat="45.7948" lon="5.02243">
        <ele>177</ele>
        <time>2011-04-24T07:49:41Z</time>
      </trkpt>
      <trkpt lat="45.79498" lon="5.02227">
        <ele>185.5</ele>
        <time>2011-04-24T07:50:06Z</time>
      </trkpt>
      <trkpt lat="45.795" lon="5.02226">
        <ele>185.8</ele>
        <time>2011-04-24T07:50:07Z</time>
      </trkpt>
      <trkpt lat="45.79502" lon="5.02224">
        <ele>185.1</ele>
        <time>2011-04-24T07:50:08Z</time>
      </trkpt>
      <trkpt lat="45.79508" lon="5.0222">
        <ele>182.3</ele>
        <time>2011-04-24T07:50:11Z</time>
      </trkpt>
      <trkpt lat="45.79511" lon="5.02219">
        <ele>182.6</ele>
        <time>2011-04-24T07:50:12Z</time>
      </trkpt>
      <trkpt lat="45.79515" lon="5.02218">
        <ele>181.5</ele>
        <time>2011-04-24T07:50:14Z</time>
      </trkpt>
      <trkpt lat="45.79516" lon="5.02216">
        <ele>181.3</ele>
        <time>2011-04-24T07:50:15Z</time>
      </trkpt>
      <trkpt lat="45.79518" lon="5.02214">
        <ele>180.6</ele>
        <time>2011-04-24T07:50:16Z</time>
      </trkpt>
      <trkpt lat="45.7952" lon="5.02212">
        <ele>179.6</ele>
        <time>2011-04-24T07:50:17Z</time>
      </trkpt>
      <trkpt lat="45.79546" lon="5.02186">
        <ele>177.6</ele>
        <time>2011-04-24T07:50:28Z</time>
      </trkpt>
      <trkpt lat="45.79548" lon="5.02185">
        <ele>176.8</ele>
        <time>2011-04-24T07:50:29Z</time>
      </trkpt>
      <trkpt lat="45.7955" lon="5.02182">
        <ele>175.6</ele>
        <time>2011-04-24T07:50:30Z</time>
      </trkpt>
      <trkpt lat="45.79553" lon="5.02177">
        <ele>174.8</ele>
        <time>2011-04-24T07:50:32Z</time>
      </trkpt>
      <trkpt lat="45.79562" lon="5.02158">
        <ele>175.6</ele>
        <time>2011-04-24T07:50:38Z</time>
      </trkpt>
      <trkpt lat="45.79562" lon="5.02154">
        <ele>175.1</ele>
        <time>2011-04-24T07:50:39Z</time>
      </trkpt>
      <trkpt lat="45.79562" lon="5.0215">
        <ele>175.3</ele>
        <time>2011-04-24T07:50:40Z</time>
      </trkpt>
      <trkpt lat="45.79562" lon="5.02146">
        <ele>175.3</ele>
        <time>2011-04-24T07:50:41Z</time>
      </trkpt>
      <trkpt lat="45.79561" lon="5.02143">
        <ele>175.3</ele>
        <time>2011-04-24T07:50:42Z</time>
      </trkpt>
      <trkpt lat="45.7956" lon="5.02139">
        <ele>175.3</ele>
        <time>2011-04-24T07:50:43Z</time>
      </trkpt>
      <trkpt lat="45.79558" lon="5.02137">
        <ele>175.3</ele>
        <time>2011-04-24T07:50:44Z</time>
      </trkpt>
      <trkpt lat="45.79552" lon="5.0213">
        <ele>177.3</ele>
        <time>2011-04-24T07:50:47Z</time>
      </trkpt>
      <trkpt lat="45.79547" lon="5.02121">
        <ele>176.6</ele>
        <time>2011-04-24T07:50:50Z</time>
      </trkpt>
      <trkpt lat="45.79546" lon="5.02116">
        <ele>176.6</ele>
        <time>2011-04-24T07:50:51Z</time>
      </trkpt>
      <trkpt lat="45.79545" lon="5.02108">
        <ele>175.1</ele>
        <time>2011-04-24T07:50:53Z</time>
      </trkpt>
      <trkpt lat="45.79546" lon="5.02104">
        <ele>175.3</ele>
        <time>2011-04-24T07:50:54Z</time>
      </trkpt>
      <trkpt lat="45.79551" lon="5.02084">
        <ele>173.6</ele>
        <time>2011-04-24T07:50:59Z</time>
      </trkpt>
      <trkpt lat="45.79553" lon="5.02082">
        <ele>173.1</ele>
        <time>2011-04-24T07:51:00Z</time>
      </trkpt>
      <trkpt lat="45.79561" lon="5.02071">
        <ele>174</ele>
        <time>2011-04-24T07:51:04Z</time>
      </trkpt>
      <trkpt lat="45.79563" lon="5.02068">
        <ele>173.3</ele>
        <time>2011-04-24T07:51:05Z</time>
      </trkpt>
      <trkpt lat="45.79572" lon="5.02052">
        <ele>174.1</ele>
        <time>2011-04-24T07:51:10Z</time>
      </trkpt>
      <trkpt lat="45.79574" lon="5.0205">
        <ele>174.8</ele>
        <time>2011-04-24T07:51:11Z</time>
      </trkpt>
      <trkpt lat="45.79596" lon="5.02022">
        <ele>174.1</ele>
        <time>2011-04-24T07:51:21Z</time>
      </trkpt>
      <trkpt lat="45.79597" lon="5.0202">
        <ele>174.1</ele>
        <time>2011-04-24T07:51:22Z</time>
      </trkpt>
      <trkpt lat="45.79612" lon="5.01998">
        <ele>174.1</ele>
        <time>2011-04-24T07:51:29Z</time>
      </trkpt>
      <trkpt lat="45.79651" lon="5.01922">
        <ele>176.5</ele>
        <time>2011-04-24T07:51:51Z</time>
      </trkpt>
      <trkpt lat="45.79654" lon="5.01914">
        <ele>177.1</ele>
        <time>2011-04-24T07:51:53Z</time>
      </trkpt>
      <trkpt lat="45.79656" lon="5.01911">
        <ele>177.6</ele>
        <time>2011-04-24T07:51:54Z</time>
      </trkpt>
      <trkpt lat="45.79666" lon="5.01896">
        <ele>174.5</ele>
        <time>2011-04-24T07:51:59Z</time>
      </trkpt>
      <trkpt lat="45.79667" lon="5.01892">
        <ele>173.6</ele>
        <time>2011-04-24T07:52:00Z</time>
      </trkpt>
      <trkpt lat="45.79668" lon="5.01888">
        <ele>174.8</ele>
        <time>2011-04-24T07:52:01Z</time>
      </trkpt>
      <trkpt lat="45.7967" lon="5.01885">
        <ele>175.3</ele>
        <time>2011-04-24T07:52:02Z</time>
      </trkpt>
      <trkpt lat="45.79671" lon="5.01883">
        <ele>175.8</ele>
        <time>2011-04-24T07:52:03Z</time>
      </trkpt>
      <trkpt lat="45.79672" lon="5.01881">
        <ele>176.1</ele>
        <time>2011-04-24T07:52:04Z</time>
      </trkpt>
      <trkpt lat="45.79673" lon="5.01881">
        <ele>176.8</ele>
        <time>2011-04-24T07:52:05Z</time>
      </trkpt>
      <trkpt lat="45.79675" lon="5.01882">
        <ele>177.3</ele>
        <time>2011-04-24T07:52:08Z</time>
      </trkpt>
      <trkpt lat="45.79677" lon="5.01884">
        <ele>179.1</ele>
        <time>2011-04-24T07:52:09Z</time>
      </trkpt>
      <trkpt lat="45.7968" lon="5.01884">
        <ele>179.1</ele>
        <time>2011-04-24T07:52:10Z</time>
      </trkpt>
      <trkpt lat="45.79683" lon="5.01884">
        <ele>179.1</ele>
        <time>2011-04-24T07:52:11Z</time>
      </trkpt>
      <trkpt lat="45.79686" lon="5.01885">
        <ele>179.1</ele>
        <time>2011-04-24T07:52:12Z</time>
      </trkpt>
      <trkpt lat="45.79692" lon="5.01886">
        <ele>180</ele>
        <time>2011-04-24T07:52:14Z</time>
      </trkpt>
      <trkpt lat="45.79695" lon="5.01884">
        <ele>180.3</ele>
        <time>2011-04-24T07:52:15Z</time>
      </trkpt>
      <trkpt lat="45.79703" lon="5.01878">
        <ele>182.6</ele>
        <time>2011-04-24T07:52:18Z</time>
      </trkpt>
      <trkpt lat="45.79705" lon="5.01879">
        <ele>182.6</ele>
        <time>2011-04-24T07:52:19Z</time>
      </trkpt>
      <trkpt lat="45.79709" lon="5.0188">
        <ele>182</ele>
        <time>2011-04-24T07:52:20Z</time>
      </trkpt>
      <trkpt lat="45.79712" lon="5.01883">
        <ele>180.1</ele>
        <time>2011-04-24T07:52:21Z</time>
      </trkpt>
      <trkpt lat="45.79722" lon="5.01896">
        <ele>175</ele>
        <time>2011-04-24T07:52:27Z</time>
      </trkpt>
      <trkpt lat="45.79726" lon="5.01901">
        <ele>173.6</ele>
        <time>2011-04-24T07:52:29Z</time>
      </trkpt>
      <trkpt lat="45.79728" lon="5.01904">
        <ele>172.8</ele>
        <time>2011-04-24T07:52:30Z</time>
      </trkpt>
      <trkpt lat="45.79732" lon="5.01909">
        <ele>172.1</ele>
        <time>2011-04-24T07:52:32Z</time>
      </trkpt>
      <trkpt lat="45.79761" lon="5.01935">
        <ele>180.1</ele>
        <time>2011-04-24T07:52:42Z</time>
      </trkpt>
      <trkpt lat="45.79775" lon="5.01947">
        <ele>179.8</ele>
        <time>2011-04-24T07:52:47Z</time>
      </trkpt>
      <trkpt lat="45.79776" lon="5.01949">
        <ele>179.8</ele>
        <time>2011-04-24T07:52:48Z</time>
      </trkpt>
      <trkpt lat="45.79777" lon="5.0195">
        <ele>178.6</ele>
        <time>2011-04-24T07:52:49Z</time>
      </trkpt>
      <trkpt lat="45.79779" lon="5.01952">
        <ele>178.6</ele>
        <time>2011-04-24T07:52:50Z</time>
      </trkpt>
      <trkpt lat="45.79781" lon="5.01953">
        <ele>178.8</ele>
        <time>2011-04-24T07:52:51Z</time>
      </trkpt>
      <trkpt lat="45.79785" lon="5.01954">
        <ele>177.5</ele>
        <time>2011-04-24T07:52:53Z</time>
      </trkpt>
      <trkpt lat="45.79787" lon="5.01953">
        <ele>177.5</ele>
        <time>2011-04-24T07:52:54Z</time>
      </trkpt>
      <trkpt lat="45.79789" lon="5.01951">
        <ele>180.1</ele>
        <time>2011-04-24T07:52:55Z</time>
      </trkpt>
      <trkpt lat="45.79792" lon="5.01944">
        <ele>180.3</ele>
        <time>2011-04-24T07:52:58Z</time>
      </trkpt>
      <trkpt lat="45.79797" lon="5.0193">
        <ele>177.8</ele>
        <time>2011-04-24T07:53:02Z</time>
      </trkpt>
      <trkpt lat="45.79798" lon="5.01927">
        <ele>177.1</ele>
        <time>2011-04-24T07:53:03Z</time>
      </trkpt>
      <trkpt lat="45.79802" lon="5.01918">
        <ele>176.8</ele>
        <time>2011-04-24T07:53:06Z</time>
      </trkpt>
      <trkpt lat="45.79803" lon="5.01913">
        <ele>176.3</ele>
        <time>2011-04-24T07:53:07Z</time>
      </trkpt>
      <trkpt lat="45.79804" lon="5.01905">
        <ele>175.8</ele>
        <time>2011-04-24T07:53:09Z</time>
      </trkpt>
      <trkpt lat="45.79805" lon="5.01902">
        <ele>175.5</ele>
        <time>2011-04-24T07:53:10Z</time>
      </trkpt>
      <trkpt lat="45.79815" lon="5.01882">
        <ele>175.8</ele>
        <time>2011-04-24T07:53:16Z</time>
      </trkpt>
      <trkpt lat="45.79818" lon="5.01879">
        <ele>176.5</ele>
        <time>2011-04-24T07:53:17Z</time>
      </trkpt>
      <trkpt lat="45.79823" lon="5.01874">
        <ele>177.3</ele>
        <time>2011-04-24T07:53:19Z</time>
      </trkpt>
      <trkpt lat="45.79826" lon="5.01873">
        <ele>178.1</ele>
        <time>2011-04-24T07:53:20Z</time>
      </trkpt>
      <trkpt lat="45.79828" lon="5.01873">
        <ele>179</ele>
        <time>2011-04-24T07:53:21Z</time>
      </trkpt>
      <trkpt lat="45.79833" lon="5.01874">
        <ele>179.8</ele>
        <time>2011-04-24T07:53:23Z</time>
      </trkpt>
      <trkpt lat="45.79836" lon="5.01874">
        <ele>180.3</ele>
        <time>2011-04-24T07:53:24Z</time>
      </trkpt>
      <trkpt lat="45.79839" lon="5.01877">
        <ele>179.5</ele>
        <time>2011-04-24T07:53:25Z</time>
      </trkpt>
      <trkpt lat="45.79841" lon="5.01879">
        <ele>179.3</ele>
        <time>2011-04-24T07:53:26Z</time>
      </trkpt>
      <trkpt lat="45.79877" lon="5.01922">
        <ele>178.5</ele>
        <time>2011-04-24T07:53:42Z</time>
      </trkpt>
      <trkpt lat="45.79879" lon="5.01924">
        <ele>178.5</ele>
        <time>2011-04-24T07:53:43Z</time>
      </trkpt>
      <trkpt lat="45.79887" lon="5.01931">
        <ele>177.3</ele>
        <time>2011-04-24T07:53:46Z</time>
      </trkpt>
      <trkpt lat="45.799" lon="5.01942">
        <ele>178.8</ele>
        <time>2011-04-24T07:53:51Z</time>
      </trkpt>
      <trkpt lat="45.79904" lon="5.01947">
        <ele>178.6</ele>
        <time>2011-04-24T07:53:53Z</time>
      </trkpt>
      <trkpt lat="45.79917" lon="5.0196">
        <ele>177.8</ele>
        <time>2011-04-24T07:53:59Z</time>
      </trkpt>
      <trkpt lat="45.79922" lon="5.01965">
        <ele>177.5</ele>
        <time>2011-04-24T07:54:01Z</time>
      </trkpt>
      <trkpt lat="45.79924" lon="5.01966">
        <ele>177.3</ele>
        <time>2011-04-24T07:54:02Z</time>
      </trkpt>
      <trkpt lat="45.79994" lon="5.0201">
        <ele>182.1</ele>
        <time>2011-04-24T07:54:29Z</time>
      </trkpt>
      <trkpt lat="45.79997" lon="5.0201">
        <ele>182.1</ele>
        <time>2011-04-24T07:54:30Z</time>
      </trkpt>
      <trkpt lat="45.80017" lon="5.02014">
        <ele>181</ele>
        <time>2011-04-24T07:54:37Z</time>
      </trkpt>
      <trkpt lat="45.80026" lon="5.02017">
        <ele>180.3</ele>
        <time>2011-04-24T07:54:40Z</time>
      </trkpt>
      <trkpt lat="45.80029" lon="5.0202">
        <ele>181.1</ele>
        <time>2011-04-24T07:54:41Z</time>
      </trkpt>
      <trkpt lat="45.80036" lon="5.02027">
        <ele>180.8</ele>
        <time>2011-04-24T07:54:44Z</time>
      </trkpt>
      <trkpt lat="45.80038" lon="5.02029">
        <ele>180.6</ele>
        <time>2011-04-24T07:54:45Z</time>
      </trkpt>
      <trkpt lat="45.80072" lon="5.02073">
        <ele>178.6</ele>
        <time>2011-04-24T07:55:02Z</time>
      </trkpt>
      <trkpt lat="45.80093" lon="5.02099">
        <ele>174.6</ele>
        <time>2011-04-24T07:55:12Z</time>
      </trkpt>
      <trkpt lat="45.80095" lon="5.02102">
        <ele>174.6</ele>
        <time>2011-04-24T07:55:13Z</time>
      </trkpt>
      <trkpt lat="45.80102" lon="5.02116">
        <ele>173.3</ele>
        <time>2011-04-24T07:55:18Z</time>
      </trkpt>
      <trkpt lat="45.80105" lon="5.02119">
        <ele>173.3</ele>
        <time>2011-04-24T07:55:19Z</time>
      </trkpt>
      <trkpt lat="45.8011" lon="5.02128">
        <ele>174.1</ele>
        <time>2011-04-24T07:55:22Z</time>
      </trkpt>
      <trkpt lat="45.80128" lon="5.0215">
        <ele>175.3</ele>
        <time>2011-04-24T07:55:30Z</time>
      </trkpt>
      <trkpt lat="45.8013" lon="5.02154">
        <ele>175.1</ele>
        <time>2011-04-24T07:55:31Z</time>
      </trkpt>
      <trkpt lat="45.80131" lon="5.02157">
        <ele>175.1</ele>
        <time>2011-04-24T07:55:32Z</time>
      </trkpt>
      <trkpt lat="45.80141" lon="5.02176">
        <ele>175.3</ele>
        <time>2011-04-24T07:55:38Z</time>
      </trkpt>
      <trkpt lat="45.80142" lon="5.0218">
        <ele>175.3</ele>
        <time>2011-04-24T07:55:39Z</time>
      </trkpt>
      <trkpt lat="45.80143" lon="5.02183">
        <ele>175.3</ele>
        <time>2011-04-24T07:55:40Z</time>
      </trkpt>
      <trkpt lat="45.80149" lon="5.02196">
        <ele>176.8</ele>
        <time>2011-04-24T07:55:44Z</time>
      </trkpt>
      <trkpt lat="45.80165" lon="5.02227">
        <ele>177.6</ele>
        <time>2011-04-24T07:55:54Z</time>
      </trkpt>
      <trkpt lat="45.80169" lon="5.02232">
        <ele>178.1</ele>
        <time>2011-04-24T07:55:56Z</time>
      </trkpt>
      <trkpt lat="45.80171" lon="5.02235">
        <ele>179.1</ele>
        <time>2011-04-24T07:55:57Z</time>
      </trkpt>
      <trkpt lat="45.80172" lon="5.02239">
        <ele>179.1</ele>
        <time>2011-04-24T07:55:58Z</time>
      </trkpt>
      <trkpt lat="45.80172" lon="5.02243">
        <ele>178.6</ele>
        <time>2011-04-24T07:55:59Z</time>
      </trkpt>
      <trkpt lat="45.80174" lon="5.02246">
        <ele>178.6</ele>
        <time>2011-04-24T07:56:00Z</time>
      </trkpt>
      <trkpt lat="45.80191" lon="5.02279">
        <ele>178</ele>
        <time>2011-04-24T07:56:11Z</time>
      </trkpt>
      <trkpt lat="45.80192" lon="5.02284">
        <ele>178</ele>
        <time>2011-04-24T07:56:12Z</time>
      </trkpt>
      <trkpt lat="45.80194" lon="5.02295">
        <ele>177.6</ele>
        <time>2011-04-24T07:56:15Z</time>
      </trkpt>
      <trkpt lat="45.80194" lon="5.02299">
        <ele>177.6</ele>
        <time>2011-04-24T07:56:16Z</time>
      </trkpt>
      <trkpt lat="45.80194" lon="5.02303">
        <ele>176.3</ele>
        <time>2011-04-24T07:56:17Z</time>
      </trkpt>
      <trkpt lat="45.80194" lon="5.02307">
        <ele>176.3</ele>
        <time>2011-04-24T07:56:18Z</time>
      </trkpt>
      <trkpt lat="45.80195" lon="5.0231">
        <ele>176.1</ele>
        <time>2011-04-24T07:56:19Z</time>
      </trkpt>
      <trkpt lat="45.80199" lon="5.02316">
        <ele>178.3</ele>
        <time>2011-04-24T07:56:21Z</time>
      </trkpt>
      <trkpt lat="45.80201" lon="5.0232">
        <ele>178.3</ele>
        <time>2011-04-24T07:56:22Z</time>
      </trkpt>
      <trkpt lat="45.80202" lon="5.02323">
        <ele>179.1</ele>
        <time>2011-04-24T07:56:23Z</time>
      </trkpt>
      <trkpt lat="45.80204" lon="5.02325">
        <ele>179.1</ele>
        <time>2011-04-24T07:56:24Z</time>
      </trkpt>
      <trkpt lat="45.80209" lon="5.02328">
        <ele>175.8</ele>
        <time>2011-04-24T07:56:26Z</time>
      </trkpt>
      <trkpt lat="45.80211" lon="5.0233">
        <ele>175.1</ele>
        <time>2011-04-24T07:56:27Z</time>
      </trkpt>
      <trkpt lat="45.80217" lon="5.02336">
        <ele>177</ele>
        <time>2011-04-24T07:56:30Z</time>
      </trkpt>
      <trkpt lat="45.80242" lon="5.02364">
        <ele>177</ele>
        <time>2011-04-24T07:56:42Z</time>
      </trkpt>
      <trkpt lat="45.80244" lon="5.02367">
        <ele>176.1</ele>
        <time>2011-04-24T07:56:43Z</time>
      </trkpt>
      <trkpt lat="45.80247" lon="5.02373">
        <ele>176.3</ele>
        <time>2011-04-24T07:56:45Z</time>
      </trkpt>
      <trkpt lat="45.80249" lon="5.02376">
        <ele>176.1</ele>
        <time>2011-04-24T07:56:46Z</time>
      </trkpt>
      <trkpt lat="45.8025" lon="5.0238">
        <ele>176.1</ele>
        <time>2011-04-24T07:56:47Z</time>
      </trkpt>
      <trkpt lat="45.80251" lon="5.02385">
        <ele>177.5</ele>
        <time>2011-04-24T07:56:48Z</time>
      </trkpt>
      <trkpt lat="45.80261" lon="5.0241">
        <ele>180.5</ele>
        <time>2011-04-24T07:56:55Z</time>
      </trkpt>
      <trkpt lat="45.80261" lon="5.02415">
        <ele>179.8</ele>
        <time>2011-04-24T07:56:56Z</time>
      </trkpt>
      <trkpt lat="45.80262" lon="5.02419">
        <ele>180</ele>
        <time>2011-04-24T07:56:57Z</time>
      </trkpt>
      <trkpt lat="45.80263" lon="5.02423">
        <ele>180.5</ele>
        <time>2011-04-24T07:56:58Z</time>
      </trkpt>
      <trkpt lat="45.80263" lon="5.02427">
        <ele>180.5</ele>
        <time>2011-04-24T07:56:59Z</time>
      </trkpt>
      <trkpt lat="45.80263" lon="5.02432">
        <ele>181</ele>
        <time>2011-04-24T07:57:00Z</time>
      </trkpt>
      <trkpt lat="45.80262" lon="5.02437">
        <ele>181</ele>
        <time>2011-04-24T07:57:01Z</time>
      </trkpt>
      <trkpt lat="45.80261" lon="5.02441">
        <ele>181.3</ele>
        <time>2011-04-24T07:57:02Z</time>
      </trkpt>
      <trkpt lat="45.8026" lon="5.02448">
        <ele>179.8</ele>
        <time>2011-04-24T07:57:04Z</time>
      </trkpt>
      <trkpt lat="45.8026" lon="5.02452">
        <ele>180.6</ele>
        <time>2011-04-24T07:57:05Z</time>
      </trkpt>
      <trkpt lat="45.8026" lon="5.0246">
        <ele>181.3</ele>
        <time>2011-04-24T07:57:07Z</time>
      </trkpt>
      <trkpt lat="45.80261" lon="5.02463">
        <ele>181.1</ele>
        <time>2011-04-24T07:57:08Z</time>
      </trkpt>
      <trkpt lat="45.80262" lon="5.02472">
        <ele>181.1</ele>
        <time>2011-04-24T07:57:10Z</time>
      </trkpt>
      <trkpt lat="45.80263" lon="5.02475">
        <ele>181.1</ele>
        <time>2011-04-24T07:57:11Z</time>
      </trkpt>
      <trkpt lat="45.80264" lon="5.02478">
        <ele>181.8</ele>
        <time>2011-04-24T07:57:12Z</time>
      </trkpt>
      <trkpt lat="45.80265" lon="5.02481">
        <ele>181.8</ele>
        <time>2011-04-24T07:57:13Z</time>
      </trkpt>
      <trkpt lat="45.80282" lon="5.02561">
        <ele>181.3</ele>
        <time>2011-04-24T07:57:35Z</time>
      </trkpt>
      <trkpt lat="45.80286" lon="5.026">
        <ele>183.1</ele>
        <time>2011-04-24T07:57:45Z</time>
      </trkpt>
      <trkpt lat="45.80287" lon="5.02603">
        <ele>182.3</ele>
        <time>2011-04-24T07:57:46Z</time>
      </trkpt>
      <trkpt lat="45.80295" lon="5.02678">
        <ele>183.6</ele>
        <time>2011-04-24T07:58:05Z</time>
      </trkpt>
      <trkpt lat="45.80295" lon="5.02686">
        <ele>183.6</ele>
        <time>2011-04-24T07:58:07Z</time>
      </trkpt>
      <trkpt lat="45.80293" lon="5.02698">
        <ele>183</ele>
        <time>2011-04-24T07:58:10Z</time>
      </trkpt>
      <trkpt lat="45.80291" lon="5.02701">
        <ele>181.8</ele>
        <time>2011-04-24T07:58:11Z</time>
      </trkpt>
      <trkpt lat="45.80289" lon="5.02705">
        <ele>181.1</ele>
        <time>2011-04-24T07:58:12Z</time>
      </trkpt>
      <trkpt lat="45.80288" lon="5.02709">
        <ele>181</ele>
        <time>2011-04-24T07:58:13Z</time>
      </trkpt>
      <trkpt lat="45.80279" lon="5.02736">
        <ele>177.5</ele>
        <time>2011-04-24T07:58:21Z</time>
      </trkpt>
      <trkpt lat="45.80278" lon="5.0274">
        <ele>177.3</ele>
        <time>2011-04-24T07:58:22Z</time>
      </trkpt>
      <trkpt lat="45.80278" lon="5.02751">
        <ele>178</ele>
        <time>2011-04-24T07:58:25Z</time>
      </trkpt>
      <trkpt lat="45.80275" lon="5.0277">
        <ele>177.8</ele>
        <time>2011-04-24T07:58:30Z</time>
      </trkpt>
      <trkpt lat="45.8027" lon="5.02788">
        <ele>175.3</ele>
        <time>2011-04-24T07:58:35Z</time>
      </trkpt>
      <trkpt lat="45.80263" lon="5.02815">
        <ele>176</ele>
        <time>2011-04-24T07:58:42Z</time>
      </trkpt>
      <trkpt lat="45.80262" lon="5.02819">
        <ele>176</ele>
        <time>2011-04-24T07:58:43Z</time>
      </trkpt>
      <trkpt lat="45.80262" lon="5.02823">
        <ele>176</ele>
        <time>2011-04-24T07:58:44Z</time>
      </trkpt>
      <trkpt lat="45.80256" lon="5.02855">
        <ele>176.8</ele>
        <time>2011-04-24T07:58:52Z</time>
      </trkpt>
      <trkpt lat="45.80256" lon="5.02858">
        <ele>176.8</ele>
        <time>2011-04-24T07:58:53Z</time>
      </trkpt>
      <trkpt lat="45.80257" lon="5.02862">
        <ele>176.6</ele>
        <time>2011-04-24T07:58:54Z</time>
      </trkpt>
      <trkpt lat="45.80259" lon="5.02865">
        <ele>176.6</ele>
        <time>2011-04-24T07:58:55Z</time>
      </trkpt>
      <trkpt lat="45.80262" lon="5.02871">
        <ele>175.1</ele>
        <time>2011-04-24T07:58:57Z</time>
      </trkpt>
      <trkpt lat="45.80263" lon="5.02875">
        <ele>175.1</ele>
        <time>2011-04-24T07:58:58Z</time>
      </trkpt>
      <trkpt lat="45.80265" lon="5.02886">
        <ele>174.8</ele>
        <time>2011-04-24T07:59:01Z</time>
      </trkpt>
      <trkpt lat="45.8027" lon="5.02904">
        <ele>174.1</ele>
        <time>2011-04-24T07:59:06Z</time>
      </trkpt>
      <trkpt lat="45.80271" lon="5.02912">
        <ele>174.6</ele>
        <time>2011-04-24T07:59:08Z</time>
      </trkpt>
      <trkpt lat="45.80273" lon="5.02919">
        <ele>175.8</ele>
        <time>2011-04-24T07:59:10Z</time>
      </trkpt>
      <trkpt lat="45.80278" lon="5.02935">
        <ele>178.3</ele>
        <time>2011-04-24T07:59:14Z</time>
      </trkpt>
      <trkpt lat="45.80278" lon="5.02939">
        <ele>178.6</ele>
        <time>2011-04-24T07:59:15Z</time>
      </trkpt>
      <trkpt lat="45.8028" lon="5.02946">
        <ele>179</ele>
        <time>2011-04-24T07:59:17Z</time>
      </trkpt>
      <trkpt lat="45.80285" lon="5.03006">
        <ele>176.5</ele>
        <time>2011-04-24T07:59:33Z</time>
      </trkpt>
      <trkpt lat="45.80286" lon="5.0301">
        <ele>176.5</ele>
        <time>2011-04-24T07:59:34Z</time>
      </trkpt>
      <trkpt lat="45.80288" lon="5.03021">
        <ele>176.5</ele>
        <time>2011-04-24T07:59:37Z</time>
      </trkpt>
      <trkpt lat="45.80289" lon="5.03025">
        <ele>176.5</ele>
        <time>2011-04-24T07:59:38Z</time>
      </trkpt>
      <trkpt lat="45.80291" lon="5.03041">
        <ele>176.3</ele>
        <time>2011-04-24T07:59:42Z</time>
      </trkpt>
      <trkpt lat="45.80293" lon="5.03051">
        <ele>177.1</ele>
        <time>2011-04-24T07:59:45Z</time>
      </trkpt>
      <trkpt lat="45.80294" lon="5.03054">
        <ele>177</ele>
        <time>2011-04-24T07:59:46Z</time>
      </trkpt>
      <trkpt lat="45.80299" lon="5.03075">
        <ele>176.3</ele>
        <time>2011-04-24T07:59:52Z</time>
      </trkpt>
      <trkpt lat="45.803" lon="5.03079">
        <ele>176.3</ele>
        <time>2011-04-24T07:59:53Z</time>
      </trkpt>
      <trkpt lat="45.80304" lon="5.03089">
        <ele>176.3</ele>
        <time>2011-04-24T07:59:56Z</time>
      </trkpt>
      <trkpt lat="45.80306" lon="5.03092">
        <ele>175.6</ele>
        <time>2011-04-24T07:59:57Z</time>
      </trkpt>
      <trkpt lat="45.80312" lon="5.03113">
        <ele>175.8</ele>
        <time>2011-04-24T08:00:03Z</time>
      </trkpt>
      <trkpt lat="45.80313" lon="5.03116">
        <ele>176.5</ele>
        <time>2011-04-24T08:00:04Z</time>
      </trkpt>
      <trkpt lat="45.80315" lon="5.03119">
        <ele>176.1</ele>
        <time>2011-04-24T08:00:05Z</time>
      </trkpt>
      <trkpt lat="45.80345" lon="5.03167">
        <ele>171.5</ele>
        <time>2011-04-24T08:00:23Z</time>
      </trkpt>
      <trkpt lat="45.80352" lon="5.03175">
        <ele>172.6</ele>
        <time>2011-04-24T08:00:26Z</time>
      </trkpt>
      <trkpt lat="45.80356" lon="5.03181">
        <ele>173.1</ele>
        <time>2011-04-24T08:00:29Z</time>
      </trkpt>
      <trkpt lat="45.80368" lon="5.03197">
        <ele>174.5</ele>
        <time>2011-04-24T08:00:35Z</time>
      </trkpt>
      <trkpt lat="45.8037" lon="5.03199">
        <ele>174.8</ele>
        <time>2011-04-24T08:00:36Z</time>
      </trkpt>
      <trkpt lat="45.80381" lon="5.03205">
        <ele>174.1</ele>
        <time>2011-04-24T08:00:41Z</time>
      </trkpt>
      <trkpt lat="45.80384" lon="5.03206">
        <ele>173.8</ele>
        <time>2011-04-24T08:00:42Z</time>
      </trkpt>
      <trkpt lat="45.80389" lon="5.03205">
        <ele>174.3</ele>
        <time>2011-04-24T08:00:44Z</time>
      </trkpt>
      <trkpt lat="45.80414" lon="5.032">
        <ele>176.8</ele>
        <time>2011-04-24T08:00:53Z</time>
      </trkpt>
      <trkpt lat="45.80417" lon="5.032">
        <ele>176.8</ele>
        <time>2011-04-24T08:00:54Z</time>
      </trkpt>
      <trkpt lat="45.80431" lon="5.032">
        <ele>177.6</ele>
        <time>2011-04-24T08:00:59Z</time>
      </trkpt>
      <trkpt lat="45.80433" lon="5.03201">
        <ele>176.1</ele>
        <time>2011-04-24T08:01:00Z</time>
      </trkpt>
      <trkpt lat="45.80434" lon="5.03202">
        <ele>175.6</ele>
        <time>2011-04-24T08:01:01Z</time>
      </trkpt>
      <trkpt lat="45.80436" lon="5.03203">
        <ele>175.6</ele>
        <time>2011-04-24T08:01:02Z</time>
      </trkpt>
      <trkpt lat="45.80439" lon="5.03207">
        <ele>175.6</ele>
        <time>2011-04-24T08:01:03Z</time>
      </trkpt>
      <trkpt lat="45.80441" lon="5.03209">
        <ele>175.6</ele>
        <time>2011-04-24T08:01:04Z</time>
      </trkpt>
      <trkpt lat="45.80442" lon="5.03212">
        <ele>173.3</ele>
        <time>2011-04-24T08:01:05Z</time>
      </trkpt>
      <trkpt lat="45.80443" lon="5.03214">
        <ele>172.8</ele>
        <time>2011-04-24T08:01:06Z</time>
      </trkpt>
      <trkpt lat="45.80455" lon="5.03223">
        <ele>176.1</ele>
        <time>2011-04-24T08:01:11Z</time>
      </trkpt>
      <trkpt lat="45.80457" lon="5.03223">
        <ele>176.3</ele>
        <time>2011-04-24T08:01:12Z</time>
      </trkpt>
      <trkpt lat="45.80458" lon="5.03224">
        <ele>175.1</ele>
        <time>2011-04-24T08:01:13Z</time>
      </trkpt>
      <trkpt lat="45.8047" lon="5.0323">
        <ele>177.1</ele>
        <time>2011-04-24T08:01:17Z</time>
      </trkpt>
      <trkpt lat="45.80481" lon="5.03236">
        <ele>177.1</ele>
        <time>2011-04-24T08:01:21Z</time>
      </trkpt>
      <trkpt lat="45.80484" lon="5.03238">
        <ele>177.5</ele>
        <time>2011-04-24T08:01:22Z</time>
      </trkpt>
      <trkpt lat="45.80493" lon="5.03245">
        <ele>179.1</ele>
        <time>2011-04-24T08:01:26Z</time>
      </trkpt>
      <trkpt lat="45.80498" lon="5.03247">
        <ele>179.3</ele>
        <time>2011-04-24T08:01:28Z</time>
      </trkpt>
      <trkpt lat="45.80511" lon="5.03251">
        <ele>178</ele>
        <time>2011-04-24T08:01:33Z</time>
      </trkpt>
      <trkpt lat="45.80519" lon="5.03252">
        <ele>176.1</ele>
        <time>2011-04-24T08:01:36Z</time>
      </trkpt>
      <trkpt lat="45.80522" lon="5.03254">
        <ele>176.1</ele>
        <time>2011-04-24T08:01:37Z</time>
      </trkpt>
      <trkpt lat="45.80525" lon="5.03256">
        <ele>176.3</ele>
        <time>2011-04-24T08:01:38Z</time>
      </trkpt>
      <trkpt lat="45.80528" lon="5.03258">
        <ele>176.3</ele>
        <time>2011-04-24T08:01:39Z</time>
      </trkpt>
      <trkpt lat="45.80531" lon="5.0326">
        <ele>177.8</ele>
        <time>2011-04-24T08:01:40Z</time>
      </trkpt>
      <trkpt lat="45.80549" lon="5.03266">
        <ele>182.3</ele>
        <time>2011-04-24T08:01:46Z</time>
      </trkpt>
      <trkpt lat="45.80551" lon="5.03264">
        <ele>182.3</ele>
        <time>2011-04-24T08:01:47Z</time>
      </trkpt>
      <trkpt lat="45.80562" lon="5.03258">
        <ele>180.8</ele>
        <time>2011-04-24T08:01:52Z</time>
      </trkpt>
      <trkpt lat="45.80564" lon="5.03255">
        <ele>181.1</ele>
        <time>2011-04-24T08:01:53Z</time>
      </trkpt>
      <trkpt lat="45.80567" lon="5.03248">
        <ele>182</ele>
        <time>2011-04-24T08:01:55Z</time>
      </trkpt>
      <trkpt lat="45.80575" lon="5.03223">
        <ele>179.6</ele>
        <time>2011-04-24T08:02:02Z</time>
      </trkpt>
      <trkpt lat="45.80576" lon="5.0322">
        <ele>179.3</ele>
        <time>2011-04-24T08:02:03Z</time>
      </trkpt>
      <trkpt lat="45.80579" lon="5.03218">
        <ele>179.1</ele>
        <time>2011-04-24T08:02:04Z</time>
      </trkpt>
      <trkpt lat="45.80581" lon="5.03217">
        <ele>178.3</ele>
        <time>2011-04-24T08:02:05Z</time>
      </trkpt>
      <trkpt lat="45.80584" lon="5.03216">
        <ele>178.3</ele>
        <time>2011-04-24T08:02:06Z</time>
      </trkpt>
      <trkpt lat="45.80586" lon="5.03217">
        <ele>177.8</ele>
        <time>2011-04-24T08:02:07Z</time>
      </trkpt>
      <trkpt lat="45.80589" lon="5.03217">
        <ele>178.3</ele>
        <time>2011-04-24T08:02:08Z</time>
      </trkpt>
      <trkpt lat="45.80591" lon="5.03216">
        <ele>178.1</ele>
        <time>2011-04-24T08:02:09Z</time>
      </trkpt>
      <trkpt lat="45.80593" lon="5.03216">
        <ele>179.1</ele>
        <time>2011-04-24T08:02:10Z</time>
      </trkpt>
      <trkpt lat="45.80594" lon="5.03214">
        <ele>179.5</ele>
        <time>2011-04-24T08:02:11Z</time>
      </trkpt>
      <trkpt lat="45.80596" lon="5.03213">
        <ele>180.1</ele>
        <time>2011-04-24T08:02:12Z</time>
      </trkpt>
      <trkpt lat="45.80605" lon="5.03213">
        <ele>179.8</ele>
        <time>2011-04-24T08:02:15Z</time>
      </trkpt>
      <trkpt lat="45.80608" lon="5.03215">
        <ele>179.8</ele>
        <time>2011-04-24T08:02:16Z</time>
      </trkpt>
      <trkpt lat="45.8061" lon="5.03216">
        <ele>179.3</ele>
        <time>2011-04-24T08:02:17Z</time>
      </trkpt>
      <trkpt lat="45.80613" lon="5.03216">
        <ele>179.3</ele>
        <time>2011-04-24T08:02:18Z</time>
      </trkpt>
      <trkpt lat="45.80617" lon="5.03216">
        <ele>180.1</ele>
        <time>2011-04-24T08:02:19Z</time>
      </trkpt>
      <trkpt lat="45.80619" lon="5.03219">
        <ele>180.1</ele>
        <time>2011-04-24T08:02:20Z</time>
      </trkpt>
      <trkpt lat="45.80621" lon="5.03222">
        <ele>180.6</ele>
        <time>2011-04-24T08:02:21Z</time>
      </trkpt>
      <trkpt lat="45.80621" lon="5.03224">
        <ele>180.6</ele>
        <time>2011-04-24T08:02:22Z</time>
      </trkpt>
      <trkpt lat="45.80619" lon="5.03226">
        <ele>181.5</ele>
        <time>2011-04-24T08:02:23Z</time>
      </trkpt>
      <trkpt lat="45.8061" lon="5.03238">
        <ele>178.3</ele>
        <time>2011-04-24T08:02:27Z</time>
      </trkpt>
      <trkpt lat="45.80609" lon="5.03242">
        <ele>179.1</ele>
        <time>2011-04-24T08:02:28Z</time>
      </trkpt>
      <trkpt lat="45.80608" lon="5.03245">
        <ele>179.5</ele>
        <time>2011-04-24T08:02:29Z</time>
      </trkpt>
      <trkpt lat="45.80609" lon="5.03251">
        <ele>181.1</ele>
        <time>2011-04-24T08:02:31Z</time>
      </trkpt>
      <trkpt lat="45.8061" lon="5.03254">
        <ele>181.1</ele>
        <time>2011-04-24T08:02:32Z</time>
      </trkpt>
      <trkpt lat="45.80611" lon="5.03258">
        <ele>181.1</ele>
        <time>2011-04-24T08:02:33Z</time>
      </trkpt>
      <trkpt lat="45.80612" lon="5.03262">
        <ele>181.1</ele>
        <time>2011-04-24T08:02:34Z</time>
      </trkpt>
      <trkpt lat="45.80611" lon="5.03265">
        <ele>182.1</ele>
        <time>2011-04-24T08:02:35Z</time>
      </trkpt>
      <trkpt lat="45.8061" lon="5.03276">
        <ele>180.8</ele>
        <time>2011-04-24T08:02:38Z</time>
      </trkpt>
      <trkpt lat="45.8061" lon="5.03281">
        <ele>180.6</ele>
        <time>2011-04-24T08:02:39Z</time>
      </trkpt>
      <trkpt lat="45.80611" lon="5.03284">
        <ele>180.8</ele>
        <time>2011-04-24T08:02:40Z</time>
      </trkpt>
      <trkpt lat="45.80611" lon="5.03286">
        <ele>181.3</ele>
        <time>2011-04-24T08:02:41Z</time>
      </trkpt>
      <trkpt lat="45.80613" lon="5.03287">
        <ele>182.1</ele>
        <time>2011-04-24T08:02:42Z</time>
      </trkpt>
      <trkpt lat="45.80615" lon="5.03287">
        <ele>182</ele>
        <time>2011-04-24T08:02:43Z</time>
      </trkpt>
      <trkpt lat="45.80618" lon="5.03289">
        <ele>181.5</ele>
        <time>2011-04-24T08:02:44Z</time>
      </trkpt>
      <trkpt lat="45.8062" lon="5.03291">
        <ele>180.6</ele>
        <time>2011-04-24T08:02:45Z</time>
      </trkpt>
      <trkpt lat="45.80623" lon="5.03294">
        <ele>180.6</ele>
        <time>2011-04-24T08:02:46Z</time>
      </trkpt>
      <trkpt lat="45.80625" lon="5.03297">
        <ele>180.6</ele>
        <time>2011-04-24T08:02:47Z</time>
      </trkpt>
      <trkpt lat="45.80627" lon="5.033">
        <ele>180.6</ele>
        <time>2011-04-24T08:02:48Z</time>
      </trkpt>
      <trkpt lat="45.80631" lon="5.03306">
        <ele>176</ele>
        <time>2011-04-24T08:02:50Z</time>
      </trkpt>
      <trkpt lat="45.80634" lon="5.03309">
        <ele>176.1</ele>
        <time>2011-04-24T08:02:51Z</time>
      </trkpt>
      <trkpt lat="45.80648" lon="5.03322">
        <ele>174.6</ele>
        <time>2011-04-24T08:02:58Z</time>
      </trkpt>
      <trkpt lat="45.80658" lon="5.03327">
        <ele>174.8</ele>
        <time>2011-04-24T08:03:02Z</time>
      </trkpt>
      <trkpt lat="45.80663" lon="5.0333">
        <ele>172.6</ele>
        <time>2011-04-24T08:03:04Z</time>
      </trkpt>
      <trkpt lat="45.80666" lon="5.0333">
        <ele>171.3</ele>
        <time>2011-04-24T08:03:05Z</time>
      </trkpt>
      <trkpt lat="45.80669" lon="5.03327">
        <ele>172</ele>
        <time>2011-04-24T08:03:06Z</time>
      </trkpt>
      <trkpt lat="45.80671" lon="5.03326">
        <ele>172</ele>
        <time>2011-04-24T08:03:07Z</time>
      </trkpt>
      <trkpt lat="45.80673" lon="5.03325">
        <ele>170</ele>
        <time>2011-04-24T08:03:08Z</time>
      </trkpt>
      <trkpt lat="45.80681" lon="5.03322">
        <ele>169.8</ele>
        <time>2011-04-24T08:03:12Z</time>
      </trkpt>
      <trkpt lat="45.80683" lon="5.03323">
        <ele>169.8</ele>
        <time>2011-04-24T08:03:13Z</time>
      </trkpt>
      <trkpt lat="45.80686" lon="5.03322">
        <ele>169.1</ele>
        <time>2011-04-24T08:03:14Z</time>
      </trkpt>
      <trkpt lat="45.80687" lon="5.03322">
        <ele>169.1</ele>
        <time>2011-04-24T08:03:15Z</time>
      </trkpt>
      <trkpt lat="45.80689" lon="5.03324">
        <ele>167.5</ele>
        <time>2011-04-24T08:03:16Z</time>
      </trkpt>
      <trkpt lat="45.80691" lon="5.03325">
        <ele>167.5</ele>
        <time>2011-04-24T08:03:17Z</time>
      </trkpt>
      <trkpt lat="45.80693" lon="5.03327">
        <ele>169.1</ele>
        <time>2011-04-24T08:03:18Z</time>
      </trkpt>
      <trkpt lat="45.80699" lon="5.03336">
        <ele>169</ele>
        <time>2011-04-24T08:03:22Z</time>
      </trkpt>
      <trkpt lat="45.807" lon="5.03339">
        <ele>169</ele>
        <time>2011-04-24T08:03:23Z</time>
      </trkpt>
      <trkpt lat="45.80702" lon="5.03342">
        <ele>169.6</ele>
        <time>2011-04-24T08:03:24Z</time>
      </trkpt>
      <trkpt lat="45.80703" lon="5.03345">
        <ele>169.6</ele>
        <time>2011-04-24T08:03:25Z</time>
      </trkpt>
      <trkpt lat="45.80724" lon="5.03393">
        <ele>174.6</ele>
        <time>2011-04-24T08:03:39Z</time>
      </trkpt>
      <trkpt lat="45.80725" lon="5.03396">
        <ele>175.6</ele>
        <time>2011-04-24T08:03:40Z</time>
      </trkpt>
      <trkpt lat="45.80726" lon="5.03399">
        <ele>175.1</ele>
        <time>2011-04-24T08:03:41Z</time>
      </trkpt>
      <trkpt lat="45.80728" lon="5.03401">
        <ele>175.3</ele>
        <time>2011-04-24T08:03:42Z</time>
      </trkpt>
      <trkpt lat="45.80731" lon="5.03401">
        <ele>175.8</ele>
        <time>2011-04-24T08:03:43Z</time>
      </trkpt>
      <trkpt lat="45.80735" lon="5.03402">
        <ele>176</ele>
        <time>2011-04-24T08:03:44Z</time>
      </trkpt>
      <trkpt lat="45.80738" lon="5.03403">
        <ele>176.3</ele>
        <time>2011-04-24T08:03:45Z</time>
      </trkpt>
      <trkpt lat="45.80741" lon="5.03405">
        <ele>177</ele>
        <time>2011-04-24T08:03:46Z</time>
      </trkpt>
      <trkpt lat="45.80743" lon="5.03407">
        <ele>176.6</ele>
        <time>2011-04-24T08:03:47Z</time>
      </trkpt>
      <trkpt lat="45.80745" lon="5.0341">
        <ele>176.6</ele>
        <time>2011-04-24T08:03:48Z</time>
      </trkpt>
      <trkpt lat="45.80746" lon="5.03413">
        <ele>176.3</ele>
        <time>2011-04-24T08:03:49Z</time>
      </trkpt>
      <trkpt lat="45.80747" lon="5.03421">
        <ele>176.3</ele>
        <time>2011-04-24T08:03:51Z</time>
      </trkpt>
      <trkpt lat="45.80747" lon="5.03425">
        <ele>176.1</ele>
        <time>2011-04-24T08:03:52Z</time>
      </trkpt>
      <trkpt lat="45.80747" lon="5.03428">
        <ele>176.6</ele>
        <time>2011-04-24T08:03:53Z</time>
      </trkpt>
      <trkpt lat="45.80747" lon="5.03431">
        <ele>177.3</ele>
        <time>2011-04-24T08:03:54Z</time>
      </trkpt>
      <trkpt lat="45.80749" lon="5.03433">
        <ele>179.3</ele>
        <time>2011-04-24T08:03:55Z</time>
      </trkpt>
      <trkpt lat="45.80753" lon="5.03435">
        <ele>179.6</ele>
        <time>2011-04-24T08:03:57Z</time>
      </trkpt>
      <trkpt lat="45.80755" lon="5.03436">
        <ele>179.6</ele>
        <time>2011-04-24T08:03:58Z</time>
      </trkpt>
      <trkpt lat="45.80758" lon="5.03438">
        <ele>179.6</ele>
        <time>2011-04-24T08:03:59Z</time>
      </trkpt>
      <trkpt lat="45.80768" lon="5.03446">
        <ele>177</ele>
        <time>2011-04-24T08:04:03Z</time>
      </trkpt>
      <trkpt lat="45.8077" lon="5.03443">
        <ele>177</ele>
        <time>2011-04-24T08:04:04Z</time>
      </trkpt>
      <trkpt lat="45.8077" lon="5.03439">
        <ele>178</ele>
        <time>2011-04-24T08:04:05Z</time>
      </trkpt>
      <trkpt lat="45.80771" lon="5.03435">
        <ele>178</ele>
        <time>2011-04-24T08:04:06Z</time>
      </trkpt>
      <trkpt lat="45.80773" lon="5.03432">
        <ele>178</ele>
        <time>2011-04-24T08:04:07Z</time>
      </trkpt>
      <trkpt lat="45.80776" lon="5.0343">
        <ele>178</ele>
        <time>2011-04-24T08:04:08Z</time>
      </trkpt>
      <trkpt lat="45.80778" lon="5.03429">
        <ele>177.5</ele>
        <time>2011-04-24T08:04:09Z</time>
      </trkpt>
      <trkpt lat="45.80781" lon="5.03429">
        <ele>177.5</ele>
        <time>2011-04-24T08:04:10Z</time>
      </trkpt>
      <trkpt lat="45.80783" lon="5.0343">
        <ele>177.6</ele>
        <time>2011-04-24T08:04:11Z</time>
      </trkpt>
      <trkpt lat="45.80785" lon="5.03433">
        <ele>175.8</ele>
        <time>2011-04-24T08:04:12Z</time>
      </trkpt>
      <trkpt lat="45.80786" lon="5.03436">
        <ele>175.5</ele>
        <time>2011-04-24T08:04:13Z</time>
      </trkpt>
      <trkpt lat="45.80791" lon="5.03447">
        <ele>173.3</ele>
        <time>2011-04-24T08:04:17Z</time>
      </trkpt>
      <trkpt lat="45.80793" lon="5.03449">
        <ele>173.1</ele>
        <time>2011-04-24T08:04:18Z</time>
      </trkpt>
      <trkpt lat="45.80798" lon="5.03452">
        <ele>173.8</ele>
        <time>2011-04-24T08:04:20Z</time>
      </trkpt>
      <trkpt lat="45.80801" lon="5.03452">
        <ele>173.6</ele>
        <time>2011-04-24T08:04:21Z</time>
      </trkpt>
      <trkpt lat="45.80803" lon="5.03451">
        <ele>173.8</ele>
        <time>2011-04-24T08:04:22Z</time>
      </trkpt>
      <trkpt lat="45.80809" lon="5.03449">
        <ele>173.8</ele>
        <time>2011-04-24T08:04:24Z</time>
      </trkpt>
      <trkpt lat="45.80812" lon="5.03451">
        <ele>174.1</ele>
        <time>2011-04-24T08:04:25Z</time>
      </trkpt>
      <trkpt lat="45.80814" lon="5.03453">
        <ele>174.3</ele>
        <time>2011-04-24T08:04:26Z</time>
      </trkpt>
      <trkpt lat="45.80816" lon="5.03456">
        <ele>174.3</ele>
        <time>2011-04-24T08:04:27Z</time>
      </trkpt>
      <trkpt lat="45.8082" lon="5.03461">
        <ele>175</ele>
        <time>2011-04-24T08:04:29Z</time>
      </trkpt>
      <trkpt lat="45.80822" lon="5.03462">
        <ele>175.3</ele>
        <time>2011-04-24T08:04:30Z</time>
      </trkpt>
      <trkpt lat="45.80834" lon="5.03465">
        <ele>176.8</ele>
        <time>2011-04-24T08:04:34Z</time>
      </trkpt>
      <trkpt lat="45.80837" lon="5.03466">
        <ele>179.1</ele>
        <time>2011-04-24T08:04:35Z</time>
      </trkpt>
      <trkpt lat="45.80838" lon="5.03468">
        <ele>180.3</ele>
        <time>2011-04-24T08:04:36Z</time>
      </trkpt>
      <trkpt lat="45.80843" lon="5.03471">
        <ele>182.3</ele>
        <time>2011-04-24T08:04:38Z</time>
      </trkpt>
      <trkpt lat="45.80845" lon="5.03472">
        <ele>182.3</ele>
        <time>2011-04-24T08:04:39Z</time>
      </trkpt>
      <trkpt lat="45.80848" lon="5.03471">
        <ele>182</ele>
        <time>2011-04-24T08:04:40Z</time>
      </trkpt>
      <trkpt lat="45.80853" lon="5.03467">
        <ele>182.1</ele>
        <time>2011-04-24T08:04:42Z</time>
      </trkpt>
      <trkpt lat="45.80856" lon="5.03468">
        <ele>182.1</ele>
        <time>2011-04-24T08:04:43Z</time>
      </trkpt>
      <trkpt lat="45.80858" lon="5.03469">
        <ele>182</ele>
        <time>2011-04-24T08:04:44Z</time>
      </trkpt>
      <trkpt lat="45.8086" lon="5.03472">
        <ele>181</ele>
        <time>2011-04-24T08:04:45Z</time>
      </trkpt>
      <trkpt lat="45.80879" lon="5.03489">
        <ele>176.8</ele>
        <time>2011-04-24T08:04:54Z</time>
      </trkpt>
      <trkpt lat="45.80888" lon="5.03495">
        <ele>175</ele>
        <time>2011-04-24T08:04:59Z</time>
      </trkpt>
      <trkpt lat="45.80891" lon="5.03493">
        <ele>175.3</ele>
        <time>2011-04-24T08:05:00Z</time>
      </trkpt>
      <trkpt lat="45.80893" lon="5.03491">
        <ele>176</ele>
        <time>2011-04-24T08:05:01Z</time>
      </trkpt>
      <trkpt lat="45.80894" lon="5.03488">
        <ele>175.8</ele>
        <time>2011-04-24T08:05:02Z</time>
      </trkpt>
      <trkpt lat="45.80896" lon="5.03486">
        <ele>176.5</ele>
        <time>2011-04-24T08:05:03Z</time>
      </trkpt>
      <trkpt lat="45.80896" lon="5.03483">
        <ele>175.8</ele>
        <time>2011-04-24T08:05:04Z</time>
      </trkpt>
      <trkpt lat="45.80896" lon="5.0348">
        <ele>175.1</ele>
        <time>2011-04-24T08:05:05Z</time>
      </trkpt>
      <trkpt lat="45.80898" lon="5.03468">
        <ele>176.6</ele>
        <time>2011-04-24T08:05:08Z</time>
      </trkpt>
      <trkpt lat="45.80899" lon="5.03465">
        <ele>176.1</ele>
        <time>2011-04-24T08:05:09Z</time>
      </trkpt>
      <trkpt lat="45.80902" lon="5.03432">
        <ele>176.1</ele>
        <time>2011-04-24T08:05:18Z</time>
      </trkpt>
      <trkpt lat="45.80905" lon="5.03413">
        <ele>175.8</ele>
        <time>2011-04-24T08:05:23Z</time>
      </trkpt>
      <trkpt lat="45.80906" lon="5.03409">
        <ele>175.8</ele>
        <time>2011-04-24T08:05:24Z</time>
      </trkpt>
      <trkpt lat="45.80906" lon="5.03405">
        <ele>176.3</ele>
        <time>2011-04-24T08:05:25Z</time>
      </trkpt>
      <trkpt lat="45.80906" lon="5.03402">
        <ele>176.3</ele>
        <time>2011-04-24T08:05:26Z</time>
      </trkpt>
      <trkpt lat="45.80907" lon="5.03394">
        <ele>176.6</ele>
        <time>2011-04-24T08:05:28Z</time>
      </trkpt>
      <trkpt lat="45.80907" lon="5.0339">
        <ele>176.8</ele>
        <time>2011-04-24T08:05:29Z</time>
      </trkpt>
      <trkpt lat="45.8092" lon="5.03286">
        <ele>176.5</ele>
        <time>2011-04-24T08:05:56Z</time>
      </trkpt>
      <trkpt lat="45.80929" lon="5.03234">
        <ele>175.3</ele>
        <time>2011-04-24T08:06:10Z</time>
      </trkpt>
      <trkpt lat="45.80929" lon="5.0323">
        <ele>175.5</ele>
        <time>2011-04-24T08:06:11Z</time>
      </trkpt>
      <trkpt lat="45.80925" lon="5.03212">
        <ele>176.8</ele>
        <time>2011-04-24T08:06:15Z</time>
      </trkpt>
      <trkpt lat="45.80925" lon="5.03204">
        <ele>176.1</ele>
        <time>2011-04-24T08:06:17Z</time>
      </trkpt>
      <trkpt lat="45.80926" lon="5.032">
        <ele>176.6</ele>
        <time>2011-04-24T08:06:18Z</time>
      </trkpt>
      <trkpt lat="45.80926" lon="5.03196">
        <ele>177.1</ele>
        <time>2011-04-24T08:06:19Z</time>
      </trkpt>
      <trkpt lat="45.8093" lon="5.03163">
        <ele>178.5</ele>
        <time>2011-04-24T08:06:27Z</time>
      </trkpt>
      <trkpt lat="45.80931" lon="5.03159">
        <ele>178.3</ele>
        <time>2011-04-24T08:06:28Z</time>
      </trkpt>
      <trkpt lat="45.80931" lon="5.03155">
        <ele>178.3</ele>
        <time>2011-04-24T08:06:29Z</time>
      </trkpt>
      <trkpt lat="45.80935" lon="5.03108">
        <ele>179.3</ele>
        <time>2011-04-24T08:06:41Z</time>
      </trkpt>
      <trkpt lat="45.8094" lon="5.03075">
        <ele>178.6</ele>
        <time>2011-04-24T08:06:50Z</time>
      </trkpt>
      <trkpt lat="45.80945" lon="5.03045">
        <ele>175.1</ele>
        <time>2011-04-24T08:06:58Z</time>
      </trkpt>
      <trkpt lat="45.80946" lon="5.03041">
        <ele>175.6</ele>
        <time>2011-04-24T08:06:59Z</time>
      </trkpt>
      <trkpt lat="45.80959" lon="5.02982">
        <ele>175.5</ele>
        <time>2011-04-24T08:07:14Z</time>
      </trkpt>
      <trkpt lat="45.8096" lon="5.02978">
        <ele>175.1</ele>
        <time>2011-04-24T08:07:15Z</time>
      </trkpt>
      <trkpt lat="45.80968" lon="5.02951">
        <ele>174.5</ele>
        <time>2011-04-24T08:07:23Z</time>
      </trkpt>
      <trkpt lat="45.80982" lon="5.029">
        <ele>178.8</ele>
        <time>2011-04-24T08:07:37Z</time>
      </trkpt>
      <trkpt lat="45.80982" lon="5.02896">
        <ele>179.1</ele>
        <time>2011-04-24T08:07:38Z</time>
      </trkpt>
      <trkpt lat="45.80986" lon="5.02877">
        <ele>180.8</ele>
        <time>2011-04-24T08:07:43Z</time>
      </trkpt>
      <trkpt lat="45.81004" lon="5.02788">
        <ele>181.1</ele>
        <time>2011-04-24T08:08:07Z</time>
      </trkpt>
      <trkpt lat="45.81005" lon="5.02777">
        <ele>181.8</ele>
        <time>2011-04-24T08:08:10Z</time>
      </trkpt>
      <trkpt lat="45.8101" lon="5.02692">
        <ele>178.1</ele>
        <time>2011-04-24T08:08:32Z</time>
      </trkpt>
      <trkpt lat="45.8101" lon="5.02688">
        <ele>178.1</ele>
        <time>2011-04-24T08:08:33Z</time>
      </trkpt>
      <trkpt lat="45.81011" lon="5.02673">
        <ele>178.5</ele>
        <time>2011-04-24T08:08:37Z</time>
      </trkpt>
      <trkpt lat="45.81014" lon="5.02662">
        <ele>178.8</ele>
        <time>2011-04-24T08:08:40Z</time>
      </trkpt>
      <trkpt lat="45.81014" lon="5.02659">
        <ele>178.8</ele>
        <time>2011-04-24T08:08:41Z</time>
      </trkpt>
      <trkpt lat="45.81015" lon="5.02629">
        <ele>179.8</ele>
        <time>2011-04-24T08:08:49Z</time>
      </trkpt>
      <trkpt lat="45.81014" lon="5.0256">
        <ele>178.6</ele>
        <time>2011-04-24T08:09:07Z</time>
      </trkpt>
      <trkpt lat="45.81014" lon="5.02556">
        <ele>178.6</ele>
        <time>2011-04-24T08:09:08Z</time>
      </trkpt>
      <trkpt lat="45.8102" lon="5.0248">
        <ele>178.1</ele>
        <time>2011-04-24T08:09:28Z</time>
      </trkpt>
      <trkpt lat="45.81021" lon="5.02425">
        <ele>179.3</ele>
        <time>2011-04-24T08:09:42Z</time>
      </trkpt>
      <trkpt lat="45.81022" lon="5.02422">
        <ele>179.6</ele>
        <time>2011-04-24T08:09:43Z</time>
      </trkpt>
      <trkpt lat="45.81023" lon="5.02414">
        <ele>180</ele>
        <time>2011-04-24T08:09:45Z</time>
      </trkpt>
      <trkpt lat="45.81023" lon="5.02397">
        <ele>181.6</ele>
        <time>2011-04-24T08:09:49Z</time>
      </trkpt>
      <trkpt lat="45.81024" lon="5.02383">
        <ele>184</ele>
        <time>2011-04-24T08:09:53Z</time>
      </trkpt>
      <trkpt lat="45.81025" lon="5.02356">
        <ele>186</ele>
        <time>2011-04-24T08:10:00Z</time>
      </trkpt>
      <trkpt lat="45.81024" lon="5.02334">
        <ele>184</ele>
        <time>2011-04-24T08:10:06Z</time>
      </trkpt>
      <trkpt lat="45.81023" lon="5.02242">
        <ele>179.6</ele>
        <time>2011-04-24T08:10:30Z</time>
      </trkpt>
      <trkpt lat="45.81024" lon="5.02121">
        <ele>181.5</ele>
        <time>2011-04-24T08:11:01Z</time>
      </trkpt>
      <trkpt lat="45.81024" lon="5.02117">
        <ele>181.6</ele>
        <time>2011-04-24T08:11:02Z</time>
      </trkpt>
      <trkpt lat="45.81023" lon="5.02015">
        <ele>182.3</ele>
        <time>2011-04-24T08:11:27Z</time>
      </trkpt>
      <trkpt lat="45.81024" lon="5.01921">
        <ele>188.5</ele>
        <time>2011-04-24T08:11:51Z</time>
      </trkpt>
      <trkpt lat="45.81025" lon="5.01917">
        <ele>188.6</ele>
        <time>2011-04-24T08:11:52Z</time>
      </trkpt>
      <trkpt lat="45.81025" lon="5.01914">
        <ele>188.8</ele>
        <time>2011-04-24T08:11:53Z</time>
      </trkpt>
      <trkpt lat="45.81026" lon="5.01906">
        <ele>189.3</ele>
        <time>2011-04-24T08:11:55Z</time>
      </trkpt>
      <trkpt lat="45.81027" lon="5.01853">
        <ele>180.1</ele>
        <time>2011-04-24T08:12:08Z</time>
      </trkpt>
      <trkpt lat="45.81028" lon="5.01849">
        <ele>180.1</ele>
        <time>2011-04-24T08:12:09Z</time>
      </trkpt>
      <trkpt lat="45.81029" lon="5.01845">
        <ele>181</ele>
        <time>2011-04-24T08:12:10Z</time>
      </trkpt>
      <trkpt lat="45.81029" lon="5.01836">
        <ele>179.8</ele>
        <time>2011-04-24T08:12:12Z</time>
      </trkpt>
      <trkpt lat="45.81029" lon="5.01827">
        <ele>179</ele>
        <time>2011-04-24T08:12:14Z</time>
      </trkpt>
      <trkpt lat="45.8103" lon="5.018">
        <ele>178.8</ele>
        <time>2011-04-24T08:12:20Z</time>
      </trkpt>
      <trkpt lat="45.81034" lon="5.01675">
        <ele>180</ele>
        <time>2011-04-24T08:12:52Z</time>
      </trkpt>
      <trkpt lat="45.81036" lon="5.0163">
        <ele>179.1</ele>
        <time>2011-04-24T08:13:04Z</time>
      </trkpt>
      <trkpt lat="45.81042" lon="5.01574">
        <ele>177.6</ele>
        <time>2011-04-24T08:13:19Z</time>
      </trkpt>
      <trkpt lat="45.81043" lon="5.0157">
        <ele>177.6</ele>
        <time>2011-04-24T08:13:20Z</time>
      </trkpt>
      <trkpt lat="45.81051" lon="5.01516">
        <ele>178.8</ele>
        <time>2011-04-24T08:13:34Z</time>
      </trkpt>
      <trkpt lat="45.81053" lon="5.01504">
        <ele>179.1</ele>
        <time>2011-04-24T08:13:37Z</time>
      </trkpt>
      <trkpt lat="45.81057" lon="5.01484">
        <ele>179.6</ele>
        <time>2011-04-24T08:13:42Z</time>
      </trkpt>
      <trkpt lat="45.81061" lon="5.01457">
        <ele>180</ele>
        <time>2011-04-24T08:13:49Z</time>
      </trkpt>
      <trkpt lat="45.81067" lon="5.01405">
        <ele>180.1</ele>
        <time>2011-04-24T08:14:02Z</time>
      </trkpt>
      <trkpt lat="45.81067" lon="5.01401">
        <ele>180.1</ele>
        <time>2011-04-24T08:14:03Z</time>
      </trkpt>
      <trkpt lat="45.81066" lon="5.01389">
        <ele>180.3</ele>
        <time>2011-04-24T08:14:06Z</time>
      </trkpt>
      <trkpt lat="45.81067" lon="5.01384">
        <ele>180.3</ele>
        <time>2011-04-24T08:14:07Z</time>
      </trkpt>
      <trkpt lat="45.81069" lon="5.01373">
        <ele>180</ele>
        <time>2011-04-24T08:14:10Z</time>
      </trkpt>
      <trkpt lat="45.8107" lon="5.01369">
        <ele>180</ele>
        <time>2011-04-24T08:14:11Z</time>
      </trkpt>
      <trkpt lat="45.81071" lon="5.01366">
        <ele>180.3</ele>
        <time>2011-04-24T08:14:12Z</time>
      </trkpt>
      <trkpt lat="45.81073" lon="5.0135">
        <ele>179.8</ele>
        <time>2011-04-24T08:14:16Z</time>
      </trkpt>
      <trkpt lat="45.81073" lon="5.01346">
        <ele>179.8</ele>
        <time>2011-04-24T08:14:17Z</time>
      </trkpt>
      <trkpt lat="45.81073" lon="5.01334">
        <ele>179.8</ele>
        <time>2011-04-24T08:14:20Z</time>
      </trkpt>
      <trkpt lat="45.81073" lon="5.01329">
        <ele>179.8</ele>
        <time>2011-04-24T08:14:21Z</time>
      </trkpt>
      <trkpt lat="45.81071" lon="5.0132">
        <ele>180</ele>
        <time>2011-04-24T08:14:23Z</time>
      </trkpt>
      <trkpt lat="45.81068" lon="5.01308">
        <ele>180.1</ele>
        <time>2011-04-24T08:14:26Z</time>
      </trkpt>
      <trkpt lat="45.81067" lon="5.01305">
        <ele>180.1</ele>
        <time>2011-04-24T08:14:27Z</time>
      </trkpt>
      <trkpt lat="45.81065" lon="5.01301">
        <ele>180</ele>
        <time>2011-04-24T08:14:28Z</time>
      </trkpt>
      <trkpt lat="45.81064" lon="5.01297">
        <ele>180</ele>
        <time>2011-04-24T08:14:29Z</time>
      </trkpt>
      <trkpt lat="45.81064" lon="5.01293">
        <ele>179.6</ele>
        <time>2011-04-24T08:14:30Z</time>
      </trkpt>
      <trkpt lat="45.81064" lon="5.01289">
        <ele>179.6</ele>
        <time>2011-04-24T08:14:31Z</time>
      </trkpt>
      <trkpt lat="45.81065" lon="5.01285">
        <ele>179.1</ele>
        <time>2011-04-24T08:14:32Z</time>
      </trkpt>
      <trkpt lat="45.81066" lon="5.01282">
        <ele>179.1</ele>
        <time>2011-04-24T08:14:33Z</time>
      </trkpt>
      <trkpt lat="45.81068" lon="5.01278">
        <ele>177.3</ele>
        <time>2011-04-24T08:14:34Z</time>
      </trkpt>
      <trkpt lat="45.81071" lon="5.01275">
        <ele>177.3</ele>
        <time>2011-04-24T08:14:35Z</time>
      </trkpt>
      <trkpt lat="45.81073" lon="5.01273">
        <ele>177.1</ele>
        <time>2011-04-24T08:14:36Z</time>
      </trkpt>
      <trkpt lat="45.81076" lon="5.01272">
        <ele>176.8</ele>
        <time>2011-04-24T08:14:37Z</time>
      </trkpt>
      <trkpt lat="45.81081" lon="5.0127">
        <ele>176</ele>
        <time>2011-04-24T08:14:39Z</time>
      </trkpt>
      <trkpt lat="45.81083" lon="5.01268">
        <ele>176</ele>
        <time>2011-04-24T08:14:40Z</time>
      </trkpt>
      <trkpt lat="45.81085" lon="5.01265">
        <ele>175.3</ele>
        <time>2011-04-24T08:14:41Z</time>
      </trkpt>
      <trkpt lat="45.81087" lon="5.01263">
        <ele>175.5</ele>
        <time>2011-04-24T08:14:42Z</time>
      </trkpt>
      <trkpt lat="45.81088" lon="5.01261">
        <ele>174.3</ele>
        <time>2011-04-24T08:14:43Z</time>
      </trkpt>
      <trkpt lat="45.8109" lon="5.01254">
        <ele>173.3</ele>
        <time>2011-04-24T08:14:45Z</time>
      </trkpt>
      <trkpt lat="45.8109" lon="5.01251">
        <ele>173.1</ele>
        <time>2011-04-24T08:14:46Z</time>
      </trkpt>
      <trkpt lat="45.81092" lon="5.01237">
        <ele>172.6</ele>
        <time>2011-04-24T08:14:50Z</time>
      </trkpt>
      <trkpt lat="45.81092" lon="5.01225">
        <ele>172.1</ele>
        <time>2011-04-24T08:14:53Z</time>
      </trkpt>
      <trkpt lat="45.81091" lon="5.01199">
        <ele>172.6</ele>
        <time>2011-04-24T08:15:00Z</time>
      </trkpt>
      <trkpt lat="45.81091" lon="5.01195">
        <ele>172.3</ele>
        <time>2011-04-24T08:15:01Z</time>
      </trkpt>
      <trkpt lat="45.8109" lon="5.0119">
        <ele>171.8</ele>
        <time>2011-04-24T08:15:02Z</time>
      </trkpt>
      <trkpt lat="45.81091" lon="5.01185">
        <ele>171.1</ele>
        <time>2011-04-24T08:15:03Z</time>
      </trkpt>
      <trkpt lat="45.81093" lon="5.01169">
        <ele>169.8</ele>
        <time>2011-04-24T08:15:07Z</time>
      </trkpt>
      <trkpt lat="45.81093" lon="5.01166">
        <ele>169.8</ele>
        <time>2011-04-24T08:15:08Z</time>
      </trkpt>
      <trkpt lat="45.81092" lon="5.01139">
        <ele>168.5</ele>
        <time>2011-04-24T08:15:15Z</time>
      </trkpt>
      <trkpt lat="45.81093" lon="5.01135">
        <ele>168.5</ele>
        <time>2011-04-24T08:15:16Z</time>
      </trkpt>
      <trkpt lat="45.81094" lon="5.01131">
        <ele>167.1</ele>
        <time>2011-04-24T08:15:17Z</time>
      </trkpt>
      <trkpt lat="45.81095" lon="5.01128">
        <ele>167.1</ele>
        <time>2011-04-24T08:15:18Z</time>
      </trkpt>
      <trkpt lat="45.811" lon="5.01119">
        <ele>165.8</ele>
        <time>2011-04-24T08:15:21Z</time>
      </trkpt>
      <trkpt lat="45.81102" lon="5.01116">
        <ele>165.8</ele>
        <time>2011-04-24T08:15:22Z</time>
      </trkpt>
      <trkpt lat="45.81117" lon="5.01097">
        <ele>163.5</ele>
        <time>2011-04-24T08:15:29Z</time>
      </trkpt>
      <trkpt lat="45.81119" lon="5.01094">
        <ele>163.5</ele>
        <time>2011-04-24T08:15:30Z</time>
      </trkpt>
      <trkpt lat="45.81121" lon="5.01091">
        <ele>163.8</ele>
        <time>2011-04-24T08:15:31Z</time>
      </trkpt>
      <trkpt lat="45.81123" lon="5.01083">
        <ele>165.8</ele>
        <time>2011-04-24T08:15:33Z</time>
      </trkpt>
      <trkpt lat="45.81124" lon="5.01078">
        <ele>166.6</ele>
        <time>2011-04-24T08:15:34Z</time>
      </trkpt>
      <trkpt lat="45.81124" lon="5.01073">
        <ele>168.8</ele>
        <time>2011-04-24T08:15:35Z</time>
      </trkpt>
      <trkpt lat="45.81123" lon="5.01069">
        <ele>169.1</ele>
        <time>2011-04-24T08:15:36Z</time>
      </trkpt>
      <trkpt lat="45.81123" lon="5.01065">
        <ele>170.3</ele>
        <time>2011-04-24T08:15:37Z</time>
      </trkpt>
      <trkpt lat="45.81123" lon="5.01055">
        <ele>171.3</ele>
        <time>2011-04-24T08:15:40Z</time>
      </trkpt>
      <trkpt lat="45.81122" lon="5.01032">
        <ele>173.3</ele>
        <time>2011-04-24T08:15:46Z</time>
      </trkpt>
      <trkpt lat="45.81123" lon="5.01029">
        <ele>173.1</ele>
        <time>2011-04-24T08:15:47Z</time>
      </trkpt>
      <trkpt lat="45.81128" lon="5.01009">
        <ele>171.1</ele>
        <time>2011-04-24T08:15:53Z</time>
      </trkpt>
      <trkpt lat="45.81128" lon="5.01006">
        <ele>170.6</ele>
        <time>2011-04-24T08:15:54Z</time>
      </trkpt>
      <trkpt lat="45.81129" lon="5.00998">
        <ele>168.8</ele>
        <time>2011-04-24T08:15:57Z</time>
      </trkpt>
      <trkpt lat="45.81129" lon="5.0098">
        <ele>169.1</ele>
        <time>2011-04-24T08:16:02Z</time>
      </trkpt>
      <trkpt lat="45.81129" lon="5.00971">
        <ele>172</ele>
        <time>2011-04-24T08:16:04Z</time>
      </trkpt>
      <trkpt lat="45.8113" lon="5.00966">
        <ele>172</ele>
        <time>2011-04-24T08:16:05Z</time>
      </trkpt>
      <trkpt lat="45.81131" lon="5.00962">
        <ele>173.3</ele>
        <time>2011-04-24T08:16:06Z</time>
      </trkpt>
      <trkpt lat="45.81135" lon="5.00956">
        <ele>173</ele>
        <time>2011-04-24T08:16:08Z</time>
      </trkpt>
      <trkpt lat="45.81137" lon="5.00953">
        <ele>173</ele>
        <time>2011-04-24T08:16:09Z</time>
      </trkpt>
      <trkpt lat="45.81143" lon="5.00944">
        <ele>175.1</ele>
        <time>2011-04-24T08:16:12Z</time>
      </trkpt>
      <trkpt lat="45.81146" lon="5.00938">
        <ele>174.3</ele>
        <time>2011-04-24T08:16:14Z</time>
      </trkpt>
      <trkpt lat="45.81147" lon="5.00932">
        <ele>172.8</ele>
        <time>2011-04-24T08:16:16Z</time>
      </trkpt>
      <trkpt lat="45.81149" lon="5.00926">
        <ele>171.6</ele>
        <time>2011-04-24T08:16:18Z</time>
      </trkpt>
      <trkpt lat="45.81149" lon="5.00922">
        <ele>171.6</ele>
        <time>2011-04-24T08:16:19Z</time>
      </trkpt>
      <trkpt lat="45.81151" lon="5.00919">
        <ele>169.5</ele>
        <time>2011-04-24T08:16:20Z</time>
      </trkpt>
      <trkpt lat="45.81154" lon="5.00911">
        <ele>170.3</ele>
        <time>2011-04-24T08:16:22Z</time>
      </trkpt>
      <trkpt lat="45.81157" lon="5.00907">
        <ele>170.3</ele>
        <time>2011-04-24T08:16:23Z</time>
      </trkpt>
      <trkpt lat="45.81166" lon="5.00883">
        <ele>172.3</ele>
        <time>2011-04-24T08:16:30Z</time>
      </trkpt>
      <trkpt lat="45.81169" lon="5.0088">
        <ele>172.1</ele>
        <time>2011-04-24T08:16:31Z</time>
      </trkpt>
      <trkpt lat="45.81171" lon="5.00877">
        <ele>172.6</ele>
        <time>2011-04-24T08:16:32Z</time>
      </trkpt>
      <trkpt lat="45.81176" lon="5.00871">
        <ele>172.8</ele>
        <time>2011-04-24T08:16:34Z</time>
      </trkpt>
      <trkpt lat="45.81178" lon="5.00868">
        <ele>173.8</ele>
        <time>2011-04-24T08:16:35Z</time>
      </trkpt>
      <trkpt lat="45.8118" lon="5.00866">
        <ele>173.8</ele>
        <time>2011-04-24T08:16:36Z</time>
      </trkpt>
      <trkpt lat="45.81184" lon="5.0086">
        <ele>174.1</ele>
        <time>2011-04-24T08:16:38Z</time>
      </trkpt>
      <trkpt lat="45.81186" lon="5.00853">
        <ele>174.6</ele>
        <time>2011-04-24T08:16:40Z</time>
      </trkpt>
      <trkpt lat="45.81187" lon="5.00849">
        <ele>174.6</ele>
        <time>2011-04-24T08:16:41Z</time>
      </trkpt>
      <trkpt lat="45.8119" lon="5.00841">
        <ele>175.6</ele>
        <time>2011-04-24T08:16:43Z</time>
      </trkpt>
      <trkpt lat="45.81196" lon="5.00814">
        <ele>176.6</ele>
        <time>2011-04-24T08:16:49Z</time>
      </trkpt>
      <trkpt lat="45.81215" lon="5.00736">
        <ele>177.8</ele>
        <time>2011-04-24T08:17:09Z</time>
      </trkpt>
      <trkpt lat="45.81217" lon="5.00732">
        <ele>177.8</ele>
        <time>2011-04-24T08:17:10Z</time>
      </trkpt>
      <trkpt lat="45.8122" lon="5.00721">
        <ele>177.6</ele>
        <time>2011-04-24T08:17:13Z</time>
      </trkpt>
      <trkpt lat="45.81252" lon="5.00622">
        <ele>175.1</ele>
        <time>2011-04-24T08:17:41Z</time>
      </trkpt>
      <trkpt lat="45.81254" lon="5.00619">
        <ele>175.3</ele>
        <time>2011-04-24T08:17:42Z</time>
      </trkpt>
      <trkpt lat="45.81266" lon="5.00593">
        <ele>176.5</ele>
        <time>2011-04-24T08:17:50Z</time>
      </trkpt>
      <trkpt lat="45.81277" lon="5.00566">
        <ele>176.8</ele>
        <time>2011-04-24T08:17:58Z</time>
      </trkpt>
      <trkpt lat="45.81292" lon="5.00525">
        <ele>176.3</ele>
        <time>2011-04-24T08:18:10Z</time>
      </trkpt>
      <trkpt lat="45.81309" lon="5.00476">
        <ele>176.3</ele>
        <time>2011-04-24T08:18:24Z</time>
      </trkpt>
      <trkpt lat="45.81311" lon="5.00473">
        <ele>176.3</ele>
        <time>2011-04-24T08:18:25Z</time>
      </trkpt>
      <trkpt lat="45.81317" lon="5.00457">
        <ele>175.5</ele>
        <time>2011-04-24T08:18:30Z</time>
      </trkpt>
      <trkpt lat="45.81322" lon="5.00443">
        <ele>175.6</ele>
        <time>2011-04-24T08:18:34Z</time>
      </trkpt>
      <trkpt lat="45.81347" lon="5.00358">
        <ele>176</ele>
        <time>2011-04-24T08:18:58Z</time>
      </trkpt>
      <trkpt lat="45.81348" lon="5.00355">
        <ele>176</ele>
        <time>2011-04-24T08:18:59Z</time>
      </trkpt>
      <trkpt lat="45.81355" lon="5.00338">
        <ele>174.6</ele>
        <time>2011-04-24T08:19:04Z</time>
      </trkpt>
      <trkpt lat="45.81365" lon="5.00315">
        <ele>174.6</ele>
        <time>2011-04-24T08:19:11Z</time>
      </trkpt>
      <trkpt lat="45.81367" lon="5.00312">
        <ele>174.6</ele>
        <time>2011-04-24T08:19:12Z</time>
      </trkpt>
      <trkpt lat="45.81402" lon="5.00248">
        <ele>175.5</ele>
        <time>2011-04-24T08:19:33Z</time>
      </trkpt>
      <trkpt lat="45.81403" lon="5.00244">
        <ele>176.6</ele>
        <time>2011-04-24T08:19:34Z</time>
      </trkpt>
      <trkpt lat="45.81404" lon="5.0024">
        <ele>177.1</ele>
        <time>2011-04-24T08:19:35Z</time>
      </trkpt>
      <trkpt lat="45.81406" lon="5.00233">
        <ele>177.6</ele>
        <time>2011-04-24T08:19:37Z</time>
      </trkpt>
      <trkpt lat="45.81407" lon="5.0023">
        <ele>177.6</ele>
        <time>2011-04-24T08:19:38Z</time>
      </trkpt>
      <trkpt lat="45.81424" lon="5.00172">
        <ele>180.3</ele>
        <time>2011-04-24T08:19:54Z</time>
      </trkpt>
      <trkpt lat="45.81431" lon="5.00151">
        <ele>184.8</ele>
        <time>2011-04-24T08:20:00Z</time>
      </trkpt>
      <trkpt lat="45.81433" lon="5.00147">
        <ele>185.3</ele>
        <time>2011-04-24T08:20:01Z</time>
      </trkpt>
      <trkpt lat="45.8148" lon="5.00055">
        <ele>172.5</ele>
        <time>2011-04-24T08:20:28Z</time>
      </trkpt>
      <trkpt lat="45.81481" lon="5.00052">
        <ele>172.5</ele>
        <time>2011-04-24T08:20:29Z</time>
      </trkpt>
      <trkpt lat="45.81492" lon="5.00025">
        <ele>171.8</ele>
        <time>2011-04-24T08:20:37Z</time>
      </trkpt>
      <trkpt lat="45.81519" lon="4.99961">
        <ele>174.3</ele>
        <time>2011-04-24T08:20:56Z</time>
      </trkpt>
      <trkpt lat="45.8152" lon="4.99959">
        <ele>174.1</ele>
        <time>2011-04-24T08:20:57Z</time>
      </trkpt>
      <trkpt lat="45.81523" lon="4.99952">
        <ele>175.1</ele>
        <time>2011-04-24T08:20:59Z</time>
      </trkpt>
      <trkpt lat="45.81534" lon="4.99921">
        <ele>174.3</ele>
        <time>2011-04-24T08:21:08Z</time>
      </trkpt>
      <trkpt lat="45.81536" lon="4.99917">
        <ele>174.3</ele>
        <time>2011-04-24T08:21:09Z</time>
      </trkpt>
      <trkpt lat="45.81539" lon="4.99906">
        <ele>174.8</ele>
        <time>2011-04-24T08:21:12Z</time>
      </trkpt>
      <trkpt lat="45.81541" lon="4.99891">
        <ele>175.5</ele>
        <time>2011-04-24T08:21:16Z</time>
      </trkpt>
      <trkpt lat="45.81543" lon="4.99887">
        <ele>175.3</ele>
        <time>2011-04-24T08:21:17Z</time>
      </trkpt>
      <trkpt lat="45.81547" lon="4.9987">
        <ele>176.3</ele>
        <time>2011-04-24T08:21:22Z</time>
      </trkpt>
      <trkpt lat="45.81552" lon="4.99852">
        <ele>175.6</ele>
        <time>2011-04-24T08:21:27Z</time>
      </trkpt>
      <trkpt lat="45.81565" lon="4.99806">
        <ele>176.3</ele>
        <time>2011-04-24T08:21:40Z</time>
      </trkpt>
      <trkpt lat="45.81566" lon="4.99802">
        <ele>176.6</ele>
        <time>2011-04-24T08:21:41Z</time>
      </trkpt>
      <trkpt lat="45.81576" lon="4.99775">
        <ele>176.8</ele>
        <time>2011-04-24T08:21:49Z</time>
      </trkpt>
      <trkpt lat="45.81577" lon="4.99767">
        <ele>177.3</ele>
        <time>2011-04-24T08:21:51Z</time>
      </trkpt>
      <trkpt lat="45.81579" lon="4.99763">
        <ele>177.8</ele>
        <time>2011-04-24T08:21:52Z</time>
      </trkpt>
      <trkpt lat="45.8158" lon="4.9976">
        <ele>177.8</ele>
        <time>2011-04-24T08:21:53Z</time>
      </trkpt>
      <trkpt lat="45.81585" lon="4.99745">
        <ele>177.5</ele>
        <time>2011-04-24T08:21:57Z</time>
      </trkpt>
      <trkpt lat="45.816" lon="4.99715">
        <ele>176.6</ele>
        <time>2011-04-24T08:22:06Z</time>
      </trkpt>
      <trkpt lat="45.81599" lon="4.99711">
        <ele>176.6</ele>
        <time>2011-04-24T08:22:07Z</time>
      </trkpt>
      <trkpt lat="45.816" lon="4.99708">
        <ele>176.8</ele>
        <time>2011-04-24T08:22:08Z</time>
      </trkpt>
      <trkpt lat="45.81603" lon="4.99701">
        <ele>176.5</ele>
        <time>2011-04-24T08:22:10Z</time>
      </trkpt>
      <trkpt lat="45.81604" lon="4.99697">
        <ele>176.5</ele>
        <time>2011-04-24T08:22:11Z</time>
      </trkpt>
      <trkpt lat="45.81605" lon="4.99693">
        <ele>176.5</ele>
        <time>2011-04-24T08:22:12Z</time>
      </trkpt>
      <trkpt lat="45.81606" lon="4.9969">
        <ele>176.3</ele>
        <time>2011-04-24T08:22:13Z</time>
      </trkpt>
      <trkpt lat="45.81616" lon="4.99658">
        <ele>174.5</ele>
        <time>2011-04-24T08:22:22Z</time>
      </trkpt>
      <trkpt lat="45.81617" lon="4.99655">
        <ele>174.5</ele>
        <time>2011-04-24T08:22:23Z</time>
      </trkpt>
      <trkpt lat="45.81618" lon="4.9965">
        <ele>174.8</ele>
        <time>2011-04-24T08:22:24Z</time>
      </trkpt>
      <trkpt lat="45.81618" lon="4.99646">
        <ele>174.8</ele>
        <time>2011-04-24T08:22:25Z</time>
      </trkpt>
      <trkpt lat="45.81618" lon="4.99642">
        <ele>175.3</ele>
        <time>2011-04-24T08:22:26Z</time>
      </trkpt>
      <trkpt lat="45.81624" lon="4.99589">
        <ele>177.8</ele>
        <time>2011-04-24T08:22:39Z</time>
      </trkpt>
      <trkpt lat="45.81624" lon="4.99581">
        <ele>178.3</ele>
        <time>2011-04-24T08:22:41Z</time>
      </trkpt>
      <trkpt lat="45.81631" lon="4.99427">
        <ele>179.6</ele>
        <time>2011-04-24T08:23:25Z</time>
      </trkpt>
      <trkpt lat="45.81631" lon="4.99423">
        <ele>179.6</ele>
        <time>2011-04-24T08:23:26Z</time>
      </trkpt>
      <trkpt lat="45.81631" lon="4.99382">
        <ele>178</ele>
        <time>2011-04-24T08:23:36Z</time>
      </trkpt>
      <trkpt lat="45.8163" lon="4.99378">
        <ele>178.3</ele>
        <time>2011-04-24T08:23:37Z</time>
      </trkpt>
      <trkpt lat="45.8163" lon="4.99374">
        <ele>178</ele>
        <time>2011-04-24T08:23:38Z</time>
      </trkpt>
      <trkpt lat="45.8163" lon="4.9937">
        <ele>177.8</ele>
        <time>2011-04-24T08:23:39Z</time>
      </trkpt>
      <trkpt lat="45.81629" lon="4.99357">
        <ele>177.6</ele>
        <time>2011-04-24T08:23:42Z</time>
      </trkpt>
      <trkpt lat="45.81629" lon="4.99353">
        <ele>177.3</ele>
        <time>2011-04-24T08:23:43Z</time>
      </trkpt>
      <trkpt lat="45.81616" lon="4.99287">
        <ele>179.1</ele>
        <time>2011-04-24T08:24:00Z</time>
      </trkpt>
      <trkpt lat="45.81615" lon="4.99283">
        <ele>179.1</ele>
        <time>2011-04-24T08:24:01Z</time>
      </trkpt>
      <trkpt lat="45.81609" lon="4.9925">
        <ele>177.3</ele>
        <time>2011-04-24T08:24:10Z</time>
      </trkpt>
      <trkpt lat="45.816" lon="4.99197">
        <ele>180.8</ele>
        <time>2011-04-24T08:24:24Z</time>
      </trkpt>
      <trkpt lat="45.81598" lon="4.99193">
        <ele>180.8</ele>
        <time>2011-04-24T08:24:25Z</time>
      </trkpt>
      <trkpt lat="45.81584" lon="4.99125">
        <ele>180.3</ele>
        <time>2011-04-24T08:24:43Z</time>
      </trkpt>
      <trkpt lat="45.81584" lon="4.99122">
        <ele>180.1</ele>
        <time>2011-04-24T08:24:44Z</time>
      </trkpt>
      <trkpt lat="45.81575" lon="4.99089">
        <ele>177.5</ele>
        <time>2011-04-24T08:24:53Z</time>
      </trkpt>
      <trkpt lat="45.81572" lon="4.99082">
        <ele>177.8</ele>
        <time>2011-04-24T08:24:55Z</time>
      </trkpt>
      <trkpt lat="45.81535" lon="4.98951">
        <ele>181.1</ele>
        <time>2011-04-24T08:25:31Z</time>
      </trkpt>
      <trkpt lat="45.81529" lon="4.98912">
        <ele>178.6</ele>
        <time>2011-04-24T08:25:42Z</time>
      </trkpt>
      <trkpt lat="45.81528" lon="4.98905">
        <ele>178.6</ele>
        <time>2011-04-24T08:25:44Z</time>
      </trkpt>
      <trkpt lat="45.81528" lon="4.98901">
        <ele>178.6</ele>
        <time>2011-04-24T08:25:45Z</time>
      </trkpt>
      <trkpt lat="45.81527" lon="4.98894">
        <ele>178.6</ele>
        <time>2011-04-24T08:25:47Z</time>
      </trkpt>
      <trkpt lat="45.81524" lon="4.98866">
        <ele>174.6</ele>
        <time>2011-04-24T08:25:54Z</time>
      </trkpt>
      <trkpt lat="45.81516" lon="4.98828">
        <ele>177.8</ele>
        <time>2011-04-24T08:26:04Z</time>
      </trkpt>
      <trkpt lat="45.81508" lon="4.98796">
        <ele>180.3</ele>
        <time>2011-04-24T08:26:12Z</time>
      </trkpt>
      <trkpt lat="45.81508" lon="4.98792">
        <ele>180.3</ele>
        <time>2011-04-24T08:26:13Z</time>
      </trkpt>
      <trkpt lat="45.81508" lon="4.98788">
        <ele>180.5</ele>
        <time>2011-04-24T08:26:14Z</time>
      </trkpt>
      <trkpt lat="45.81508" lon="4.98784">
        <ele>180.5</ele>
        <time>2011-04-24T08:26:15Z</time>
      </trkpt>
      <trkpt lat="45.81507" lon="4.9878">
        <ele>181.6</ele>
        <time>2011-04-24T08:26:16Z</time>
      </trkpt>
      <trkpt lat="45.81502" lon="4.98748">
        <ele>181.6</ele>
        <time>2011-04-24T08:26:24Z</time>
      </trkpt>
      <trkpt lat="45.81491" lon="4.98673">
        <ele>178.8</ele>
        <time>2011-04-24T08:26:43Z</time>
      </trkpt>
      <trkpt lat="45.81489" lon="4.98668">
        <ele>179.3</ele>
        <time>2011-04-24T08:26:44Z</time>
      </trkpt>
      <trkpt lat="45.81488" lon="4.98664">
        <ele>179.5</ele>
        <time>2011-04-24T08:26:45Z</time>
      </trkpt>
      <trkpt lat="45.81487" lon="4.9866">
        <ele>180.3</ele>
        <time>2011-04-24T08:26:46Z</time>
      </trkpt>
      <trkpt lat="45.81486" lon="4.98656">
        <ele>180.5</ele>
        <time>2011-04-24T08:26:47Z</time>
      </trkpt>
      <trkpt lat="45.81485" lon="4.98652">
        <ele>180.6</ele>
        <time>2011-04-24T08:26:48Z</time>
      </trkpt>
      <trkpt lat="45.81482" lon="4.98625">
        <ele>181.3</ele>
        <time>2011-04-24T08:26:55Z</time>
      </trkpt>
      <trkpt lat="45.81482" lon="4.9862">
        <ele>181.3</ele>
        <time>2011-04-24T08:26:56Z</time>
      </trkpt>
      <trkpt lat="45.81482" lon="4.98616">
        <ele>180.5</ele>
        <time>2011-04-24T08:26:57Z</time>
      </trkpt>
      <trkpt lat="45.81482" lon="4.98613">
        <ele>180.5</ele>
        <time>2011-04-24T08:26:58Z</time>
      </trkpt>
      <trkpt lat="45.81479" lon="4.98585">
        <ele>182</ele>
        <time>2011-04-24T08:27:05Z</time>
      </trkpt>
      <trkpt lat="45.81478" lon="4.98578">
        <ele>181.6</ele>
        <time>2011-04-24T08:27:07Z</time>
      </trkpt>
      <trkpt lat="45.81477" lon="4.98574">
        <ele>181.6</ele>
        <time>2011-04-24T08:27:08Z</time>
      </trkpt>
      <trkpt lat="45.81476" lon="4.9857">
        <ele>181</ele>
        <time>2011-04-24T08:27:09Z</time>
      </trkpt>
      <trkpt lat="45.81475" lon="4.98566">
        <ele>181</ele>
        <time>2011-04-24T08:27:10Z</time>
      </trkpt>
      <trkpt lat="45.81473" lon="4.98563">
        <ele>179.6</ele>
        <time>2011-04-24T08:27:11Z</time>
      </trkpt>
      <trkpt lat="45.81469" lon="4.98556">
        <ele>179.1</ele>
        <time>2011-04-24T08:27:13Z</time>
      </trkpt>
      <trkpt lat="45.81456" lon="4.98538">
        <ele>179.6</ele>
        <time>2011-04-24T08:27:19Z</time>
      </trkpt>
      <trkpt lat="45.81455" lon="4.98535">
        <ele>179.6</ele>
        <time>2011-04-24T08:27:20Z</time>
      </trkpt>
      <trkpt lat="45.81451" lon="4.98525">
        <ele>178.5</ele>
        <time>2011-04-24T08:27:23Z</time>
      </trkpt>
      <trkpt lat="45.81451" lon="4.9852">
        <ele>178.1</ele>
        <time>2011-04-24T08:27:24Z</time>
      </trkpt>
      <trkpt lat="45.81451" lon="4.98512">
        <ele>177.1</ele>
        <time>2011-04-24T08:27:26Z</time>
      </trkpt>
      <trkpt lat="45.81453" lon="4.98508">
        <ele>176.6</ele>
        <time>2011-04-24T08:27:27Z</time>
      </trkpt>
      <trkpt lat="45.81455" lon="4.985">
        <ele>177.6</ele>
        <time>2011-04-24T08:27:29Z</time>
      </trkpt>
      <trkpt lat="45.81457" lon="4.98497">
        <ele>178</ele>
        <time>2011-04-24T08:27:30Z</time>
      </trkpt>
      <trkpt lat="45.8146" lon="4.98494">
        <ele>178.1</ele>
        <time>2011-04-24T08:27:31Z</time>
      </trkpt>
      <trkpt lat="45.81462" lon="4.98491">
        <ele>177.6</ele>
        <time>2011-04-24T08:27:32Z</time>
      </trkpt>
      <trkpt lat="45.8147" lon="4.98478">
        <ele>177.1</ele>
        <time>2011-04-24T08:27:36Z</time>
      </trkpt>
      <trkpt lat="45.81472" lon="4.98475">
        <ele>177.6</ele>
        <time>2011-04-24T08:27:37Z</time>
      </trkpt>
      <trkpt lat="45.81479" lon="4.98467">
        <ele>176</ele>
        <time>2011-04-24T08:27:40Z</time>
      </trkpt>
      <trkpt lat="45.8148" lon="4.98464">
        <ele>176</ele>
        <time>2011-04-24T08:27:41Z</time>
      </trkpt>
      <trkpt lat="45.81481" lon="4.98458">
        <ele>174.3</ele>
        <time>2011-04-24T08:27:43Z</time>
      </trkpt>
      <trkpt lat="45.81481" lon="4.98455">
        <ele>175.3</ele>
        <time>2011-04-24T08:27:44Z</time>
      </trkpt>
      <trkpt lat="45.81482" lon="4.98451">
        <ele>175.3</ele>
        <time>2011-04-24T08:27:45Z</time>
      </trkpt>
      <trkpt lat="45.81482" lon="4.9844">
        <ele>174.3</ele>
        <time>2011-04-24T08:27:48Z</time>
      </trkpt>
      <trkpt lat="45.81482" lon="4.98435">
        <ele>174.3</ele>
        <time>2011-04-24T08:27:49Z</time>
      </trkpt>
      <trkpt lat="45.81482" lon="4.98428">
        <ele>173.5</ele>
        <time>2011-04-24T08:27:51Z</time>
      </trkpt>
      <trkpt lat="45.81478" lon="4.98412">
        <ele>175.1</ele>
        <time>2011-04-24T08:27:56Z</time>
      </trkpt>
      <trkpt lat="45.81477" lon="4.98406">
        <ele>175.5</ele>
        <time>2011-04-24T08:27:58Z</time>
      </trkpt>
      <trkpt lat="45.81478" lon="4.984">
        <ele>173.6</ele>
        <time>2011-04-24T08:28:00Z</time>
      </trkpt>
      <trkpt lat="45.81478" lon="4.98397">
        <ele>173.6</ele>
        <time>2011-04-24T08:28:01Z</time>
      </trkpt>
      <trkpt lat="45.8148" lon="4.98387">
        <ele>173</ele>
        <time>2011-04-24T08:28:04Z</time>
      </trkpt>
      <trkpt lat="45.8148" lon="4.98383">
        <ele>173</ele>
        <time>2011-04-24T08:28:05Z</time>
      </trkpt>
      <trkpt lat="45.81481" lon="4.98379">
        <ele>169.8</ele>
        <time>2011-04-24T08:28:06Z</time>
      </trkpt>
      <trkpt lat="45.81481" lon="4.98375">
        <ele>169.8</ele>
        <time>2011-04-24T08:28:07Z</time>
      </trkpt>
      <trkpt lat="45.81481" lon="4.98367">
        <ele>171.6</ele>
        <time>2011-04-24T08:28:10Z</time>
      </trkpt>
      <trkpt lat="45.81481" lon="4.98364">
        <ele>171.6</ele>
        <time>2011-04-24T08:28:11Z</time>
      </trkpt>
      <trkpt lat="45.81481" lon="4.98361">
        <ele>171.5</ele>
        <time>2011-04-24T08:28:12Z</time>
      </trkpt>
      <trkpt lat="45.8148" lon="4.98358">
        <ele>171.5</ele>
        <time>2011-04-24T08:28:13Z</time>
      </trkpt>
      <trkpt lat="45.8148" lon="4.98353">
        <ele>171.8</ele>
        <time>2011-04-24T08:28:14Z</time>
      </trkpt>
      <trkpt lat="45.8148" lon="4.98349">
        <ele>170.6</ele>
        <time>2011-04-24T08:28:15Z</time>
      </trkpt>
      <trkpt lat="45.8148" lon="4.98346">
        <ele>168.6</ele>
        <time>2011-04-24T08:28:16Z</time>
      </trkpt>
      <trkpt lat="45.81482" lon="4.98338">
        <ele>167.8</ele>
        <time>2011-04-24T08:28:18Z</time>
      </trkpt>
      <trkpt lat="45.81482" lon="4.98334">
        <ele>168.5</ele>
        <time>2011-04-24T08:28:19Z</time>
      </trkpt>
      <trkpt lat="45.81483" lon="4.98328">
        <ele>169.1</ele>
        <time>2011-04-24T08:28:21Z</time>
      </trkpt>
      <trkpt lat="45.81483" lon="4.98325">
        <ele>170.3</ele>
        <time>2011-04-24T08:28:22Z</time>
      </trkpt>
      <trkpt lat="45.81483" lon="4.98321">
        <ele>171.3</ele>
        <time>2011-04-24T08:28:23Z</time>
      </trkpt>
      <trkpt lat="45.81484" lon="4.98312">
        <ele>172.8</ele>
        <time>2011-04-24T08:28:25Z</time>
      </trkpt>
      <trkpt lat="45.81486" lon="4.98303">
        <ele>175.6</ele>
        <time>2011-04-24T08:28:27Z</time>
      </trkpt>
      <trkpt lat="45.81487" lon="4.98298">
        <ele>176.5</ele>
        <time>2011-04-24T08:28:28Z</time>
      </trkpt>
      <trkpt lat="45.81491" lon="4.98286">
        <ele>174</ele>
        <time>2011-04-24T08:28:31Z</time>
      </trkpt>
      <trkpt lat="45.81493" lon="4.98283">
        <ele>176.3</ele>
        <time>2011-04-24T08:28:32Z</time>
      </trkpt>
      <trkpt lat="45.81495" lon="4.98279">
        <ele>177.1</ele>
        <time>2011-04-24T08:28:33Z</time>
      </trkpt>
      <trkpt lat="45.81497" lon="4.98273">
        <ele>178.1</ele>
        <time>2011-04-24T08:28:35Z</time>
      </trkpt>
      <trkpt lat="45.81497" lon="4.9827">
        <ele>176.6</ele>
        <time>2011-04-24T08:28:36Z</time>
      </trkpt>
      <trkpt lat="45.81498" lon="4.98266">
        <ele>175.6</ele>
        <time>2011-04-24T08:28:37Z</time>
      </trkpt>
      <trkpt lat="45.81498" lon="4.98259">
        <ele>177.5</ele>
        <time>2011-04-24T08:28:38Z</time>
      </trkpt>
      <trkpt lat="45.81499" lon="4.98252">
        <ele>178.8</ele>
        <time>2011-04-24T08:28:39Z</time>
      </trkpt>
      <trkpt lat="45.81499" lon="4.98248">
        <ele>179</ele>
        <time>2011-04-24T08:28:40Z</time>
      </trkpt>
      <trkpt lat="45.81499" lon="4.98245">
        <ele>176.6</ele>
        <time>2011-04-24T08:28:41Z</time>
      </trkpt>
      <trkpt lat="45.81501" lon="4.98237">
        <ele>178.6</ele>
        <time>2011-04-24T08:28:43Z</time>
      </trkpt>
      <trkpt lat="45.81504" lon="4.9823">
        <ele>174</ele>
        <time>2011-04-24T08:28:45Z</time>
      </trkpt>
      <trkpt lat="45.81505" lon="4.98226">
        <ele>174</ele>
        <time>2011-04-24T08:28:46Z</time>
      </trkpt>
      <trkpt lat="45.81509" lon="4.98213">
        <ele>174.6</ele>
        <time>2011-04-24T08:28:49Z</time>
      </trkpt>
      <trkpt lat="45.81509" lon="4.98209">
        <ele>174.6</ele>
        <time>2011-04-24T08:28:50Z</time>
      </trkpt>
      <trkpt lat="45.81515" lon="4.98175">
        <ele>162.8</ele>
        <time>2011-04-24T08:28:59Z</time>
      </trkpt>
      <trkpt lat="45.81516" lon="4.98161">
        <ele>155.6</ele>
        <time>2011-04-24T08:29:03Z</time>
      </trkpt>
      <trkpt lat="45.81518" lon="4.98154">
        <ele>154.8</ele>
        <time>2011-04-24T08:29:05Z</time>
      </trkpt>
      <trkpt lat="45.81521" lon="4.98151">
        <ele>154.8</ele>
        <time>2011-04-24T08:29:06Z</time>
      </trkpt>
      <trkpt lat="45.81522" lon="4.98147">
        <ele>156.1</ele>
        <time>2011-04-24T08:29:07Z</time>
      </trkpt>
      <trkpt lat="45.81524" lon="4.9814">
        <ele>157.3</ele>
        <time>2011-04-24T08:29:09Z</time>
      </trkpt>
      <trkpt lat="45.81524" lon="4.98136">
        <ele>158.5</ele>
        <time>2011-04-24T08:29:10Z</time>
      </trkpt>
      <trkpt lat="45.81527" lon="4.98127">
        <ele>160.5</ele>
        <time>2011-04-24T08:29:12Z</time>
      </trkpt>
      <trkpt lat="45.81529" lon="4.98117">
        <ele>161.8</ele>
        <time>2011-04-24T08:29:14Z</time>
      </trkpt>
      <trkpt lat="45.8153" lon="4.98114">
        <ele>162.1</ele>
        <time>2011-04-24T08:29:15Z</time>
      </trkpt>
      <trkpt lat="45.81532" lon="4.9811">
        <ele>163.6</ele>
        <time>2011-04-24T08:29:16Z</time>
      </trkpt>
      <trkpt lat="45.81534" lon="4.98103">
        <ele>164.6</ele>
        <time>2011-04-24T08:29:18Z</time>
      </trkpt>
      <trkpt lat="45.81538" lon="4.98097">
        <ele>168.3</ele>
        <time>2011-04-24T08:29:19Z</time>
      </trkpt>
      <trkpt lat="45.81539" lon="4.98093">
        <ele>167.8</ele>
        <time>2011-04-24T08:29:20Z</time>
      </trkpt>
      <trkpt lat="45.81544" lon="4.98075">
        <ele>167.5</ele>
        <time>2011-04-24T08:29:24Z</time>
      </trkpt>
      <trkpt lat="45.81548" lon="4.98065">
        <ele>169</ele>
        <time>2011-04-24T08:29:26Z</time>
      </trkpt>
      <trkpt lat="45.81549" lon="4.98061">
        <ele>169</ele>
        <time>2011-04-24T08:29:27Z</time>
      </trkpt>
      <trkpt lat="45.81551" lon="4.98058">
        <ele>171.6</ele>
        <time>2011-04-24T08:29:28Z</time>
      </trkpt>
      <trkpt lat="45.81552" lon="4.98053">
        <ele>172.6</ele>
        <time>2011-04-24T08:29:29Z</time>
      </trkpt>
      <trkpt lat="45.81552" lon="4.98049">
        <ele>173</ele>
        <time>2011-04-24T08:29:30Z</time>
      </trkpt>
      <trkpt lat="45.81554" lon="4.98041">
        <ele>173.3</ele>
        <time>2011-04-24T08:29:32Z</time>
      </trkpt>
      <trkpt lat="45.8156" lon="4.98015">
        <ele>174.3</ele>
        <time>2011-04-24T08:29:38Z</time>
      </trkpt>
      <trkpt lat="45.81561" lon="4.98011">
        <ele>174.8</ele>
        <time>2011-04-24T08:29:39Z</time>
      </trkpt>
      <trkpt lat="45.81563" lon="4.98008">
        <ele>174.8</ele>
        <time>2011-04-24T08:29:40Z</time>
      </trkpt>
      <trkpt lat="45.81568" lon="4.98">
        <ele>177</ele>
        <time>2011-04-24T08:29:42Z</time>
      </trkpt>
      <trkpt lat="45.8157" lon="4.97997">
        <ele>177</ele>
        <time>2011-04-24T08:29:43Z</time>
      </trkpt>
      <trkpt lat="45.8158" lon="4.97983">
        <ele>176.5</ele>
        <time>2011-04-24T08:29:48Z</time>
      </trkpt>
      <trkpt lat="45.81594" lon="4.9796">
        <ele>170.8</ele>
        <time>2011-04-24T08:29:56Z</time>
      </trkpt>
      <trkpt lat="45.81596" lon="4.97957">
        <ele>170.8</ele>
        <time>2011-04-24T08:29:57Z</time>
      </trkpt>
      <trkpt lat="45.816" lon="4.97942">
        <ele>170</ele>
        <time>2011-04-24T08:30:01Z</time>
      </trkpt>
      <trkpt lat="45.81602" lon="4.97938">
        <ele>168.8</ele>
        <time>2011-04-24T08:30:02Z</time>
      </trkpt>
      <trkpt lat="45.81603" lon="4.97935">
        <ele>168.6</ele>
        <time>2011-04-24T08:30:03Z</time>
      </trkpt>
      <trkpt lat="45.81607" lon="4.97923">
        <ele>170.6</ele>
        <time>2011-04-24T08:30:06Z</time>
      </trkpt>
      <trkpt lat="45.8161" lon="4.97915">
        <ele>170.6</ele>
        <time>2011-04-24T08:30:08Z</time>
      </trkpt>
      <trkpt lat="45.81612" lon="4.97912">
        <ele>171.3</ele>
        <time>2011-04-24T08:30:09Z</time>
      </trkpt>
      <trkpt lat="45.81614" lon="4.97908">
        <ele>171.3</ele>
        <time>2011-04-24T08:30:10Z</time>
      </trkpt>
      <trkpt lat="45.81624" lon="4.97886">
        <ele>176.3</ele>
        <time>2011-04-24T08:30:17Z</time>
      </trkpt>
      <trkpt lat="45.8163" lon="4.97876">
        <ele>178</ele>
        <time>2011-04-24T08:30:20Z</time>
      </trkpt>
      <trkpt lat="45.81635" lon="4.97865">
        <ele>180.1</ele>
        <time>2011-04-24T08:30:23Z</time>
      </trkpt>
      <trkpt lat="45.81637" lon="4.97862">
        <ele>179.5</ele>
        <time>2011-04-24T08:30:24Z</time>
      </trkpt>
      <trkpt lat="45.81638" lon="4.9786">
        <ele>178.8</ele>
        <time>2011-04-24T08:30:25Z</time>
      </trkpt>
      <trkpt lat="45.81645" lon="4.97849">
        <ele>178.8</ele>
        <time>2011-04-24T08:30:29Z</time>
      </trkpt>
      <trkpt lat="45.81646" lon="4.97845">
        <ele>178.5</ele>
        <time>2011-04-24T08:30:30Z</time>
      </trkpt>
      <trkpt lat="45.8165" lon="4.97834">
        <ele>178.3</ele>
        <time>2011-04-24T08:30:33Z</time>
      </trkpt>
      <trkpt lat="45.81652" lon="4.9783">
        <ele>178.3</ele>
        <time>2011-04-24T08:30:34Z</time>
      </trkpt>
      <trkpt lat="45.81657" lon="4.97819">
        <ele>178.3</ele>
        <time>2011-04-24T08:30:37Z</time>
      </trkpt>
      <trkpt lat="45.81659" lon="4.97816">
        <ele>178.3</ele>
        <time>2011-04-24T08:30:38Z</time>
      </trkpt>
      <trkpt lat="45.81659" lon="4.97813">
        <ele>177.3</ele>
        <time>2011-04-24T08:30:39Z</time>
      </trkpt>
      <trkpt lat="45.81659" lon="4.97811">
        <ele>177.3</ele>
        <time>2011-04-24T08:30:40Z</time>
      </trkpt>
      <trkpt lat="45.81659" lon="4.97793">
        <ele>172.8</ele>
        <time>2011-04-24T08:30:45Z</time>
      </trkpt>
      <trkpt lat="45.81659" lon="4.97789">
        <ele>172.8</ele>
        <time>2011-04-24T08:30:46Z</time>
      </trkpt>
      <trkpt lat="45.8166" lon="4.97779">
        <ele>173.8</ele>
        <time>2011-04-24T08:30:49Z</time>
      </trkpt>
      <trkpt lat="45.8166" lon="4.97775">
        <ele>173.8</ele>
        <time>2011-04-24T08:30:50Z</time>
      </trkpt>
      <trkpt lat="45.81662" lon="4.97755">
        <ele>174</ele>
        <time>2011-04-24T08:30:55Z</time>
      </trkpt>
      <trkpt lat="45.81661" lon="4.97752">
        <ele>174</ele>
        <time>2011-04-24T08:30:56Z</time>
      </trkpt>
      <trkpt lat="45.8166" lon="4.97749">
        <ele>171.6</ele>
        <time>2011-04-24T08:30:57Z</time>
      </trkpt>
      <trkpt lat="45.81658" lon="4.97747">
        <ele>171.6</ele>
        <time>2011-04-24T08:30:58Z</time>
      </trkpt>
      <trkpt lat="45.81646" lon="4.97718">
        <ele>172</ele>
        <time>2011-04-24T08:31:07Z</time>
      </trkpt>
      <trkpt lat="45.81644" lon="4.97711">
        <ele>171.8</ele>
        <time>2011-04-24T08:31:09Z</time>
      </trkpt>
      <trkpt lat="45.81642" lon="4.97704">
        <ele>172.8</ele>
        <time>2011-04-24T08:31:11Z</time>
      </trkpt>
      <trkpt lat="45.81638" lon="4.97693">
        <ele>173.3</ele>
        <time>2011-04-24T08:31:14Z</time>
      </trkpt>
      <trkpt lat="45.81638" lon="4.97689">
        <ele>173.8</ele>
        <time>2011-04-24T08:31:15Z</time>
      </trkpt>
      <trkpt lat="45.81633" lon="4.9765">
        <ele>174.5</ele>
        <time>2011-04-24T08:31:25Z</time>
      </trkpt>
      <trkpt lat="45.81628" lon="4.97623">
        <ele>172.1</ele>
        <time>2011-04-24T08:31:32Z</time>
      </trkpt>
      <trkpt lat="45.81619" lon="4.97553">
        <ele>169.6</ele>
        <time>2011-04-24T08:31:50Z</time>
      </trkpt>
      <trkpt lat="45.81619" lon="4.97533">
        <ele>170.8</ele>
        <time>2011-04-24T08:31:55Z</time>
      </trkpt>
      <trkpt lat="45.81619" lon="4.9753">
        <ele>171.5</ele>
        <time>2011-04-24T08:31:56Z</time>
      </trkpt>
      <trkpt lat="45.81619" lon="4.97526">
        <ele>172.8</ele>
        <time>2011-04-24T08:31:57Z</time>
      </trkpt>
      <trkpt lat="45.81619" lon="4.97514">
        <ele>173.8</ele>
        <time>2011-04-24T08:32:00Z</time>
      </trkpt>
      <trkpt lat="45.81619" lon="4.97511">
        <ele>173.8</ele>
        <time>2011-04-24T08:32:01Z</time>
      </trkpt>
      <trkpt lat="45.8162" lon="4.97509">
        <ele>173.8</ele>
        <time>2011-04-24T08:32:02Z</time>
      </trkpt>
      <trkpt lat="45.8162" lon="4.97508">
        <ele>173.3</ele>
        <time>2011-04-24T08:32:03Z</time>
      </trkpt>
      <trkpt lat="45.8162" lon="4.97508">
        <ele>173.3</ele>
        <time>2011-04-24T08:32:04Z</time>
      </trkpt>
      <trkpt lat="45.8162" lon="4.97507">
        <ele>174</ele>
        <time>2011-04-24T08:32:05Z</time>
      </trkpt>
      <trkpt lat="45.8162" lon="4.97507">
        <ele>174.6</ele>
        <time>2011-04-24T08:32:06Z</time>
      </trkpt>
      <trkpt lat="45.8162" lon="4.97507">
        <ele>174.3</ele>
        <time>2011-04-24T08:32:07Z</time>
      </trkpt>
      <trkpt lat="45.8162" lon="4.97507">
        <ele>174.3</ele>
        <time>2011-04-24T08:32:08Z</time>
      </trkpt>
      <trkpt lat="45.8162" lon="4.97507">
        <ele>174.3</ele>
        <time>2011-04-24T08:32:09Z</time>
      </trkpt>
      <trkpt lat="45.8162" lon="4.97507">
        <ele>174.6</ele>
        <time>2011-04-24T08:32:10Z</time>
      </trkpt>
      <trkpt lat="45.8162" lon="4.97507">
        <ele>174.8</ele>
        <time>2011-04-24T08:32:11Z</time>
      </trkpt>
      <trkpt lat="45.8162" lon="4.97506">
        <ele>175.5</ele>
        <time>2011-04-24T08:32:12Z</time>
      </trkpt>
      <trkpt lat="45.8162" lon="4.97505">
        <ele>176.1</ele>
        <time>2011-04-24T08:32:13Z</time>
      </trkpt>
      <trkpt lat="45.81619" lon="4.97501">
        <ele>176.6</ele>
        <time>2011-04-24T08:32:14Z</time>
      </trkpt>
      <trkpt lat="45.81604" lon="4.97345">
        <ele>176.3</ele>
        <time>2011-04-24T08:32:53Z</time>
      </trkpt>
      <trkpt lat="45.81603" lon="4.97342">
        <ele>176.3</ele>
        <time>2011-04-24T08:32:54Z</time>
      </trkpt>
      <trkpt lat="45.81603" lon="4.97338">
        <ele>175.6</ele>
        <time>2011-04-24T08:32:55Z</time>
      </trkpt>
      <trkpt lat="45.81599" lon="4.9731">
        <ele>172.8</ele>
        <time>2011-04-24T08:33:02Z</time>
      </trkpt>
      <trkpt lat="45.81598" lon="4.97307">
        <ele>172.5</ele>
        <time>2011-04-24T08:33:03Z</time>
      </trkpt>
      <trkpt lat="45.81592" lon="4.97247">
        <ele>172</ele>
        <time>2011-04-24T08:33:19Z</time>
      </trkpt>
      <trkpt lat="45.81592" lon="4.97238">
        <ele>172.8</ele>
        <time>2011-04-24T08:33:21Z</time>
      </trkpt>
      <trkpt lat="45.81592" lon="4.97234">
        <ele>173</ele>
        <time>2011-04-24T08:33:22Z</time>
      </trkpt>
      <trkpt lat="45.81591" lon="4.9723">
        <ele>173.1</ele>
        <time>2011-04-24T08:33:23Z</time>
      </trkpt>
      <trkpt lat="45.8159" lon="4.97225">
        <ele>173.1</ele>
        <time>2011-04-24T08:33:24Z</time>
      </trkpt>
      <trkpt lat="45.8159" lon="4.97221">
        <ele>173.6</ele>
        <time>2011-04-24T08:33:25Z</time>
      </trkpt>
      <trkpt lat="45.81588" lon="4.9719">
        <ele>172.3</ele>
        <time>2011-04-24T08:33:33Z</time>
      </trkpt>
      <trkpt lat="45.81587" lon="4.97187">
        <ele>171</ele>
        <time>2011-04-24T08:33:34Z</time>
      </trkpt>
      <trkpt lat="45.81583" lon="4.97156">
        <ele>170.8</ele>
        <time>2011-04-24T08:33:42Z</time>
      </trkpt>
      <trkpt lat="45.81581" lon="4.97148">
        <ele>171.6</ele>
        <time>2011-04-24T08:33:44Z</time>
      </trkpt>
      <trkpt lat="45.81581" lon="4.97144">
        <ele>171.6</ele>
        <time>2011-04-24T08:33:45Z</time>
      </trkpt>
      <trkpt lat="45.81578" lon="4.97126">
        <ele>171</ele>
        <time>2011-04-24T08:33:50Z</time>
      </trkpt>
      <trkpt lat="45.81572" lon="4.97064">
        <ele>171.8</ele>
        <time>2011-04-24T08:34:05Z</time>
      </trkpt>
      <trkpt lat="45.81571" lon="4.9706">
        <ele>171.8</ele>
        <time>2011-04-24T08:34:06Z</time>
      </trkpt>
      <trkpt lat="45.81568" lon="4.97034">
        <ele>171.1</ele>
        <time>2011-04-24T08:34:13Z</time>
      </trkpt>
      <trkpt lat="45.81569" lon="4.9703">
        <ele>171.6</ele>
        <time>2011-04-24T08:34:14Z</time>
      </trkpt>
      <trkpt lat="45.81568" lon="4.97026">
        <ele>171.6</ele>
        <time>2011-04-24T08:34:15Z</time>
      </trkpt>
      <trkpt lat="45.81563" lon="4.96982">
        <ele>167.3</ele>
        <time>2011-04-24T08:34:26Z</time>
      </trkpt>
      <trkpt lat="45.8156" lon="4.96955">
        <ele>166.6</ele>
        <time>2011-04-24T08:34:33Z</time>
      </trkpt>
      <trkpt lat="45.81558" lon="4.96949">
        <ele>166.3</ele>
        <time>2011-04-24T08:34:35Z</time>
      </trkpt>
      <trkpt lat="45.81558" lon="4.96945">
        <ele>165.5</ele>
        <time>2011-04-24T08:34:36Z</time>
      </trkpt>
      <trkpt lat="45.81557" lon="4.96937">
        <ele>165.5</ele>
        <time>2011-04-24T08:34:38Z</time>
      </trkpt>
      <trkpt lat="45.81557" lon="4.96934">
        <ele>165.1</ele>
        <time>2011-04-24T08:34:39Z</time>
      </trkpt>
      <trkpt lat="45.81547" lon="4.96871">
        <ele>165.6</ele>
        <time>2011-04-24T08:34:55Z</time>
      </trkpt>
      <trkpt lat="45.81544" lon="4.96825">
        <ele>175.6</ele>
        <time>2011-04-24T08:35:07Z</time>
      </trkpt>
      <trkpt lat="45.81544" lon="4.96822">
        <ele>176.3</ele>
        <time>2011-04-24T08:35:08Z</time>
      </trkpt>
      <trkpt lat="45.81544" lon="4.96818">
        <ele>176.1</ele>
        <time>2011-04-24T08:35:09Z</time>
      </trkpt>
      <trkpt lat="45.81538" lon="4.96746">
        <ele>171.1</ele>
        <time>2011-04-24T08:35:28Z</time>
      </trkpt>
      <trkpt lat="45.81537" lon="4.96742">
        <ele>171.1</ele>
        <time>2011-04-24T08:35:29Z</time>
      </trkpt>
      <trkpt lat="45.81536" lon="4.96706">
        <ele>174.3</ele>
        <time>2011-04-24T08:35:38Z</time>
      </trkpt>
      <trkpt lat="45.81534" lon="4.96676">
        <ele>171.8</ele>
        <time>2011-04-24T08:35:46Z</time>
      </trkpt>
      <trkpt lat="45.81533" lon="4.96673">
        <ele>171.1</ele>
        <time>2011-04-24T08:35:47Z</time>
      </trkpt>
      <trkpt lat="45.81533" lon="4.96669">
        <ele>171.3</ele>
        <time>2011-04-24T08:35:48Z</time>
      </trkpt>
      <trkpt lat="45.81532" lon="4.96665">
        <ele>170.6</ele>
        <time>2011-04-24T08:35:49Z</time>
      </trkpt>
      <trkpt lat="45.81531" lon="4.96653">
        <ele>170.8</ele>
        <time>2011-04-24T08:35:52Z</time>
      </trkpt>
      <trkpt lat="45.8153" lon="4.96649">
        <ele>171.1</ele>
        <time>2011-04-24T08:35:53Z</time>
      </trkpt>
      <trkpt lat="45.8153" lon="4.96642">
        <ele>171.5</ele>
        <time>2011-04-24T08:35:55Z</time>
      </trkpt>
      <trkpt lat="45.81527" lon="4.96563">
        <ele>171</ele>
        <time>2011-04-24T08:36:14Z</time>
      </trkpt>
      <trkpt lat="45.81526" lon="4.96559">
        <ele>170.8</ele>
        <time>2011-04-24T08:36:15Z</time>
      </trkpt>
      <trkpt lat="45.81523" lon="4.96514">
        <ele>177</ele>
        <time>2011-04-24T08:36:27Z</time>
      </trkpt>
      <trkpt lat="45.81522" lon="4.9651">
        <ele>177</ele>
        <time>2011-04-24T08:36:28Z</time>
      </trkpt>
      <trkpt lat="45.81521" lon="4.96506">
        <ele>177</ele>
        <time>2011-04-24T08:36:29Z</time>
      </trkpt>
      <trkpt lat="45.81521" lon="4.96499">
        <ele>177.3</ele>
        <time>2011-04-24T08:36:31Z</time>
      </trkpt>
      <trkpt lat="45.81508" lon="4.96262">
        <ele>176</ele>
        <time>2011-04-24T08:37:32Z</time>
      </trkpt>
      <trkpt lat="45.81507" lon="4.96258">
        <ele>176.6</ele>
        <time>2011-04-24T08:37:33Z</time>
      </trkpt>
      <trkpt lat="45.81499" lon="4.96187">
        <ele>178.5</ele>
        <time>2011-04-24T08:37:51Z</time>
      </trkpt>
      <trkpt lat="45.81499" lon="4.96184">
        <ele>179.3</ele>
        <time>2011-04-24T08:37:52Z</time>
      </trkpt>
      <trkpt lat="45.81497" lon="4.9618">
        <ele>179.1</ele>
        <time>2011-04-24T08:37:53Z</time>
      </trkpt>
      <trkpt lat="45.81483" lon="4.96136">
        <ele>178.6</ele>
        <time>2011-04-24T08:38:05Z</time>
      </trkpt>
      <trkpt lat="45.81481" lon="4.96133">
        <ele>178.6</ele>
        <time>2011-04-24T08:38:06Z</time>
      </trkpt>
      <trkpt lat="45.81475" lon="4.96121">
        <ele>178.3</ele>
        <time>2011-04-24T08:38:10Z</time>
      </trkpt>
      <trkpt lat="45.81473" lon="4.96119">
        <ele>178.1</ele>
        <time>2011-04-24T08:38:11Z</time>
      </trkpt>
      <trkpt lat="45.81468" lon="4.96116">
        <ele>178.1</ele>
        <time>2011-04-24T08:38:13Z</time>
      </trkpt>
      <trkpt lat="45.81459" lon="4.96108">
        <ele>179.3</ele>
        <time>2011-04-24T08:38:17Z</time>
      </trkpt>
      <trkpt lat="45.81456" lon="4.96107">
        <ele>179.3</ele>
        <time>2011-04-24T08:38:18Z</time>
      </trkpt>
      <trkpt lat="45.81402" lon="4.96085">
        <ele>179.8</ele>
        <time>2011-04-24T08:38:39Z</time>
      </trkpt>
      <trkpt lat="45.81399" lon="4.96085">
        <ele>180.1</ele>
        <time>2011-04-24T08:38:40Z</time>
      </trkpt>
      <trkpt lat="45.81397" lon="4.96084">
        <ele>180.5</ele>
        <time>2011-04-24T08:38:41Z</time>
      </trkpt>
      <trkpt lat="45.81385" lon="4.96081">
        <ele>180.8</ele>
        <time>2011-04-24T08:38:45Z</time>
      </trkpt>
      <trkpt lat="45.81383" lon="4.9608">
        <ele>180.8</ele>
        <time>2011-04-24T08:38:46Z</time>
      </trkpt>
      <trkpt lat="45.81363" lon="4.96078">
        <ele>181.3</ele>
        <time>2011-04-24T08:38:54Z</time>
      </trkpt>
      <trkpt lat="45.8135" lon="4.96076">
        <ele>182.3</ele>
        <time>2011-04-24T08:38:59Z</time>
      </trkpt>
      <trkpt lat="45.81331" lon="4.96073">
        <ele>181.6</ele>
        <time>2011-04-24T08:39:06Z</time>
      </trkpt>
      <trkpt lat="45.81328" lon="4.96073">
        <ele>181.6</ele>
        <time>2011-04-24T08:39:07Z</time>
      </trkpt>
      <trkpt lat="45.81325" lon="4.96074">
        <ele>181.5</ele>
        <time>2011-04-24T08:39:08Z</time>
      </trkpt>
      <trkpt lat="45.81308" lon="4.9608">
        <ele>178.8</ele>
        <time>2011-04-24T08:39:15Z</time>
      </trkpt>
      <trkpt lat="45.81306" lon="4.96081">
        <ele>178.5</ele>
        <time>2011-04-24T08:39:16Z</time>
      </trkpt>
      <trkpt lat="45.81301" lon="4.96084">
        <ele>177.8</ele>
        <time>2011-04-24T08:39:18Z</time>
      </trkpt>
      <trkpt lat="45.81288" lon="4.9609">
        <ele>177.3</ele>
        <time>2011-04-24T08:39:23Z</time>
      </trkpt>
      <trkpt lat="45.81285" lon="4.9609">
        <ele>176.8</ele>
        <time>2011-04-24T08:39:24Z</time>
      </trkpt>
      <trkpt lat="45.81281" lon="4.96091">
        <ele>176.1</ele>
        <time>2011-04-24T08:39:26Z</time>
      </trkpt>
      <trkpt lat="45.81278" lon="4.96092">
        <ele>175.8</ele>
        <time>2011-04-24T08:39:27Z</time>
      </trkpt>
      <trkpt lat="45.81276" lon="4.96094">
        <ele>176.8</ele>
        <time>2011-04-24T08:39:28Z</time>
      </trkpt>
      <trkpt lat="45.81275" lon="4.96097">
        <ele>176.6</ele>
        <time>2011-04-24T08:39:29Z</time>
      </trkpt>
      <trkpt lat="45.81274" lon="4.96101">
        <ele>176.6</ele>
        <time>2011-04-24T08:39:30Z</time>
      </trkpt>
      <trkpt lat="45.81274" lon="4.96109">
        <ele>177.6</ele>
        <time>2011-04-24T08:39:32Z</time>
      </trkpt>
      <trkpt lat="45.81271" lon="4.96121">
        <ele>178.1</ele>
        <time>2011-04-24T08:39:35Z</time>
      </trkpt>
      <trkpt lat="45.8127" lon="4.96129">
        <ele>178.8</ele>
        <time>2011-04-24T08:39:37Z</time>
      </trkpt>
      <trkpt lat="45.81261" lon="4.96189">
        <ele>179.6</ele>
        <time>2011-04-24T08:39:52Z</time>
      </trkpt>
      <trkpt lat="45.8126" lon="4.96193">
        <ele>180.1</ele>
        <time>2011-04-24T08:39:53Z</time>
      </trkpt>
      <trkpt lat="45.81259" lon="4.96196">
        <ele>180.3</ele>
        <time>2011-04-24T08:39:54Z</time>
      </trkpt>
      <trkpt lat="45.81255" lon="4.96201">
        <ele>180.1</ele>
        <time>2011-04-24T08:39:56Z</time>
      </trkpt>
      <trkpt lat="45.81253" lon="4.96204">
        <ele>179.8</ele>
        <time>2011-04-24T08:39:57Z</time>
      </trkpt>
      <trkpt lat="45.81233" lon="4.96234">
        <ele>178.3</ele>
        <time>2011-04-24T08:40:08Z</time>
      </trkpt>
      <trkpt lat="45.8123" lon="4.96237">
        <ele>178.3</ele>
        <time>2011-04-24T08:40:09Z</time>
      </trkpt>
      <trkpt lat="45.81228" lon="4.96238">
        <ele>178</ele>
        <time>2011-04-24T08:40:10Z</time>
      </trkpt>
      <trkpt lat="45.81219" lon="4.96241">
        <ele>178.3</ele>
        <time>2011-04-24T08:40:13Z</time>
      </trkpt>
      <trkpt lat="45.81197" lon="4.96249">
        <ele>173.8</ele>
        <time>2011-04-24T08:40:22Z</time>
      </trkpt>
      <trkpt lat="45.8119" lon="4.96253">
        <ele>173.6</ele>
        <time>2011-04-24T08:40:24Z</time>
      </trkpt>
      <trkpt lat="45.81166" lon="4.96271">
        <ele>169.6</ele>
        <time>2011-04-24T08:40:34Z</time>
      </trkpt>
      <trkpt lat="45.81164" lon="4.96274">
        <ele>168.8</ele>
        <time>2011-04-24T08:40:35Z</time>
      </trkpt>
      <trkpt lat="45.81163" lon="4.96278">
        <ele>169.1</ele>
        <time>2011-04-24T08:40:36Z</time>
      </trkpt>
      <trkpt lat="45.81161" lon="4.96283">
        <ele>170.8</ele>
        <time>2011-04-24T08:40:37Z</time>
      </trkpt>
      <trkpt lat="45.8116" lon="4.96286">
        <ele>170.3</ele>
        <time>2011-04-24T08:40:38Z</time>
      </trkpt>
      <trkpt lat="45.81158" lon="4.96305">
        <ele>175.3</ele>
        <time>2011-04-24T08:40:42Z</time>
      </trkpt>
      <trkpt lat="45.81159" lon="4.96314">
        <ele>176.1</ele>
        <time>2011-04-24T08:40:44Z</time>
      </trkpt>
      <trkpt lat="45.81158" lon="4.96323">
        <ele>178.6</ele>
        <time>2011-04-24T08:40:46Z</time>
      </trkpt>
      <trkpt lat="45.81154" lon="4.96357">
        <ele>180.1</ele>
        <time>2011-04-24T08:40:55Z</time>
      </trkpt>
      <trkpt lat="45.81153" lon="4.96361">
        <ele>180.6</ele>
        <time>2011-04-24T08:40:56Z</time>
      </trkpt>
      <trkpt lat="45.81143" lon="4.96406">
        <ele>180</ele>
        <time>2011-04-24T08:41:08Z</time>
      </trkpt>
      <trkpt lat="45.81134" lon="4.96441">
        <ele>178.8</ele>
        <time>2011-04-24T08:41:17Z</time>
      </trkpt>
      <trkpt lat="45.81133" lon="4.96444">
        <ele>178.8</ele>
        <time>2011-04-24T08:41:18Z</time>
      </trkpt>
      <trkpt lat="45.81124" lon="4.96473">
        <ele>175.3</ele>
        <time>2011-04-24T08:41:26Z</time>
      </trkpt>
      <trkpt lat="45.81122" lon="4.9648">
        <ele>175.3</ele>
        <time>2011-04-24T08:41:28Z</time>
      </trkpt>
      <trkpt lat="45.8112" lon="4.96483">
        <ele>175.3</ele>
        <time>2011-04-24T08:41:29Z</time>
      </trkpt>
      <trkpt lat="45.81107" lon="4.9651">
        <ele>174.3</ele>
        <time>2011-04-24T08:41:37Z</time>
      </trkpt>
      <trkpt lat="45.81106" lon="4.96513">
        <ele>174.3</ele>
        <time>2011-04-24T08:41:38Z</time>
      </trkpt>
      <trkpt lat="45.81103" lon="4.96516">
        <ele>174.6</ele>
        <time>2011-04-24T08:41:39Z</time>
      </trkpt>
      <trkpt lat="45.81094" lon="4.96528">
        <ele>175.8</ele>
        <time>2011-04-24T08:41:43Z</time>
      </trkpt>
      <trkpt lat="45.81092" lon="4.96532">
        <ele>176.5</ele>
        <time>2011-04-24T08:41:44Z</time>
      </trkpt>
      <trkpt lat="45.8104" lon="4.96648">
        <ele>175.6</ele>
        <time>2011-04-24T08:42:20Z</time>
      </trkpt>
      <trkpt lat="45.8104" lon="4.9665">
        <ele>175.6</ele>
        <time>2011-04-24T08:42:21Z</time>
      </trkpt>
      <trkpt lat="45.8104" lon="4.96654">
        <ele>178.3</ele>
        <time>2011-04-24T08:42:22Z</time>
      </trkpt>
      <trkpt lat="45.81039" lon="4.96657">
        <ele>178.3</ele>
        <time>2011-04-24T08:42:23Z</time>
      </trkpt>
      <trkpt lat="45.81039" lon="4.9666">
        <ele>179.3</ele>
        <time>2011-04-24T08:42:24Z</time>
      </trkpt>
      <trkpt lat="45.81038" lon="4.96666">
        <ele>177.8</ele>
        <time>2011-04-24T08:42:26Z</time>
      </trkpt>
      <trkpt lat="45.81035" lon="4.9667">
        <ele>177.8</ele>
        <time>2011-04-24T08:42:27Z</time>
      </trkpt>
      <trkpt lat="45.81033" lon="4.96674">
        <ele>177.3</ele>
        <time>2011-04-24T08:42:28Z</time>
      </trkpt>
      <trkpt lat="45.8103" lon="4.96678">
        <ele>178</ele>
        <time>2011-04-24T08:42:29Z</time>
      </trkpt>
      <trkpt lat="45.81009" lon="4.96707">
        <ele>179</ele>
        <time>2011-04-24T08:42:38Z</time>
      </trkpt>
      <trkpt lat="45.81008" lon="4.9671">
        <ele>178.6</ele>
        <time>2011-04-24T08:42:39Z</time>
      </trkpt>
      <trkpt lat="45.81003" lon="4.96716">
        <ele>180.5</ele>
        <time>2011-04-24T08:42:41Z</time>
      </trkpt>
      <trkpt lat="45.81001" lon="4.96719">
        <ele>181.3</ele>
        <time>2011-04-24T08:42:42Z</time>
      </trkpt>
      <trkpt lat="45.80998" lon="4.96726">
        <ele>179.3</ele>
        <time>2011-04-24T08:42:44Z</time>
      </trkpt>
      <trkpt lat="45.80997" lon="4.96729">
        <ele>178.6</ele>
        <time>2011-04-24T08:42:45Z</time>
      </trkpt>
      <trkpt lat="45.80997" lon="4.96733">
        <ele>179</ele>
        <time>2011-04-24T08:42:46Z</time>
      </trkpt>
      <trkpt lat="45.80995" lon="4.96736">
        <ele>178.6</ele>
        <time>2011-04-24T08:42:47Z</time>
      </trkpt>
      <trkpt lat="45.80994" lon="4.96739">
        <ele>178</ele>
        <time>2011-04-24T08:42:48Z</time>
      </trkpt>
      <trkpt lat="45.80993" lon="4.96742">
        <ele>177.5</ele>
        <time>2011-04-24T08:42:49Z</time>
      </trkpt>
      <trkpt lat="45.80991" lon="4.96746">
        <ele>177.5</ele>
        <time>2011-04-24T08:42:50Z</time>
      </trkpt>
      <trkpt lat="45.80985" lon="4.96754">
        <ele>174.1</ele>
        <time>2011-04-24T08:42:53Z</time>
      </trkpt>
      <trkpt lat="45.80981" lon="4.96759">
        <ele>173.6</ele>
        <time>2011-04-24T08:42:55Z</time>
      </trkpt>
      <trkpt lat="45.80977" lon="4.96764">
        <ele>173</ele>
        <time>2011-04-24T08:42:57Z</time>
      </trkpt>
      <trkpt lat="45.80954" lon="4.96785">
        <ele>171.6</ele>
        <time>2011-04-24T08:43:05Z</time>
      </trkpt>
      <trkpt lat="45.80952" lon="4.96788">
        <ele>171.6</ele>
        <time>2011-04-24T08:43:06Z</time>
      </trkpt>
      <trkpt lat="45.80945" lon="4.96799">
        <ele>170.5</ele>
        <time>2011-04-24T08:43:09Z</time>
      </trkpt>
      <trkpt lat="45.80941" lon="4.96808">
        <ele>170.3</ele>
        <time>2011-04-24T08:43:11Z</time>
      </trkpt>
      <trkpt lat="45.80931" lon="4.96833">
        <ele>169.6</ele>
        <time>2011-04-24T08:43:17Z</time>
      </trkpt>
      <trkpt lat="45.80928" lon="4.96841">
        <ele>169.8</ele>
        <time>2011-04-24T08:43:19Z</time>
      </trkpt>
      <trkpt lat="45.80923" lon="4.96857">
        <ele>170.8</ele>
        <time>2011-04-24T08:43:23Z</time>
      </trkpt>
      <trkpt lat="45.80923" lon="4.9686">
        <ele>170.8</ele>
        <time>2011-04-24T08:43:24Z</time>
      </trkpt>
      <trkpt lat="45.80921" lon="4.96868">
        <ele>170.1</ele>
        <time>2011-04-24T08:43:26Z</time>
      </trkpt>
      <trkpt lat="45.80884" lon="4.97039">
        <ele>174</ele>
        <time>2011-04-24T08:44:10Z</time>
      </trkpt>
      <trkpt lat="45.80883" lon="4.97043">
        <ele>174</ele>
        <time>2011-04-24T08:44:11Z</time>
      </trkpt>
      <trkpt lat="45.80876" lon="4.9706">
        <ele>174.8</ele>
        <time>2011-04-24T08:44:16Z</time>
      </trkpt>
      <trkpt lat="45.80872" lon="4.97066">
        <ele>174.5</ele>
        <time>2011-04-24T08:44:18Z</time>
      </trkpt>
      <trkpt lat="45.80833" lon="4.97126">
        <ele>175</ele>
        <time>2011-04-24T08:44:39Z</time>
      </trkpt>
      <trkpt lat="45.80831" lon="4.97128">
        <ele>174.8</ele>
        <time>2011-04-24T08:44:40Z</time>
      </trkpt>
      <trkpt lat="45.80826" lon="4.97131">
        <ele>175</ele>
        <time>2011-04-24T08:44:42Z</time>
      </trkpt>
      <trkpt lat="45.80818" lon="4.97134">
        <ele>175</ele>
        <time>2011-04-24T08:44:45Z</time>
      </trkpt>
      <trkpt lat="45.80815" lon="4.97135">
        <ele>175.3</ele>
        <time>2011-04-24T08:44:46Z</time>
      </trkpt>
      <trkpt lat="45.80812" lon="4.97135">
        <ele>175.3</ele>
        <time>2011-04-24T08:44:47Z</time>
      </trkpt>
      <trkpt lat="45.80809" lon="4.97135">
        <ele>176</ele>
        <time>2011-04-24T08:44:48Z</time>
      </trkpt>
      <trkpt lat="45.80807" lon="4.97133">
        <ele>175.8</ele>
        <time>2011-04-24T08:44:49Z</time>
      </trkpt>
      <trkpt lat="45.80747" lon="4.97102">
        <ele>176.1</ele>
        <time>2011-04-24T08:45:11Z</time>
      </trkpt>
      <trkpt lat="45.80744" lon="4.97101">
        <ele>176.1</ele>
        <time>2011-04-24T08:45:12Z</time>
      </trkpt>
      <trkpt lat="45.80741" lon="4.971">
        <ele>175.5</ele>
        <time>2011-04-24T08:45:13Z</time>
      </trkpt>
      <trkpt lat="45.80736" lon="4.971">
        <ele>175</ele>
        <time>2011-04-24T08:45:15Z</time>
      </trkpt>
      <trkpt lat="45.80733" lon="4.971">
        <ele>175</ele>
        <time>2011-04-24T08:45:16Z</time>
      </trkpt>
      <trkpt lat="45.80731" lon="4.97102">
        <ele>174.6</ele>
        <time>2011-04-24T08:45:17Z</time>
      </trkpt>
      <trkpt lat="45.80727" lon="4.97104">
        <ele>173.5</ele>
        <time>2011-04-24T08:45:19Z</time>
      </trkpt>
      <trkpt lat="45.80724" lon="4.97107">
        <ele>173.5</ele>
        <time>2011-04-24T08:45:20Z</time>
      </trkpt>
      <trkpt lat="45.80718" lon="4.97116">
        <ele>174.8</ele>
        <time>2011-04-24T08:45:23Z</time>
      </trkpt>
      <trkpt lat="45.80715" lon="4.97123">
        <ele>173.5</ele>
        <time>2011-04-24T08:45:25Z</time>
      </trkpt>
      <trkpt lat="45.8071" lon="4.97136">
        <ele>170.6</ele>
        <time>2011-04-24T08:45:29Z</time>
      </trkpt>
      <trkpt lat="45.80659" lon="4.97246">
        <ele>170.6</ele>
        <time>2011-04-24T08:46:02Z</time>
      </trkpt>
      <trkpt lat="45.80657" lon="4.97249">
        <ele>170.6</ele>
        <time>2011-04-24T08:46:03Z</time>
      </trkpt>
      <trkpt lat="45.80655" lon="4.97251">
        <ele>170.5</ele>
        <time>2011-04-24T08:46:04Z</time>
      </trkpt>
      <trkpt lat="45.80641" lon="4.97264">
        <ele>169.3</ele>
        <time>2011-04-24T08:46:10Z</time>
      </trkpt>
      <trkpt lat="45.80636" lon="4.97267">
        <ele>169</ele>
        <time>2011-04-24T08:46:12Z</time>
      </trkpt>
      <trkpt lat="45.80626" lon="4.97275">
        <ele>169.3</ele>
        <time>2011-04-24T08:46:16Z</time>
      </trkpt>
      <trkpt lat="45.80623" lon="4.97276">
        <ele>169.3</ele>
        <time>2011-04-24T08:46:17Z</time>
      </trkpt>
      <trkpt lat="45.80615" lon="4.97279">
        <ele>169.8</ele>
        <time>2011-04-24T08:46:20Z</time>
      </trkpt>
      <trkpt lat="45.80604" lon="4.97281">
        <ele>169</ele>
        <time>2011-04-24T08:46:24Z</time>
      </trkpt>
      <trkpt lat="45.80598" lon="4.97281">
        <ele>168.8</ele>
        <time>2011-04-24T08:46:26Z</time>
      </trkpt>
      <trkpt lat="45.80595" lon="4.97279">
        <ele>168.8</ele>
        <time>2011-04-24T08:46:27Z</time>
      </trkpt>
      <trkpt lat="45.80562" lon="4.97261">
        <ele>172.8</ele>
        <time>2011-04-24T08:46:40Z</time>
      </trkpt>
      <trkpt lat="45.80421" lon="4.97183">
        <ele>172.6</ele>
        <time>2011-04-24T08:47:32Z</time>
      </trkpt>
      <trkpt lat="45.80418" lon="4.97182">
        <ele>172.6</ele>
        <time>2011-04-24T08:47:33Z</time>
      </trkpt>
      <trkpt lat="45.80409" lon="4.97177">
        <ele>171.3</ele>
        <time>2011-04-24T08:47:36Z</time>
      </trkpt>
      <trkpt lat="45.80406" lon="4.97175">
        <ele>171.3</ele>
        <time>2011-04-24T08:47:37Z</time>
      </trkpt>
      <trkpt lat="45.804" lon="4.9717">
        <ele>171.5</ele>
        <time>2011-04-24T08:47:39Z</time>
      </trkpt>
      <trkpt lat="45.80379" lon="4.97159">
        <ele>172.1</ele>
        <time>2011-04-24T08:47:46Z</time>
      </trkpt>
      <trkpt lat="45.80275" lon="4.97104">
        <ele>174.3</ele>
        <time>2011-04-24T08:48:24Z</time>
      </trkpt>
      <trkpt lat="45.80272" lon="4.97102">
        <ele>174.5</ele>
        <time>2011-04-24T08:48:25Z</time>
      </trkpt>
      <trkpt lat="45.80264" lon="4.97093">
        <ele>173.3</ele>
        <time>2011-04-24T08:48:29Z</time>
      </trkpt>
      <trkpt lat="45.80249" lon="4.97076">
        <ele>174.5</ele>
        <time>2011-04-24T08:48:36Z</time>
      </trkpt>
      <trkpt lat="45.80247" lon="4.97074">
        <ele>174.3</ele>
        <time>2011-04-24T08:48:37Z</time>
      </trkpt>
      <trkpt lat="45.80242" lon="4.97065">
        <ele>174.6</ele>
        <time>2011-04-24T08:48:40Z</time>
      </trkpt>
      <trkpt lat="45.8024" lon="4.97062">
        <ele>174.6</ele>
        <time>2011-04-24T08:48:41Z</time>
      </trkpt>
      <trkpt lat="45.80235" lon="4.97048">
        <ele>175</ele>
        <time>2011-04-24T08:48:45Z</time>
      </trkpt>
      <trkpt lat="45.80233" lon="4.97045">
        <ele>175</ele>
        <time>2011-04-24T08:48:46Z</time>
      </trkpt>
      <trkpt lat="45.80233" lon="4.97041">
        <ele>175.3</ele>
        <time>2011-04-24T08:48:47Z</time>
      </trkpt>
      <trkpt lat="45.80233" lon="4.97037">
        <ele>175.3</ele>
        <time>2011-04-24T08:48:48Z</time>
      </trkpt>
      <trkpt lat="45.80233" lon="4.97026">
        <ele>175.1</ele>
        <time>2011-04-24T08:48:51Z</time>
      </trkpt>
      <trkpt lat="45.80235" lon="4.97022">
        <ele>175.5</ele>
        <time>2011-04-24T08:48:52Z</time>
      </trkpt>
      <trkpt lat="45.80238" lon="4.97016">
        <ele>175.8</ele>
        <time>2011-04-24T08:48:54Z</time>
      </trkpt>
      <trkpt lat="45.8024" lon="4.97013">
        <ele>176.3</ele>
        <time>2011-04-24T08:48:55Z</time>
      </trkpt>
      <trkpt lat="45.80244" lon="4.97007">
        <ele>174.8</ele>
        <time>2011-04-24T08:48:57Z</time>
      </trkpt>
      <trkpt lat="45.80251" lon="4.96994">
        <ele>173.8</ele>
        <time>2011-04-24T08:49:01Z</time>
      </trkpt>
      <trkpt lat="45.80253" lon="4.96991">
        <ele>173.8</ele>
        <time>2011-04-24T08:49:02Z</time>
      </trkpt>
      <trkpt lat="45.80271" lon="4.9695">
        <ele>173</ele>
        <time>2011-04-24T08:49:13Z</time>
      </trkpt>
      <trkpt lat="45.80272" lon="4.96946">
        <ele>173</ele>
        <time>2011-04-24T08:49:14Z</time>
      </trkpt>
      <trkpt lat="45.80273" lon="4.96942">
        <ele>172.6</ele>
        <time>2011-04-24T08:49:15Z</time>
      </trkpt>
      <trkpt lat="45.80278" lon="4.96908">
        <ele>173.3</ele>
        <time>2011-04-24T08:49:23Z</time>
      </trkpt>
      <trkpt lat="45.80278" lon="4.96891">
        <ele>172.6</ele>
        <time>2011-04-24T08:49:27Z</time>
      </trkpt>
      <trkpt lat="45.80286" lon="4.96802">
        <ele>171.8</ele>
        <time>2011-04-24T08:49:49Z</time>
      </trkpt>
      <trkpt lat="45.80286" lon="4.96798">
        <ele>171.3</ele>
        <time>2011-04-24T08:49:50Z</time>
      </trkpt>
      <trkpt lat="45.80289" lon="4.9679">
        <ele>172</ele>
        <time>2011-04-24T08:49:52Z</time>
      </trkpt>
      <trkpt lat="45.8029" lon="4.96787">
        <ele>172.3</ele>
        <time>2011-04-24T08:49:53Z</time>
      </trkpt>
      <trkpt lat="45.80292" lon="4.96783">
        <ele>172.5</ele>
        <time>2011-04-24T08:49:54Z</time>
      </trkpt>
      <trkpt lat="45.80297" lon="4.96774">
        <ele>172.6</ele>
        <time>2011-04-24T08:49:57Z</time>
      </trkpt>
      <trkpt lat="45.80299" lon="4.96771">
        <ele>172.8</ele>
        <time>2011-04-24T08:49:58Z</time>
      </trkpt>
      <trkpt lat="45.80303" lon="4.96766">
        <ele>173.5</ele>
        <time>2011-04-24T08:50:00Z</time>
      </trkpt>
      <trkpt lat="45.80308" lon="4.96761">
        <ele>173.8</ele>
        <time>2011-04-24T08:50:02Z</time>
      </trkpt>
      <trkpt lat="45.80318" lon="4.96751">
        <ele>177.1</ele>
        <time>2011-04-24T08:50:06Z</time>
      </trkpt>
      <trkpt lat="45.80366" lon="4.96701">
        <ele>174.6</ele>
        <time>2011-04-24T08:50:27Z</time>
      </trkpt>
      <trkpt lat="45.80385" lon="4.96677">
        <ele>171.6</ele>
        <time>2011-04-24T08:50:36Z</time>
      </trkpt>
      <trkpt lat="45.80391" lon="4.96668">
        <ele>171.6</ele>
        <time>2011-04-24T08:50:39Z</time>
      </trkpt>
      <trkpt lat="45.80392" lon="4.96665">
        <ele>171.3</ele>
        <time>2011-04-24T08:50:40Z</time>
      </trkpt>
      <trkpt lat="45.80394" lon="4.96661">
        <ele>171.5</ele>
        <time>2011-04-24T08:50:41Z</time>
      </trkpt>
      <trkpt lat="45.80395" lon="4.96658">
        <ele>171.8</ele>
        <time>2011-04-24T08:50:42Z</time>
      </trkpt>
      <trkpt lat="45.80398" lon="4.9665">
        <ele>171.6</ele>
        <time>2011-04-24T08:50:44Z</time>
      </trkpt>
      <trkpt lat="45.80398" lon="4.96646">
        <ele>171.6</ele>
        <time>2011-04-24T08:50:45Z</time>
      </trkpt>
      <trkpt lat="45.804" lon="4.9663">
        <ele>171.8</ele>
        <time>2011-04-24T08:50:49Z</time>
      </trkpt>
      <trkpt lat="45.80405" lon="4.96594">
        <ele>172.8</ele>
        <time>2011-04-24T08:50:59Z</time>
      </trkpt>
      <trkpt lat="45.80406" lon="4.96591">
        <ele>172.8</ele>
        <time>2011-04-24T08:51:00Z</time>
      </trkpt>
      <trkpt lat="45.80407" lon="4.96588">
        <ele>173</ele>
        <time>2011-04-24T08:51:01Z</time>
      </trkpt>
      <trkpt lat="45.80407" lon="4.96584">
        <ele>173</ele>
        <time>2011-04-24T08:51:02Z</time>
      </trkpt>
      <trkpt lat="45.80408" lon="4.9658">
        <ele>172.6</ele>
        <time>2011-04-24T08:51:03Z</time>
      </trkpt>
      <trkpt lat="45.80409" lon="4.96564">
        <ele>171.6</ele>
        <time>2011-04-24T08:51:07Z</time>
      </trkpt>
      <trkpt lat="45.80408" lon="4.9656">
        <ele>171.6</ele>
        <time>2011-04-24T08:51:08Z</time>
      </trkpt>
      <trkpt lat="45.80407" lon="4.96556">
        <ele>172.1</ele>
        <time>2011-04-24T08:51:09Z</time>
      </trkpt>
      <trkpt lat="45.80405" lon="4.96553">
        <ele>172.1</ele>
        <time>2011-04-24T08:51:10Z</time>
      </trkpt>
      <trkpt lat="45.80403" lon="4.9655">
        <ele>171</ele>
        <time>2011-04-24T08:51:11Z</time>
      </trkpt>
      <trkpt lat="45.80391" lon="4.96528">
        <ele>173.8</ele>
        <time>2011-04-24T08:51:17Z</time>
      </trkpt>
      <trkpt lat="45.8039" lon="4.96524">
        <ele>173.8</ele>
        <time>2011-04-24T08:51:18Z</time>
      </trkpt>
      <trkpt lat="45.80386" lon="4.96513">
        <ele>173.5</ele>
        <time>2011-04-24T08:51:21Z</time>
      </trkpt>
      <trkpt lat="45.80377" lon="4.96492">
        <ele>173.8</ele>
        <time>2011-04-24T08:51:27Z</time>
      </trkpt>
      <trkpt lat="45.80374" lon="4.96485">
        <ele>173.3</ele>
        <time>2011-04-24T08:51:29Z</time>
      </trkpt>
      <trkpt lat="45.80371" lon="4.96482">
        <ele>173.3</ele>
        <time>2011-04-24T08:51:30Z</time>
      </trkpt>
      <trkpt lat="45.80335" lon="4.96416">
        <ele>173.6</ele>
        <time>2011-04-24T08:51:52Z</time>
      </trkpt>
      <trkpt lat="45.80333" lon="4.96414">
        <ele>174</ele>
        <time>2011-04-24T08:51:53Z</time>
      </trkpt>
      <trkpt lat="45.80331" lon="4.96412">
        <ele>174.3</ele>
        <time>2011-04-24T08:51:54Z</time>
      </trkpt>
      <trkpt lat="45.80329" lon="4.9641">
        <ele>174.3</ele>
        <time>2011-04-24T08:51:55Z</time>
      </trkpt>
      <trkpt lat="45.80301" lon="4.96388">
        <ele>175.3</ele>
        <time>2011-04-24T08:52:06Z</time>
      </trkpt>
      <trkpt lat="45.80298" lon="4.96387">
        <ele>175.3</ele>
        <time>2011-04-24T08:52:07Z</time>
      </trkpt>
      <trkpt lat="45.80275" lon="4.96375">
        <ele>176.3</ele>
        <time>2011-04-24T08:52:16Z</time>
      </trkpt>
      <trkpt lat="45.80272" lon="4.96373">
        <ele>176.3</ele>
        <time>2011-04-24T08:52:17Z</time>
      </trkpt>
      <trkpt lat="45.8027" lon="4.96372">
        <ele>177</ele>
        <time>2011-04-24T08:52:18Z</time>
      </trkpt>
      <trkpt lat="45.80254" lon="4.96366">
        <ele>176.6</ele>
        <time>2011-04-24T08:52:24Z</time>
      </trkpt>
      <trkpt lat="45.80252" lon="4.96363">
        <ele>176</ele>
        <time>2011-04-24T08:52:25Z</time>
      </trkpt>
      <trkpt lat="45.80249" lon="4.96358">
        <ele>174.5</ele>
        <time>2011-04-24T08:52:27Z</time>
      </trkpt>
      <trkpt lat="45.80235" lon="4.96335">
        <ele>174.1</ele>
        <time>2011-04-24T08:52:35Z</time>
      </trkpt>
      <trkpt lat="45.80232" lon="4.96333">
        <ele>174.8</ele>
        <time>2011-04-24T08:52:36Z</time>
      </trkpt>
      <trkpt lat="45.80227" lon="4.96328">
        <ele>174.3</ele>
        <time>2011-04-24T08:52:38Z</time>
      </trkpt>
      <trkpt lat="45.80195" lon="4.96288">
        <ele>172.1</ele>
        <time>2011-04-24T08:52:54Z</time>
      </trkpt>
      <trkpt lat="45.80193" lon="4.96285">
        <ele>171.6</ele>
        <time>2011-04-24T08:52:55Z</time>
      </trkpt>
      <trkpt lat="45.80191" lon="4.96282">
        <ele>171.1</ele>
        <time>2011-04-24T08:52:56Z</time>
      </trkpt>
      <trkpt lat="45.80189" lon="4.96279">
        <ele>170.1</ele>
        <time>2011-04-24T08:52:57Z</time>
      </trkpt>
      <trkpt lat="45.80176" lon="4.96261">
        <ele>171</ele>
        <time>2011-04-24T08:53:05Z</time>
      </trkpt>
      <trkpt lat="45.80174" lon="4.96258">
        <ele>172.1</ele>
        <time>2011-04-24T08:53:06Z</time>
      </trkpt>
      <trkpt lat="45.80173" lon="4.96253">
        <ele>173.8</ele>
        <time>2011-04-24T08:53:08Z</time>
      </trkpt>
      <trkpt lat="45.8017" lon="4.96252">
        <ele>173.5</ele>
        <time>2011-04-24T08:53:09Z</time>
      </trkpt>
      <trkpt lat="45.80169" lon="4.96249">
        <ele>173.3</ele>
        <time>2011-04-24T08:53:10Z</time>
      </trkpt>
      <trkpt lat="45.80166" lon="4.96248">
        <ele>174.5</ele>
        <time>2011-04-24T08:53:11Z</time>
      </trkpt>
      <trkpt lat="45.80165" lon="4.96244">
        <ele>175.6</ele>
        <time>2011-04-24T08:53:12Z</time>
      </trkpt>
      <trkpt lat="45.80163" lon="4.96242">
        <ele>176.1</ele>
        <time>2011-04-24T08:53:13Z</time>
      </trkpt>
      <trkpt lat="45.8016" lon="4.96239">
        <ele>176.1</ele>
        <time>2011-04-24T08:53:14Z</time>
      </trkpt>
      <trkpt lat="45.80158" lon="4.96236">
        <ele>175.5</ele>
        <time>2011-04-24T08:53:15Z</time>
      </trkpt>
      <trkpt lat="45.80154" lon="4.96223">
        <ele>175.6</ele>
        <time>2011-04-24T08:53:19Z</time>
      </trkpt>
      <trkpt lat="45.80154" lon="4.9622">
        <ele>175.6</ele>
        <time>2011-04-24T08:53:20Z</time>
      </trkpt>
      <trkpt lat="45.80156" lon="4.96214">
        <ele>176.3</ele>
        <time>2011-04-24T08:53:26Z</time>
      </trkpt>
      <trkpt lat="45.80156" lon="4.96217">
        <ele>176.8</ele>
        <time>2011-04-24T08:53:27Z</time>
      </trkpt>
      <trkpt lat="45.80158" lon="4.96219">
        <ele>175.6</ele>
        <time>2011-04-24T08:53:28Z</time>
      </trkpt>
      <trkpt lat="45.80157" lon="4.96223">
        <ele>175.6</ele>
        <time>2011-04-24T08:53:29Z</time>
      </trkpt>
      <trkpt lat="45.80157" lon="4.96226">
        <ele>175.6</ele>
        <time>2011-04-24T08:53:30Z</time>
      </trkpt>
      <trkpt lat="45.80159" lon="4.9623">
        <ele>175.6</ele>
        <time>2011-04-24T08:53:31Z</time>
      </trkpt>
      <trkpt lat="45.80158" lon="4.96234">
        <ele>175.6</ele>
        <time>2011-04-24T08:53:32Z</time>
      </trkpt>
      <trkpt lat="45.80157" lon="4.96241">
        <ele>174.6</ele>
        <time>2011-04-24T08:53:34Z</time>
      </trkpt>
      <trkpt lat="45.80155" lon="4.96243">
        <ele>174.6</ele>
        <time>2011-04-24T08:53:35Z</time>
      </trkpt>
      <trkpt lat="45.80151" lon="4.96246">
        <ele>175.3</ele>
        <time>2011-04-24T08:53:37Z</time>
      </trkpt>
      <trkpt lat="45.80138" lon="4.96259">
        <ele>177.8</ele>
        <time>2011-04-24T08:53:44Z</time>
      </trkpt>
      <trkpt lat="45.80133" lon="4.96266">
        <ele>178.3</ele>
        <time>2011-04-24T08:53:52Z</time>
      </trkpt>
      <trkpt lat="45.80133" lon="4.96267">
        <ele>178.3</ele>
        <time>2011-04-24T08:53:53Z</time>
      </trkpt>
      <trkpt lat="45.80123" lon="4.96259">
        <ele>174.8</ele>
        <time>2011-04-24T08:54:08Z</time>
      </trkpt>
      <trkpt lat="45.80123" lon="4.96257">
        <ele>174.8</ele>
        <time>2011-04-24T08:54:09Z</time>
      </trkpt>
      <trkpt lat="45.80123" lon="4.96257">
        <ele>174.6</ele>
        <time>2011-04-24T08:54:10Z</time>
      </trkpt>
      <trkpt lat="45.80123" lon="4.96256">
        <ele>174.6</ele>
        <time>2011-04-24T08:54:11Z</time>
      </trkpt>
      <trkpt lat="45.8012" lon="4.9625">
        <ele>177.5</ele>
        <time>2011-04-24T08:54:15Z</time>
      </trkpt>
      <trkpt lat="45.80117" lon="4.96243">
        <ele>178.1</ele>
        <time>2011-04-24T08:54:18Z</time>
      </trkpt>
      <trkpt lat="45.80117" lon="4.96239">
        <ele>177.1</ele>
        <time>2011-04-24T08:54:19Z</time>
      </trkpt>
      <trkpt lat="45.80116" lon="4.96231">
        <ele>175.5</ele>
        <time>2011-04-24T08:54:21Z</time>
      </trkpt>
      <trkpt lat="45.80115" lon="4.96229">
        <ele>174.6</ele>
        <time>2011-04-24T08:54:22Z</time>
      </trkpt>
      <trkpt lat="45.80113" lon="4.96226">
        <ele>175.1</ele>
        <time>2011-04-24T08:54:23Z</time>
      </trkpt>
      <trkpt lat="45.8011" lon="4.96222">
        <ele>175</ele>
        <time>2011-04-24T08:54:25Z</time>
      </trkpt>
      <trkpt lat="45.80108" lon="4.96222">
        <ele>175.3</ele>
        <time>2011-04-24T08:54:26Z</time>
      </trkpt>
      <trkpt lat="45.80106" lon="4.96221">
        <ele>176.5</ele>
        <time>2011-04-24T08:54:27Z</time>
      </trkpt>
      <trkpt lat="45.80104" lon="4.9622">
        <ele>177.1</ele>
        <time>2011-04-24T08:54:28Z</time>
      </trkpt>
      <trkpt lat="45.80101" lon="4.96218">
        <ele>178</ele>
        <time>2011-04-24T08:54:29Z</time>
      </trkpt>
      <trkpt lat="45.80096" lon="4.96215">
        <ele>181.1</ele>
        <time>2011-04-24T08:54:31Z</time>
      </trkpt>
      <trkpt lat="45.80093" lon="4.96215">
        <ele>182.3</ele>
        <time>2011-04-24T08:54:32Z</time>
      </trkpt>
      <trkpt lat="45.8009" lon="4.96215">
        <ele>183.5</ele>
        <time>2011-04-24T08:54:33Z</time>
      </trkpt>
      <trkpt lat="45.80087" lon="4.96213">
        <ele>183.1</ele>
        <time>2011-04-24T08:54:34Z</time>
      </trkpt>
      <trkpt lat="45.80084" lon="4.96211">
        <ele>182</ele>
        <time>2011-04-24T08:54:35Z</time>
      </trkpt>
      <trkpt lat="45.80078" lon="4.96205">
        <ele>182.6</ele>
        <time>2011-04-24T08:54:37Z</time>
      </trkpt>
      <trkpt lat="45.80067" lon="4.9619">
        <ele>178.1</ele>
        <time>2011-04-24T08:54:43Z</time>
      </trkpt>
      <trkpt lat="45.80065" lon="4.96188">
        <ele>178.1</ele>
        <time>2011-04-24T08:54:44Z</time>
      </trkpt>
      <trkpt lat="45.80057" lon="4.96181">
        <ele>178</ele>
        <time>2011-04-24T08:54:47Z</time>
      </trkpt>
      <trkpt lat="45.80054" lon="4.96178">
        <ele>178</ele>
        <time>2011-04-24T08:54:48Z</time>
      </trkpt>
      <trkpt lat="45.80048" lon="4.96166">
        <ele>171.3</ele>
        <time>2011-04-24T08:54:52Z</time>
      </trkpt>
      <trkpt lat="45.80048" lon="4.96165">
        <ele>166.8</ele>
        <time>2011-04-24T08:54:53Z</time>
      </trkpt>
      <trkpt lat="45.80046" lon="4.96163">
        <ele>166.8</ele>
        <time>2011-04-24T08:54:54Z</time>
      </trkpt>
      <trkpt lat="45.80038" lon="4.96154">
        <ele>172</ele>
        <time>2011-04-24T08:54:57Z</time>
      </trkpt>
      <trkpt lat="45.80036" lon="4.96151">
        <ele>172</ele>
        <time>2011-04-24T08:54:58Z</time>
      </trkpt>
      <trkpt lat="45.80029" lon="4.9614">
        <ele>175.1</ele>
        <time>2011-04-24T08:55:01Z</time>
      </trkpt>
      <trkpt lat="45.80028" lon="4.96136">
        <ele>174.1</ele>
        <time>2011-04-24T08:55:02Z</time>
      </trkpt>
      <trkpt lat="45.80028" lon="4.96125">
        <ele>171.8</ele>
        <time>2011-04-24T08:55:05Z</time>
      </trkpt>
      <trkpt lat="45.80027" lon="4.96121">
        <ele>171.3</ele>
        <time>2011-04-24T08:55:06Z</time>
      </trkpt>
      <trkpt lat="45.80024" lon="4.96119">
        <ele>171.3</ele>
        <time>2011-04-24T08:55:07Z</time>
      </trkpt>
      <trkpt lat="45.80005" lon="4.96095">
        <ele>170.8</ele>
        <time>2011-04-24T08:55:15Z</time>
      </trkpt>
      <trkpt lat="45.80003" lon="4.96095">
        <ele>170.3</ele>
        <time>2011-04-24T08:55:16Z</time>
      </trkpt>
      <trkpt lat="45.8" lon="4.96094">
        <ele>170.6</ele>
        <time>2011-04-24T08:55:17Z</time>
      </trkpt>
      <trkpt lat="45.79992" lon="4.96093">
        <ele>171.8</ele>
        <time>2011-04-24T08:55:20Z</time>
      </trkpt>
      <trkpt lat="45.79989" lon="4.96094">
        <ele>172.6</ele>
        <time>2011-04-24T08:55:21Z</time>
      </trkpt>
      <trkpt lat="45.79987" lon="4.96096">
        <ele>172.5</ele>
        <time>2011-04-24T08:55:22Z</time>
      </trkpt>
      <trkpt lat="45.79971" lon="4.96108">
        <ele>169.6</ele>
        <time>2011-04-24T08:55:29Z</time>
      </trkpt>
      <trkpt lat="45.79969" lon="4.96108">
        <ele>169.5</ele>
        <time>2011-04-24T08:55:30Z</time>
      </trkpt>
      <trkpt lat="45.79967" lon="4.96107">
        <ele>169.3</ele>
        <time>2011-04-24T08:55:31Z</time>
      </trkpt>
      <trkpt lat="45.79958" lon="4.96104">
        <ele>170.8</ele>
        <time>2011-04-24T08:55:34Z</time>
      </trkpt>
      <trkpt lat="45.79953" lon="4.96102">
        <ele>171.1</ele>
        <time>2011-04-24T08:55:36Z</time>
      </trkpt>
      <trkpt lat="45.79943" lon="4.96097">
        <ele>170.8</ele>
        <time>2011-04-24T08:55:40Z</time>
      </trkpt>
      <trkpt lat="45.79925" lon="4.96088">
        <ele>175</ele>
        <time>2011-04-24T08:55:46Z</time>
      </trkpt>
      <trkpt lat="45.79923" lon="4.96086">
        <ele>175</ele>
        <time>2011-04-24T08:55:47Z</time>
      </trkpt>
      <trkpt lat="45.79916" lon="4.9608">
        <ele>175</ele>
        <time>2011-04-24T08:55:50Z</time>
      </trkpt>
      <trkpt lat="45.79913" lon="4.96079">
        <ele>175</ele>
        <time>2011-04-24T08:55:51Z</time>
      </trkpt>
      <trkpt lat="45.7991" lon="4.96079">
        <ele>175.3</ele>
        <time>2011-04-24T08:55:52Z</time>
      </trkpt>
      <trkpt lat="45.79908" lon="4.96079">
        <ele>175.3</ele>
        <time>2011-04-24T08:55:53Z</time>
      </trkpt>
      <trkpt lat="45.79905" lon="4.96079">
        <ele>174.3</ele>
        <time>2011-04-24T08:55:54Z</time>
      </trkpt>
      <trkpt lat="45.79903" lon="4.9608">
        <ele>174.3</ele>
        <time>2011-04-24T08:55:55Z</time>
      </trkpt>
      <trkpt lat="45.79901" lon="4.96081">
        <ele>172.8</ele>
        <time>2011-04-24T08:55:56Z</time>
      </trkpt>
      <trkpt lat="45.79899" lon="4.96083">
        <ele>172.8</ele>
        <time>2011-04-24T08:55:57Z</time>
      </trkpt>
      <trkpt lat="45.79897" lon="4.96083">
        <ele>171.6</ele>
        <time>2011-04-24T08:55:58Z</time>
      </trkpt>
      <trkpt lat="45.79894" lon="4.96084">
        <ele>171.8</ele>
        <time>2011-04-24T08:55:59Z</time>
      </trkpt>
      <trkpt lat="45.79887" lon="4.96086">
        <ele>171.1</ele>
        <time>2011-04-24T08:56:02Z</time>
      </trkpt>
      <trkpt lat="45.79868" lon="4.96097">
        <ele>183.6</ele>
        <time>2011-04-24T08:56:07Z</time>
      </trkpt>
      <trkpt lat="45.79866" lon="4.96095">
        <ele>183.8</ele>
        <time>2011-04-24T08:56:08Z</time>
      </trkpt>
      <trkpt lat="45.79864" lon="4.96095">
        <ele>183.8</ele>
        <time>2011-04-24T08:56:09Z</time>
      </trkpt>
      <trkpt lat="45.79861" lon="4.96095">
        <ele>184.1</ele>
        <time>2011-04-24T08:56:10Z</time>
      </trkpt>
      <trkpt lat="45.79859" lon="4.96095">
        <ele>185.1</ele>
        <time>2011-04-24T08:56:11Z</time>
      </trkpt>
      <trkpt lat="45.79856" lon="4.96094">
        <ele>185.6</ele>
        <time>2011-04-24T08:56:12Z</time>
      </trkpt>
      <trkpt lat="45.79854" lon="4.96092">
        <ele>186</ele>
        <time>2011-04-24T08:56:13Z</time>
      </trkpt>
      <trkpt lat="45.79852" lon="4.96087">
        <ele>184.8</ele>
        <time>2011-04-24T08:56:14Z</time>
      </trkpt>
      <trkpt lat="45.79852" lon="4.96081">
        <ele>184.1</ele>
        <time>2011-04-24T08:56:15Z</time>
      </trkpt>
      <trkpt lat="45.79852" lon="4.96076">
        <ele>183.3</ele>
        <time>2011-04-24T08:56:16Z</time>
      </trkpt>
      <trkpt lat="45.79852" lon="4.9607">
        <ele>181.8</ele>
        <time>2011-04-24T08:56:17Z</time>
      </trkpt>
      <trkpt lat="45.7985" lon="4.96057">
        <ele>178.8</ele>
        <time>2011-04-24T08:56:20Z</time>
      </trkpt>
      <trkpt lat="45.79848" lon="4.96055">
        <ele>178.5</ele>
        <time>2011-04-24T08:56:21Z</time>
      </trkpt>
      <trkpt lat="45.79846" lon="4.96055">
        <ele>178.5</ele>
        <time>2011-04-24T08:56:22Z</time>
      </trkpt>
      <trkpt lat="45.79841" lon="4.96056">
        <ele>177.8</ele>
        <time>2011-04-24T08:56:24Z</time>
      </trkpt>
      <trkpt lat="45.79835" lon="4.96058">
        <ele>176.1</ele>
        <time>2011-04-24T08:56:26Z</time>
      </trkpt>
      <trkpt lat="45.79833" lon="4.96058">
        <ele>176.1</ele>
        <time>2011-04-24T08:56:27Z</time>
      </trkpt>
      <trkpt lat="45.7983" lon="4.96057">
        <ele>177.6</ele>
        <time>2011-04-24T08:56:28Z</time>
      </trkpt>
      <trkpt lat="45.79812" lon="4.96055">
        <ele>179.1</ele>
        <time>2011-04-24T08:56:35Z</time>
      </trkpt>
      <trkpt lat="45.79809" lon="4.96054">
        <ele>179.1</ele>
        <time>2011-04-24T08:56:36Z</time>
      </trkpt>
      <trkpt lat="45.79807" lon="4.96054">
        <ele>179.3</ele>
        <time>2011-04-24T08:56:37Z</time>
      </trkpt>
      <trkpt lat="45.79805" lon="4.96055">
        <ele>179.6</ele>
        <time>2011-04-24T08:56:38Z</time>
      </trkpt>
      <trkpt lat="45.79799" lon="4.96059">
        <ele>180.1</ele>
        <time>2011-04-24T08:56:41Z</time>
      </trkpt>
      <trkpt lat="45.79796" lon="4.9606">
        <ele>180.1</ele>
        <time>2011-04-24T08:56:42Z</time>
      </trkpt>
      <trkpt lat="45.7979" lon="4.9606">
        <ele>179.8</ele>
        <time>2011-04-24T08:56:45Z</time>
      </trkpt>
      <trkpt lat="45.79788" lon="4.96058">
        <ele>179.8</ele>
        <time>2011-04-24T08:56:46Z</time>
      </trkpt>
      <trkpt lat="45.79785" lon="4.96055">
        <ele>179.3</ele>
        <time>2011-04-24T08:56:47Z</time>
      </trkpt>
      <trkpt lat="45.79781" lon="4.96049">
        <ele>177.6</ele>
        <time>2011-04-24T08:56:49Z</time>
      </trkpt>
      <trkpt lat="45.79778" lon="4.96048">
        <ele>176.8</ele>
        <time>2011-04-24T08:56:50Z</time>
      </trkpt>
      <trkpt lat="45.79775" lon="4.96049">
        <ele>176.6</ele>
        <time>2011-04-24T08:56:51Z</time>
      </trkpt>
      <trkpt lat="45.7977" lon="4.9605">
        <ele>176.8</ele>
        <time>2011-04-24T08:56:53Z</time>
      </trkpt>
      <trkpt lat="45.79769" lon="4.96052">
        <ele>176.8</ele>
        <time>2011-04-24T08:56:54Z</time>
      </trkpt>
      <trkpt lat="45.79765" lon="4.96054">
        <ele>179.6</ele>
        <time>2011-04-24T08:56:56Z</time>
      </trkpt>
      <trkpt lat="45.79764" lon="4.96055">
        <ele>179.6</ele>
        <time>2011-04-24T08:56:57Z</time>
      </trkpt>
      <trkpt lat="45.79764" lon="4.96056">
        <ele>178.6</ele>
        <time>2011-04-24T08:56:58Z</time>
      </trkpt>
      <trkpt lat="45.79764" lon="4.96057">
        <ele>178.3</ele>
        <time>2011-04-24T08:56:59Z</time>
      </trkpt>
      <trkpt lat="45.79763" lon="4.96061">
        <ele>177.5</ele>
        <time>2011-04-24T08:57:01Z</time>
      </trkpt>
      <trkpt lat="45.79763" lon="4.96063">
        <ele>177</ele>
        <time>2011-04-24T08:57:02Z</time>
      </trkpt>
      <trkpt lat="45.79763" lon="4.96065">
        <ele>176.6</ele>
        <time>2011-04-24T08:57:03Z</time>
      </trkpt>
      <trkpt lat="45.79761" lon="4.96067">
        <ele>177.1</ele>
        <time>2011-04-24T08:57:04Z</time>
      </trkpt>
      <trkpt lat="45.79759" lon="4.96069">
        <ele>178.1</ele>
        <time>2011-04-24T08:57:05Z</time>
      </trkpt>
      <trkpt lat="45.7976" lon="4.96071">
        <ele>178.6</ele>
        <time>2011-04-24T08:57:06Z</time>
      </trkpt>
      <trkpt lat="45.79759" lon="4.96073">
        <ele>177.8</ele>
        <time>2011-04-24T08:57:07Z</time>
      </trkpt>
      <trkpt lat="45.7976" lon="4.96075">
        <ele>177.6</ele>
        <time>2011-04-24T08:57:08Z</time>
      </trkpt>
      <trkpt lat="45.79759" lon="4.96077">
        <ele>177.8</ele>
        <time>2011-04-24T08:57:09Z</time>
      </trkpt>
      <trkpt lat="45.79757" lon="4.9608">
        <ele>178.3</ele>
        <time>2011-04-24T08:57:10Z</time>
      </trkpt>
      <trkpt lat="45.79756" lon="4.96081">
        <ele>178.6</ele>
        <time>2011-04-24T08:57:11Z</time>
      </trkpt>
      <trkpt lat="45.79756" lon="4.96082">
        <ele>177.8</ele>
        <time>2011-04-24T08:57:12Z</time>
      </trkpt>
      <trkpt lat="45.79755" lon="4.96084">
        <ele>177.1</ele>
        <time>2011-04-24T08:57:13Z</time>
      </trkpt>
      <trkpt lat="45.79755" lon="4.96086">
        <ele>177.6</ele>
        <time>2011-04-24T08:57:14Z</time>
      </trkpt>
      <trkpt lat="45.79755" lon="4.96092">
        <ele>178.6</ele>
        <time>2011-04-24T08:57:18Z</time>
      </trkpt>
      <trkpt lat="45.79754" lon="4.96093">
        <ele>178.8</ele>
        <time>2011-04-24T08:57:19Z</time>
      </trkpt>
      <trkpt lat="45.79746" lon="4.96108">
        <ele>180.5</ele>
        <time>2011-04-24T08:57:31Z</time>
      </trkpt>
      <trkpt lat="45.79745" lon="4.9611">
        <ele>180.6</ele>
        <time>2011-04-24T08:57:32Z</time>
      </trkpt>
      <trkpt lat="45.79745" lon="4.96116">
        <ele>180</ele>
        <time>2011-04-24T08:57:36Z</time>
      </trkpt>
      <trkpt lat="45.79747" lon="4.96118">
        <ele>179.8</ele>
        <time>2011-04-24T08:57:37Z</time>
      </trkpt>
      <trkpt lat="45.79747" lon="4.9612">
        <ele>180</ele>
        <time>2011-04-24T08:57:38Z</time>
      </trkpt>
      <trkpt lat="45.79747" lon="4.96121">
        <ele>178.6</ele>
        <time>2011-04-24T08:57:39Z</time>
      </trkpt>
      <trkpt lat="45.79747" lon="4.96122">
        <ele>176.6</ele>
        <time>2011-04-24T08:57:40Z</time>
      </trkpt>
      <trkpt lat="45.79748" lon="4.96123">
        <ele>175.8</ele>
        <time>2011-04-24T08:57:41Z</time>
      </trkpt>
      <trkpt lat="45.79747" lon="4.96124">
        <ele>176.6</ele>
        <time>2011-04-24T08:57:42Z</time>
      </trkpt>
      <trkpt lat="45.7974" lon="4.9613">
        <ele>176.8</ele>
        <time>2011-04-24T08:57:46Z</time>
      </trkpt>
      <trkpt lat="45.79738" lon="4.96131">
        <ele>178</ele>
        <time>2011-04-24T08:57:47Z</time>
      </trkpt>
      <trkpt lat="45.79738" lon="4.96133">
        <ele>177.8</ele>
        <time>2011-04-24T08:57:48Z</time>
      </trkpt>
      <trkpt lat="45.79736" lon="4.96135">
        <ele>177.8</ele>
        <time>2011-04-24T08:57:49Z</time>
      </trkpt>
      <trkpt lat="45.79732" lon="4.96141">
        <ele>181.8</ele>
        <time>2011-04-24T08:57:51Z</time>
      </trkpt>
      <trkpt lat="45.7973" lon="4.96143">
        <ele>183.6</ele>
        <time>2011-04-24T08:57:52Z</time>
      </trkpt>
      <trkpt lat="45.7973" lon="4.96144">
        <ele>183.6</ele>
        <time>2011-04-24T08:57:53Z</time>
      </trkpt>
      <trkpt lat="45.79731" lon="4.96149">
        <ele>186.5</ele>
        <time>2011-04-24T08:57:56Z</time>
      </trkpt>
      <trkpt lat="45.79731" lon="4.9615">
        <ele>186.5</ele>
        <time>2011-04-24T08:57:57Z</time>
      </trkpt>
      <trkpt lat="45.79731" lon="4.96151">
        <ele>187.1</ele>
        <time>2011-04-24T08:57:58Z</time>
      </trkpt>
      <trkpt lat="45.79731" lon="4.96153">
        <ele>187.1</ele>
        <time>2011-04-24T08:57:59Z</time>
      </trkpt>
      <trkpt lat="45.79731" lon="4.96154">
        <ele>187.5</ele>
        <time>2011-04-24T08:58:00Z</time>
      </trkpt>
      <trkpt lat="45.79732" lon="4.96156">
        <ele>187.5</ele>
        <time>2011-04-24T08:58:01Z</time>
      </trkpt>
      <trkpt lat="45.79731" lon="4.96157">
        <ele>187</ele>
        <time>2011-04-24T08:58:02Z</time>
      </trkpt>
      <trkpt lat="45.79731" lon="4.96158">
        <ele>187</ele>
        <time>2011-04-24T08:58:03Z</time>
      </trkpt>
      <trkpt lat="45.79731" lon="4.9616">
        <ele>185.6</ele>
        <time>2011-04-24T08:58:04Z</time>
      </trkpt>
      <trkpt lat="45.7973" lon="4.96161">
        <ele>185.6</ele>
        <time>2011-04-24T08:58:05Z</time>
      </trkpt>
      <trkpt lat="45.79732" lon="4.96168">
        <ele>181.1</ele>
        <time>2011-04-24T08:58:12Z</time>
      </trkpt>
      <trkpt lat="45.79732" lon="4.9617">
        <ele>181.1</ele>
        <time>2011-04-24T08:58:13Z</time>
      </trkpt>
      <trkpt lat="45.79732" lon="4.9617">
        <ele>179.5</ele>
        <time>2011-04-24T08:58:14Z</time>
      </trkpt>
      <trkpt lat="45.79732" lon="4.96172">
        <ele>178</ele>
        <time>2011-04-24T08:58:15Z</time>
      </trkpt>
      <trkpt lat="45.79732" lon="4.96174">
        <ele>177.5</ele>
        <time>2011-04-24T08:58:16Z</time>
      </trkpt>
      <trkpt lat="45.79731" lon="4.96183">
        <ele>177.6</ele>
        <time>2011-04-24T08:58:19Z</time>
      </trkpt>
      <trkpt lat="45.7973" lon="4.96185">
        <ele>177.3</ele>
        <time>2011-04-24T08:58:20Z</time>
      </trkpt>
      <trkpt lat="45.7973" lon="4.96231">
        <ele>176.1</ele>
        <time>2011-04-24T08:58:36Z</time>
      </trkpt>
      <trkpt lat="45.79735" lon="4.96245">
        <ele>175.8</ele>
        <time>2011-04-24T08:58:40Z</time>
      </trkpt>
      <trkpt lat="45.79735" lon="4.9625">
        <ele>175.5</ele>
        <time>2011-04-24T08:58:41Z</time>
      </trkpt>
      <trkpt lat="45.79737" lon="4.96261">
        <ele>176</ele>
        <time>2011-04-24T08:58:44Z</time>
      </trkpt>
      <trkpt lat="45.79737" lon="4.96265">
        <ele>176.1</ele>
        <time>2011-04-24T08:58:45Z</time>
      </trkpt>
      <trkpt lat="45.79737" lon="4.96279">
        <ele>174.8</ele>
        <time>2011-04-24T08:58:49Z</time>
      </trkpt>
      <trkpt lat="45.79735" lon="4.96323">
        <ele>173.6</ele>
        <time>2011-04-24T08:58:59Z</time>
      </trkpt>
      <trkpt lat="45.7973" lon="4.96355">
        <ele>172.1</ele>
        <time>2011-04-24T08:59:08Z</time>
      </trkpt>
      <trkpt lat="45.79727" lon="4.96374">
        <ele>173.1</ele>
        <time>2011-04-24T08:59:13Z</time>
      </trkpt>
      <trkpt lat="45.79706" lon="4.96466">
        <ele>174</ele>
        <time>2011-04-24T08:59:37Z</time>
      </trkpt>
      <trkpt lat="45.79705" lon="4.9647">
        <ele>173.8</ele>
        <time>2011-04-24T08:59:38Z</time>
      </trkpt>
      <trkpt lat="45.79705" lon="4.96474">
        <ele>173.5</ele>
        <time>2011-04-24T08:59:39Z</time>
      </trkpt>
      <trkpt lat="45.79704" lon="4.96478">
        <ele>173.8</ele>
        <time>2011-04-24T08:59:40Z</time>
      </trkpt>
      <trkpt lat="45.79705" lon="4.9648">
        <ele>173.6</ele>
        <time>2011-04-24T08:59:41Z</time>
      </trkpt>
      <trkpt lat="45.79707" lon="4.96485">
        <ele>174.1</ele>
        <time>2011-04-24T08:59:44Z</time>
      </trkpt>
      <trkpt lat="45.79706" lon="4.96489">
        <ele>173.8</ele>
        <time>2011-04-24T08:59:45Z</time>
      </trkpt>
      <trkpt lat="45.79705" lon="4.96495">
        <ele>173.3</ele>
        <time>2011-04-24T08:59:47Z</time>
      </trkpt>
      <trkpt lat="45.79704" lon="4.96506">
        <ele>170.3</ele>
        <time>2011-04-24T08:59:50Z</time>
      </trkpt>
      <trkpt lat="45.79704" lon="4.9651">
        <ele>170.3</ele>
        <time>2011-04-24T08:59:51Z</time>
      </trkpt>
      <trkpt lat="45.79703" lon="4.96513">
        <ele>170.8</ele>
        <time>2011-04-24T08:59:52Z</time>
      </trkpt>
      <trkpt lat="45.79701" lon="4.9652">
        <ele>170.6</ele>
        <time>2011-04-24T08:59:54Z</time>
      </trkpt>
      <trkpt lat="45.79697" lon="4.96533">
        <ele>173</ele>
        <time>2011-04-24T08:59:57Z</time>
      </trkpt>
      <trkpt lat="45.79696" lon="4.96537">
        <ele>173.6</ele>
        <time>2011-04-24T08:59:58Z</time>
      </trkpt>
      <trkpt lat="45.79694" lon="4.96542">
        <ele>174.3</ele>
        <time>2011-04-24T08:59:59Z</time>
      </trkpt>
      <trkpt lat="45.79693" lon="4.96551">
        <ele>176.1</ele>
        <time>2011-04-24T09:00:02Z</time>
      </trkpt>
      <trkpt lat="45.79692" lon="4.96554">
        <ele>175.6</ele>
        <time>2011-04-24T09:00:03Z</time>
      </trkpt>
      <trkpt lat="45.79691" lon="4.96562">
        <ele>176.5</ele>
        <time>2011-04-24T09:00:05Z</time>
      </trkpt>
      <trkpt lat="45.79691" lon="4.96571">
        <ele>176.3</ele>
        <time>2011-04-24T09:00:08Z</time>
      </trkpt>
      <trkpt lat="45.79691" lon="4.96585">
        <ele>176.3</ele>
        <time>2011-04-24T09:00:12Z</time>
      </trkpt>
      <trkpt lat="45.79691" lon="4.96589">
        <ele>177</ele>
        <time>2011-04-24T09:00:13Z</time>
      </trkpt>
      <trkpt lat="45.7969" lon="4.96593">
        <ele>177.5</ele>
        <time>2011-04-24T09:00:14Z</time>
      </trkpt>
      <trkpt lat="45.79687" lon="4.96604">
        <ele>178</ele>
        <time>2011-04-24T09:00:17Z</time>
      </trkpt>
      <trkpt lat="45.79686" lon="4.96609">
        <ele>178.1</ele>
        <time>2011-04-24T09:00:18Z</time>
      </trkpt>
      <trkpt lat="45.79687" lon="4.96613">
        <ele>177.6</ele>
        <time>2011-04-24T09:00:19Z</time>
      </trkpt>
      <trkpt lat="45.79686" lon="4.96625">
        <ele>178.3</ele>
        <time>2011-04-24T09:00:22Z</time>
      </trkpt>
      <trkpt lat="45.79686" lon="4.96629">
        <ele>178.8</ele>
        <time>2011-04-24T09:00:23Z</time>
      </trkpt>
      <trkpt lat="45.79685" lon="4.96632">
        <ele>177.8</ele>
        <time>2011-04-24T09:00:24Z</time>
      </trkpt>
      <trkpt lat="45.79683" lon="4.9665">
        <ele>177.3</ele>
        <time>2011-04-24T09:00:28Z</time>
      </trkpt>
      <trkpt lat="45.7968" lon="4.96669">
        <ele>176.6</ele>
        <time>2011-04-24T09:00:33Z</time>
      </trkpt>
      <trkpt lat="45.79678" lon="4.96689">
        <ele>176.6</ele>
        <time>2011-04-24T09:00:38Z</time>
      </trkpt>
      <trkpt lat="45.79677" lon="4.96693">
        <ele>176.6</ele>
        <time>2011-04-24T09:00:39Z</time>
      </trkpt>
      <trkpt lat="45.79666" lon="4.96736">
        <ele>178.3</ele>
        <time>2011-04-24T09:00:50Z</time>
      </trkpt>
      <trkpt lat="45.79666" lon="4.96749">
        <ele>177.3</ele>
        <time>2011-04-24T09:00:53Z</time>
      </trkpt>
      <trkpt lat="45.79666" lon="4.96753">
        <ele>177.3</ele>
        <time>2011-04-24T09:00:54Z</time>
      </trkpt>
      <trkpt lat="45.79665" lon="4.96758">
        <ele>177.3</ele>
        <time>2011-04-24T09:00:55Z</time>
      </trkpt>
      <trkpt lat="45.79663" lon="4.96769">
        <ele>176.6</ele>
        <time>2011-04-24T09:00:58Z</time>
      </trkpt>
      <trkpt lat="45.79662" lon="4.96773">
        <ele>175.6</ele>
        <time>2011-04-24T09:00:59Z</time>
      </trkpt>
      <trkpt lat="45.7966" lon="4.96781">
        <ele>176.8</ele>
        <time>2011-04-24T09:01:01Z</time>
      </trkpt>
      <trkpt lat="45.7966" lon="4.96785">
        <ele>177.8</ele>
        <time>2011-04-24T09:01:02Z</time>
      </trkpt>
      <trkpt lat="45.79661" lon="4.96793">
        <ele>178.3</ele>
        <time>2011-04-24T09:01:04Z</time>
      </trkpt>
      <trkpt lat="45.79664" lon="4.96818">
        <ele>180</ele>
        <time>2011-04-24T09:01:10Z</time>
      </trkpt>
      <trkpt lat="45.79664" lon="4.96823">
        <ele>180</ele>
        <time>2011-04-24T09:01:11Z</time>
      </trkpt>
      <trkpt lat="45.79664" lon="4.96828">
        <ele>180.1</ele>
        <time>2011-04-24T09:01:12Z</time>
      </trkpt>
      <trkpt lat="45.79664" lon="4.96833">
        <ele>179.6</ele>
        <time>2011-04-24T09:01:13Z</time>
      </trkpt>
      <trkpt lat="45.79664" lon="4.96848">
        <ele>177.3</ele>
        <time>2011-04-24T09:01:17Z</time>
      </trkpt>
      <trkpt lat="45.79664" lon="4.96853">
        <ele>177.3</ele>
        <time>2011-04-24T09:01:18Z</time>
      </trkpt>
      <trkpt lat="45.79663" lon="4.96857">
        <ele>177.5</ele>
        <time>2011-04-24T09:01:19Z</time>
      </trkpt>
      <trkpt lat="45.7966" lon="4.96864">
        <ele>178</ele>
        <time>2011-04-24T09:01:21Z</time>
      </trkpt>
      <trkpt lat="45.7966" lon="4.96868">
        <ele>178</ele>
        <time>2011-04-24T09:01:22Z</time>
      </trkpt>
      <trkpt lat="45.79654" lon="4.96898">
        <ele>181.6</ele>
        <time>2011-04-24T09:01:29Z</time>
      </trkpt>
      <trkpt lat="45.79652" lon="4.96906">
        <ele>181.5</ele>
        <time>2011-04-24T09:01:31Z</time>
      </trkpt>
      <trkpt lat="45.79648" lon="4.96919">
        <ele>182.5</ele>
        <time>2011-04-24T09:01:35Z</time>
      </trkpt>
      <trkpt lat="45.79648" lon="4.96922">
        <ele>182.5</ele>
        <time>2011-04-24T09:01:36Z</time>
      </trkpt>
      <trkpt lat="45.79649" lon="4.96925">
        <ele>183.3</ele>
        <time>2011-04-24T09:01:37Z</time>
      </trkpt>
      <trkpt lat="45.79654" lon="4.96937">
        <ele>182.1</ele>
        <time>2011-04-24T09:01:42Z</time>
      </trkpt>
      <trkpt lat="45.79656" lon="4.9694">
        <ele>181.6</ele>
        <time>2011-04-24T09:01:43Z</time>
      </trkpt>
      <trkpt lat="45.79658" lon="4.96949">
        <ele>180.8</ele>
        <time>2011-04-24T09:01:45Z</time>
      </trkpt>
      <trkpt lat="45.79659" lon="4.96952">
        <ele>181.1</ele>
        <time>2011-04-24T09:01:46Z</time>
      </trkpt>
      <trkpt lat="45.79661" lon="4.96961">
        <ele>181.1</ele>
        <time>2011-04-24T09:01:48Z</time>
      </trkpt>
      <trkpt lat="45.79662" lon="4.96966">
        <ele>180.3</ele>
        <time>2011-04-24T09:01:49Z</time>
      </trkpt>
      <trkpt lat="45.79663" lon="4.9697">
        <ele>179.8</ele>
        <time>2011-04-24T09:01:50Z</time>
      </trkpt>
      <trkpt lat="45.79663" lon="4.96974">
        <ele>178.8</ele>
        <time>2011-04-24T09:01:51Z</time>
      </trkpt>
      <trkpt lat="45.79662" lon="4.96981">
        <ele>180.8</ele>
        <time>2011-04-24T09:01:53Z</time>
      </trkpt>
      <trkpt lat="45.7966" lon="4.9699">
        <ele>182</ele>
        <time>2011-04-24T09:01:56Z</time>
      </trkpt>
      <trkpt lat="45.79661" lon="4.96993">
        <ele>181.8</ele>
        <time>2011-04-24T09:01:57Z</time>
      </trkpt>
      <trkpt lat="45.79661" lon="4.96997">
        <ele>182</ele>
        <time>2011-04-24T09:01:58Z</time>
      </trkpt>
      <trkpt lat="45.79661" lon="4.97001">
        <ele>183.1</ele>
        <time>2011-04-24T09:01:59Z</time>
      </trkpt>
      <trkpt lat="45.79662" lon="4.97005">
        <ele>183.3</ele>
        <time>2011-04-24T09:02:00Z</time>
      </trkpt>
      <trkpt lat="45.79662" lon="4.97007">
        <ele>183.5</ele>
        <time>2011-04-24T09:02:01Z</time>
      </trkpt>
      <trkpt lat="45.79664" lon="4.97008">
        <ele>183.3</ele>
        <time>2011-04-24T09:02:02Z</time>
      </trkpt>
      <trkpt lat="45.79665" lon="4.9701">
        <ele>184.1</ele>
        <time>2011-04-24T09:02:03Z</time>
      </trkpt>
      <trkpt lat="45.79668" lon="4.97013">
        <ele>185</ele>
        <time>2011-04-24T09:02:05Z</time>
      </trkpt>
      <trkpt lat="45.7967" lon="4.97016">
        <ele>183.8</ele>
        <time>2011-04-24T09:02:06Z</time>
      </trkpt>
      <trkpt lat="45.79672" lon="4.9702">
        <ele>184.3</ele>
        <time>2011-04-24T09:02:07Z</time>
      </trkpt>
      <trkpt lat="45.79675" lon="4.97024">
        <ele>184</ele>
        <time>2011-04-24T09:02:08Z</time>
      </trkpt>
      <trkpt lat="45.79676" lon="4.9703">
        <ele>184.3</ele>
        <time>2011-04-24T09:02:09Z</time>
      </trkpt>
      <trkpt lat="45.79679" lon="4.97047">
        <ele>182.1</ele>
        <time>2011-04-24T09:02:13Z</time>
      </trkpt>
      <trkpt lat="45.79678" lon="4.97051">
        <ele>182.1</ele>
        <time>2011-04-24T09:02:14Z</time>
      </trkpt>
      <trkpt lat="45.79675" lon="4.97058">
        <ele>180</ele>
        <time>2011-04-24T09:02:16Z</time>
      </trkpt>
      <trkpt lat="45.7967" lon="4.97064">
        <ele>180</ele>
        <time>2011-04-24T09:02:18Z</time>
      </trkpt>
      <trkpt lat="45.79665" lon="4.9707">
        <ele>179.1</ele>
        <time>2011-04-24T09:02:20Z</time>
      </trkpt>
      <trkpt lat="45.79661" lon="4.97076">
        <ele>178.1</ele>
        <time>2011-04-24T09:02:22Z</time>
      </trkpt>
      <trkpt lat="45.79662" lon="4.97081">
        <ele>178.8</ele>
        <time>2011-04-24T09:02:23Z</time>
      </trkpt>
      <trkpt lat="45.79664" lon="4.97086">
        <ele>179.5</ele>
        <time>2011-04-24T09:02:24Z</time>
      </trkpt>
      <trkpt lat="45.79665" lon="4.97092">
        <ele>180.3</ele>
        <time>2011-04-24T09:02:25Z</time>
      </trkpt>
      <trkpt lat="45.79665" lon="4.97097">
        <ele>179.5</ele>
        <time>2011-04-24T09:02:26Z</time>
      </trkpt>
      <trkpt lat="45.79662" lon="4.971">
        <ele>179.6</ele>
        <time>2011-04-24T09:02:27Z</time>
      </trkpt>
      <trkpt lat="45.7966" lon="4.97103">
        <ele>179.8</ele>
        <time>2011-04-24T09:02:28Z</time>
      </trkpt>
      <trkpt lat="45.7966" lon="4.97107">
        <ele>179.6</ele>
        <time>2011-04-24T09:02:29Z</time>
      </trkpt>
      <trkpt lat="45.79657" lon="4.97109">
        <ele>180.1</ele>
        <time>2011-04-24T09:02:30Z</time>
      </trkpt>
      <trkpt lat="45.79656" lon="4.97113">
        <ele>179.6</ele>
        <time>2011-04-24T09:02:31Z</time>
      </trkpt>
      <trkpt lat="45.79658" lon="4.97116">
        <ele>179.6</ele>
        <time>2011-04-24T09:02:32Z</time>
      </trkpt>
      <trkpt lat="45.79656" lon="4.97119">
        <ele>180.6</ele>
        <time>2011-04-24T09:02:33Z</time>
      </trkpt>
      <trkpt lat="45.79656" lon="4.97123">
        <ele>181.5</ele>
        <time>2011-04-24T09:02:35Z</time>
      </trkpt>
      <trkpt lat="45.79654" lon="4.97125">
        <ele>182.1</ele>
        <time>2011-04-24T09:02:36Z</time>
      </trkpt>
      <trkpt lat="45.7965" lon="4.97129">
        <ele>182.6</ele>
        <time>2011-04-24T09:02:38Z</time>
      </trkpt>
      <trkpt lat="45.79651" lon="4.97132">
        <ele>182.6</ele>
        <time>2011-04-24T09:02:39Z</time>
      </trkpt>
      <trkpt lat="45.79652" lon="4.97135">
        <ele>180.1</ele>
        <time>2011-04-24T09:02:40Z</time>
      </trkpt>
      <trkpt lat="45.79653" lon="4.97138">
        <ele>180.1</ele>
        <time>2011-04-24T09:02:41Z</time>
      </trkpt>
      <trkpt lat="45.79652" lon="4.97142">
        <ele>179.3</ele>
        <time>2011-04-24T09:02:42Z</time>
      </trkpt>
      <trkpt lat="45.79649" lon="4.97145">
        <ele>179.3</ele>
        <time>2011-04-24T09:02:43Z</time>
      </trkpt>
      <trkpt lat="45.79648" lon="4.97149">
        <ele>178.3</ele>
        <time>2011-04-24T09:02:44Z</time>
      </trkpt>
      <trkpt lat="45.79646" lon="4.97153">
        <ele>178.3</ele>
        <time>2011-04-24T09:02:45Z</time>
      </trkpt>
      <trkpt lat="45.79646" lon="4.97157">
        <ele>178.1</ele>
        <time>2011-04-24T09:02:46Z</time>
      </trkpt>
      <trkpt lat="45.79647" lon="4.9716">
        <ele>178.1</ele>
        <time>2011-04-24T09:02:47Z</time>
      </trkpt>
      <trkpt lat="45.79646" lon="4.97163">
        <ele>182</ele>
        <time>2011-04-24T09:02:48Z</time>
      </trkpt>
      <trkpt lat="45.79649" lon="4.97165">
        <ele>182.1</ele>
        <time>2011-04-24T09:02:49Z</time>
      </trkpt>
      <trkpt lat="45.7965" lon="4.97167">
        <ele>182.8</ele>
        <time>2011-04-24T09:02:50Z</time>
      </trkpt>
      <trkpt lat="45.7965" lon="4.9717">
        <ele>182.8</ele>
        <time>2011-04-24T09:02:51Z</time>
      </trkpt>
      <trkpt lat="45.7965" lon="4.97172">
        <ele>185.8</ele>
        <time>2011-04-24T09:02:52Z</time>
      </trkpt>
      <trkpt lat="45.7965" lon="4.9718">
        <ele>186.3</ele>
        <time>2011-04-24T09:02:54Z</time>
      </trkpt>
      <trkpt lat="45.7965" lon="4.97183">
        <ele>186.3</ele>
        <time>2011-04-24T09:02:55Z</time>
      </trkpt>
      <trkpt lat="45.7965" lon="4.97187">
        <ele>185.8</ele>
        <time>2011-04-24T09:02:56Z</time>
      </trkpt>
      <trkpt lat="45.79649" lon="4.97189">
        <ele>185.8</ele>
        <time>2011-04-24T09:02:57Z</time>
      </trkpt>
      <trkpt lat="45.79648" lon="4.9719">
        <ele>187.3</ele>
        <time>2011-04-24T09:02:58Z</time>
      </trkpt>
      <trkpt lat="45.79648" lon="4.9719">
        <ele>187.1</ele>
        <time>2011-04-24T09:02:59Z</time>
      </trkpt>
      <trkpt lat="45.79646" lon="4.9719">
        <ele>189.3</ele>
        <time>2011-04-24T09:03:00Z</time>
      </trkpt>
      <trkpt lat="45.79644" lon="4.9719">
        <ele>190.5</ele>
        <time>2011-04-24T09:03:01Z</time>
      </trkpt>
      <trkpt lat="45.79641" lon="4.97193">
        <ele>190.1</ele>
        <time>2011-04-24T09:03:03Z</time>
      </trkpt>
      <trkpt lat="45.79642" lon="4.97195">
        <ele>190.1</ele>
        <time>2011-04-24T09:03:04Z</time>
      </trkpt>
      <trkpt lat="45.79638" lon="4.97198">
        <ele>190.5</ele>
        <time>2011-04-24T09:03:05Z</time>
      </trkpt>
      <trkpt lat="45.79639" lon="4.97202">
        <ele>189.8</ele>
        <time>2011-04-24T09:03:06Z</time>
      </trkpt>
      <trkpt lat="45.79639" lon="4.97205">
        <ele>189.1</ele>
        <time>2011-04-24T09:03:07Z</time>
      </trkpt>
      <trkpt lat="45.79647" lon="4.97213">
        <ele>187.6</ele>
        <time>2011-04-24T09:03:09Z</time>
      </trkpt>
      <trkpt lat="45.79648" lon="4.97216">
        <ele>188</ele>
        <time>2011-04-24T09:03:10Z</time>
      </trkpt>
      <trkpt lat="45.79651" lon="4.97222">
        <ele>188.8</ele>
        <time>2011-04-24T09:03:13Z</time>
      </trkpt>
      <trkpt lat="45.79657" lon="4.97231">
        <ele>188.8</ele>
        <time>2011-04-24T09:03:15Z</time>
      </trkpt>
      <trkpt lat="45.79659" lon="4.97234">
        <ele>188.3</ele>
        <time>2011-04-24T09:03:16Z</time>
      </trkpt>
      <trkpt lat="45.7966" lon="4.97237">
        <ele>188.1</ele>
        <time>2011-04-24T09:03:17Z</time>
      </trkpt>
      <trkpt lat="45.79657" lon="4.97243">
        <ele>190.1</ele>
        <time>2011-04-24T09:03:19Z</time>
      </trkpt>
      <trkpt lat="45.79676" lon="4.97254">
        <ele>190</ele>
        <time>2011-04-24T09:03:23Z</time>
      </trkpt>
      <trkpt lat="45.79687" lon="4.97261">
        <ele>182.6</ele>
        <time>2011-04-24T09:03:25Z</time>
      </trkpt>
      <trkpt lat="45.79687" lon="4.97264">
        <ele>181.8</ele>
        <time>2011-04-24T09:03:26Z</time>
      </trkpt>
      <trkpt lat="45.79688" lon="4.97267">
        <ele>181.8</ele>
        <time>2011-04-24T09:03:27Z</time>
      </trkpt>
      <trkpt lat="45.79688" lon="4.97271">
        <ele>178.6</ele>
        <time>2011-04-24T09:03:28Z</time>
      </trkpt>
      <trkpt lat="45.79688" lon="4.97286">
        <ele>176.6</ele>
        <time>2011-04-24T09:03:32Z</time>
      </trkpt>
      <trkpt lat="45.79688" lon="4.97291">
        <ele>175.5</ele>
        <time>2011-04-24T09:03:33Z</time>
      </trkpt>
      <trkpt lat="45.79689" lon="4.97296">
        <ele>175.5</ele>
        <time>2011-04-24T09:03:34Z</time>
      </trkpt>
      <trkpt lat="45.79691" lon="4.973">
        <ele>173.6</ele>
        <time>2011-04-24T09:03:35Z</time>
      </trkpt>
      <trkpt lat="45.79691" lon="4.97305">
        <ele>173.6</ele>
        <time>2011-04-24T09:03:36Z</time>
      </trkpt>
      <trkpt lat="45.79691" lon="4.97309">
        <ele>172.6</ele>
        <time>2011-04-24T09:03:37Z</time>
      </trkpt>
      <trkpt lat="45.79693" lon="4.97326">
        <ele>170.8</ele>
        <time>2011-04-24T09:03:41Z</time>
      </trkpt>
      <trkpt lat="45.79691" lon="4.9733">
        <ele>170.8</ele>
        <time>2011-04-24T09:03:42Z</time>
      </trkpt>
      <trkpt lat="45.79694" lon="4.97333">
        <ele>170.6</ele>
        <time>2011-04-24T09:03:43Z</time>
      </trkpt>
      <trkpt lat="45.79695" lon="4.97339">
        <ele>172.3</ele>
        <time>2011-04-24T09:03:45Z</time>
      </trkpt>
      <trkpt lat="45.79699" lon="4.97342">
        <ele>172.8</ele>
        <time>2011-04-24T09:03:46Z</time>
      </trkpt>
      <trkpt lat="45.797" lon="4.97345">
        <ele>173.8</ele>
        <time>2011-04-24T09:03:47Z</time>
      </trkpt>
      <trkpt lat="45.797" lon="4.97353">
        <ele>173.6</ele>
        <time>2011-04-24T09:03:49Z</time>
      </trkpt>
      <trkpt lat="45.79698" lon="4.97358">
        <ele>173.8</ele>
        <time>2011-04-24T09:03:50Z</time>
      </trkpt>
      <trkpt lat="45.79697" lon="4.97361">
        <ele>174.1</ele>
        <time>2011-04-24T09:03:51Z</time>
      </trkpt>
      <trkpt lat="45.79697" lon="4.97365">
        <ele>174.6</ele>
        <time>2011-04-24T09:03:52Z</time>
      </trkpt>
      <trkpt lat="45.79697" lon="4.9737">
        <ele>175.1</ele>
        <time>2011-04-24T09:03:53Z</time>
      </trkpt>
      <trkpt lat="45.79697" lon="4.97375">
        <ele>176.1</ele>
        <time>2011-04-24T09:03:54Z</time>
      </trkpt>
      <trkpt lat="45.79696" lon="4.97395">
        <ele>178.8</ele>
        <time>2011-04-24T09:03:59Z</time>
      </trkpt>
      <trkpt lat="45.797" lon="4.974">
        <ele>180.1</ele>
        <time>2011-04-24T09:04:00Z</time>
      </trkpt>
      <trkpt lat="45.79705" lon="4.97418">
        <ele>182.8</ele>
        <time>2011-04-24T09:04:05Z</time>
      </trkpt>
      <trkpt lat="45.79702" lon="4.9743">
        <ele>182.6</ele>
        <time>2011-04-24T09:04:08Z</time>
      </trkpt>
      <trkpt lat="45.79693" lon="4.9745">
        <ele>180.5</ele>
        <time>2011-04-24T09:04:14Z</time>
      </trkpt>
      <trkpt lat="45.79694" lon="4.97455">
        <ele>180.5</ele>
        <time>2011-04-24T09:04:15Z</time>
      </trkpt>
      <trkpt lat="45.79694" lon="4.97465">
        <ele>180.8</ele>
        <time>2011-04-24T09:04:18Z</time>
      </trkpt>
      <trkpt lat="45.79694" lon="4.97468">
        <ele>178.8</ele>
        <time>2011-04-24T09:04:19Z</time>
      </trkpt>
      <trkpt lat="45.79694" lon="4.97472">
        <ele>178.8</ele>
        <time>2011-04-24T09:04:20Z</time>
      </trkpt>
      <trkpt lat="45.79693" lon="4.97476">
        <ele>178.8</ele>
        <time>2011-04-24T09:04:21Z</time>
      </trkpt>
      <trkpt lat="45.79693" lon="4.9748">
        <ele>178.5</ele>
        <time>2011-04-24T09:04:22Z</time>
      </trkpt>
      <trkpt lat="45.79693" lon="4.97482">
        <ele>177.3</ele>
        <time>2011-04-24T09:04:23Z</time>
      </trkpt>
      <trkpt lat="45.79693" lon="4.97486">
        <ele>176.6</ele>
        <time>2011-04-24T09:04:24Z</time>
      </trkpt>
      <trkpt lat="45.79693" lon="4.9749">
        <ele>176.6</ele>
        <time>2011-04-24T09:04:25Z</time>
      </trkpt>
      <trkpt lat="45.79692" lon="4.97494">
        <ele>174.8</ele>
        <time>2011-04-24T09:04:26Z</time>
      </trkpt>
      <trkpt lat="45.7969" lon="4.97497">
        <ele>174.6</ele>
        <time>2011-04-24T09:04:27Z</time>
      </trkpt>
      <trkpt lat="45.79688" lon="4.97502">
        <ele>175.1</ele>
        <time>2011-04-24T09:04:28Z</time>
      </trkpt>
      <trkpt lat="45.79683" lon="4.97525">
        <ele>171.1</ele>
        <time>2011-04-24T09:04:34Z</time>
      </trkpt>
      <trkpt lat="45.79681" lon="4.97528">
        <ele>171.1</ele>
        <time>2011-04-24T09:04:35Z</time>
      </trkpt>
      <trkpt lat="45.79676" lon="4.97545">
        <ele>169.3</ele>
        <time>2011-04-24T09:04:40Z</time>
      </trkpt>
      <trkpt lat="45.79676" lon="4.97549">
        <ele>169.3</ele>
        <time>2011-04-24T09:04:41Z</time>
      </trkpt>
      <trkpt lat="45.79676" lon="4.97552">
        <ele>171.1</ele>
        <time>2011-04-24T09:04:42Z</time>
      </trkpt>
      <trkpt lat="45.79677" lon="4.97557">
        <ele>171.1</ele>
        <time>2011-04-24T09:04:43Z</time>
      </trkpt>
      <trkpt lat="45.79676" lon="4.97561">
        <ele>172.3</ele>
        <time>2011-04-24T09:04:44Z</time>
      </trkpt>
      <trkpt lat="45.79677" lon="4.97574">
        <ele>172.3</ele>
        <time>2011-04-24T09:04:48Z</time>
      </trkpt>
      <trkpt lat="45.79678" lon="4.97578">
        <ele>172.3</ele>
        <time>2011-04-24T09:04:49Z</time>
      </trkpt>
      <trkpt lat="45.79679" lon="4.97587">
        <ele>172.1</ele>
        <time>2011-04-24T09:04:51Z</time>
      </trkpt>
      <trkpt lat="45.79681" lon="4.97592">
        <ele>172.5</ele>
        <time>2011-04-24T09:04:52Z</time>
      </trkpt>
      <trkpt lat="45.7968" lon="4.97596">
        <ele>172.3</ele>
        <time>2011-04-24T09:04:53Z</time>
      </trkpt>
      <trkpt lat="45.7968" lon="4.97599">
        <ele>173.5</ele>
        <time>2011-04-24T09:04:54Z</time>
      </trkpt>
      <trkpt lat="45.79681" lon="4.97602">
        <ele>174.3</ele>
        <time>2011-04-24T09:04:55Z</time>
      </trkpt>
      <trkpt lat="45.7968" lon="4.97605">
        <ele>176.1</ele>
        <time>2011-04-24T09:04:56Z</time>
      </trkpt>
      <trkpt lat="45.79678" lon="4.97609">
        <ele>177.1</ele>
        <time>2011-04-24T09:04:58Z</time>
      </trkpt>
      <trkpt lat="45.79677" lon="4.97615">
        <ele>175.5</ele>
        <time>2011-04-24T09:05:00Z</time>
      </trkpt>
      <trkpt lat="45.79675" lon="4.97619">
        <ele>175</ele>
        <time>2011-04-24T09:05:01Z</time>
      </trkpt>
      <trkpt lat="45.7967" lon="4.97626">
        <ele>175.6</ele>
        <time>2011-04-24T09:05:03Z</time>
      </trkpt>
      <trkpt lat="45.79661" lon="4.97639">
        <ele>176.6</ele>
        <time>2011-04-24T09:05:06Z</time>
      </trkpt>
      <trkpt lat="45.79658" lon="4.97644">
        <ele>178.6</ele>
        <time>2011-04-24T09:05:07Z</time>
      </trkpt>
      <trkpt lat="45.79655" lon="4.9765">
        <ele>180.3</ele>
        <time>2011-04-24T09:05:08Z</time>
      </trkpt>
      <trkpt lat="45.79646" lon="4.97673">
        <ele>181.1</ele>
        <time>2011-04-24T09:05:13Z</time>
      </trkpt>
      <trkpt lat="45.79642" lon="4.97694">
        <ele>183.3</ele>
        <time>2011-04-24T09:05:18Z</time>
      </trkpt>
      <trkpt lat="45.79641" lon="4.97697">
        <ele>183.1</ele>
        <time>2011-04-24T09:05:19Z</time>
      </trkpt>
      <trkpt lat="45.79639" lon="4.977">
        <ele>182.3</ele>
        <time>2011-04-24T09:05:20Z</time>
      </trkpt>
      <trkpt lat="45.79632" lon="4.97715">
        <ele>181.1</ele>
        <time>2011-04-24T09:05:24Z</time>
      </trkpt>
      <trkpt lat="45.7963" lon="4.97718">
        <ele>181.1</ele>
        <time>2011-04-24T09:05:25Z</time>
      </trkpt>
      <trkpt lat="45.79596" lon="4.97765">
        <ele>180.1</ele>
        <time>2011-04-24T09:05:41Z</time>
      </trkpt>
      <trkpt lat="45.79594" lon="4.97768">
        <ele>180.1</ele>
        <time>2011-04-24T09:05:42Z</time>
      </trkpt>
      <trkpt lat="45.79592" lon="4.97773">
        <ele>179</ele>
        <time>2011-04-24T09:05:43Z</time>
      </trkpt>
      <trkpt lat="45.7959" lon="4.97778">
        <ele>179</ele>
        <time>2011-04-24T09:05:44Z</time>
      </trkpt>
      <trkpt lat="45.79589" lon="4.97782">
        <ele>178.8</ele>
        <time>2011-04-24T09:05:45Z</time>
      </trkpt>
      <trkpt lat="45.79589" lon="4.97792">
        <ele>178.3</ele>
        <time>2011-04-24T09:05:47Z</time>
      </trkpt>
      <trkpt lat="45.79588" lon="4.97803">
        <ele>179.8</ele>
        <time>2011-04-24T09:05:49Z</time>
      </trkpt>
      <trkpt lat="45.79587" lon="4.97808">
        <ele>179.8</ele>
        <time>2011-04-24T09:05:50Z</time>
      </trkpt>
      <trkpt lat="45.79589" lon="4.97813">
        <ele>177.5</ele>
        <time>2011-04-24T09:05:51Z</time>
      </trkpt>
      <trkpt lat="45.79599" lon="4.97848">
        <ele>173.3</ele>
        <time>2011-04-24T09:05:57Z</time>
      </trkpt>
      <trkpt lat="45.79602" lon="4.97853">
        <ele>173.3</ele>
        <time>2011-04-24T09:05:58Z</time>
      </trkpt>
      <trkpt lat="45.79608" lon="4.97862">
        <ele>170</ele>
        <time>2011-04-24T09:06:00Z</time>
      </trkpt>
      <trkpt lat="45.79611" lon="4.97867">
        <ele>168.3</ele>
        <time>2011-04-24T09:06:01Z</time>
      </trkpt>
      <trkpt lat="45.79612" lon="4.97872">
        <ele>169</ele>
        <time>2011-04-24T09:06:02Z</time>
      </trkpt>
      <trkpt lat="45.79613" lon="4.97877">
        <ele>169.3</ele>
        <time>2011-04-24T09:06:03Z</time>
      </trkpt>
      <trkpt lat="45.79614" lon="4.97882">
        <ele>169.5</ele>
        <time>2011-04-24T09:06:04Z</time>
      </trkpt>
      <trkpt lat="45.79622" lon="4.97909">
        <ele>170</ele>
        <time>2011-04-24T09:06:10Z</time>
      </trkpt>
      <trkpt lat="45.79626" lon="4.97929">
        <ele>169.6</ele>
        <time>2011-04-24T09:06:15Z</time>
      </trkpt>
      <trkpt lat="45.79627" lon="4.97933">
        <ele>170.3</ele>
        <time>2011-04-24T09:06:16Z</time>
      </trkpt>
      <trkpt lat="45.79634" lon="4.97947">
        <ele>172.3</ele>
        <time>2011-04-24T09:06:20Z</time>
      </trkpt>
      <trkpt lat="45.79637" lon="4.9795">
        <ele>172.3</ele>
        <time>2011-04-24T09:06:21Z</time>
      </trkpt>
      <trkpt lat="45.79652" lon="4.97965">
        <ele>173.1</ele>
        <time>2011-04-24T09:06:27Z</time>
      </trkpt>
      <trkpt lat="45.79654" lon="4.97966">
        <ele>173.6</ele>
        <time>2011-04-24T09:06:28Z</time>
      </trkpt>
      <trkpt lat="45.79668" lon="4.97972">
        <ele>174.3</ele>
        <time>2011-04-24T09:06:33Z</time>
      </trkpt>
      <trkpt lat="45.79672" lon="4.97973">
        <ele>174</ele>
        <time>2011-04-24T09:06:34Z</time>
      </trkpt>
      <trkpt lat="45.79674" lon="4.97974">
        <ele>174.3</ele>
        <time>2011-04-24T09:06:35Z</time>
      </trkpt>
      <trkpt lat="45.79678" lon="4.97974">
        <ele>173.8</ele>
        <time>2011-04-24T09:06:36Z</time>
      </trkpt>
      <trkpt lat="45.79681" lon="4.97974">
        <ele>173.8</ele>
        <time>2011-04-24T09:06:37Z</time>
      </trkpt>
      <trkpt lat="45.79684" lon="4.97974">
        <ele>173.3</ele>
        <time>2011-04-24T09:06:38Z</time>
      </trkpt>
      <trkpt lat="45.7969" lon="4.97975">
        <ele>173.1</ele>
        <time>2011-04-24T09:06:40Z</time>
      </trkpt>
      <trkpt lat="45.79692" lon="4.97978">
        <ele>173.1</ele>
        <time>2011-04-24T09:06:41Z</time>
      </trkpt>
      <trkpt lat="45.79694" lon="4.97981">
        <ele>171.6</ele>
        <time>2011-04-24T09:06:42Z</time>
      </trkpt>
      <trkpt lat="45.79696" lon="4.97984">
        <ele>171.6</ele>
        <time>2011-04-24T09:06:43Z</time>
      </trkpt>
      <trkpt lat="45.79698" lon="4.97987">
        <ele>172.6</ele>
        <time>2011-04-24T09:06:44Z</time>
      </trkpt>
      <trkpt lat="45.79699" lon="4.97995">
        <ele>173.8</ele>
        <time>2011-04-24T09:06:46Z</time>
      </trkpt>
      <trkpt lat="45.79701" lon="4.97998">
        <ele>172.6</ele>
        <time>2011-04-24T09:06:47Z</time>
      </trkpt>
      <trkpt lat="45.79702" lon="4.98003">
        <ele>173.3</ele>
        <time>2011-04-24T09:06:48Z</time>
      </trkpt>
      <trkpt lat="45.79702" lon="4.98006">
        <ele>173.3</ele>
        <time>2011-04-24T09:06:49Z</time>
      </trkpt>
      <trkpt lat="45.79703" lon="4.98011">
        <ele>173.8</ele>
        <time>2011-04-24T09:06:50Z</time>
      </trkpt>
      <trkpt lat="45.79704" lon="4.98014">
        <ele>173.8</ele>
        <time>2011-04-24T09:06:51Z</time>
      </trkpt>
      <trkpt lat="45.79704" lon="4.98018">
        <ele>175</ele>
        <time>2011-04-24T09:06:52Z</time>
      </trkpt>
      <trkpt lat="45.79705" lon="4.98022">
        <ele>175</ele>
        <time>2011-04-24T09:06:53Z</time>
      </trkpt>
      <trkpt lat="45.79705" lon="4.98025">
        <ele>175.5</ele>
        <time>2011-04-24T09:06:54Z</time>
      </trkpt>
      <trkpt lat="45.79706" lon="4.98029">
        <ele>176.1</ele>
        <time>2011-04-24T09:06:55Z</time>
      </trkpt>
      <trkpt lat="45.79708" lon="4.98037">
        <ele>176.6</ele>
        <time>2011-04-24T09:06:57Z</time>
      </trkpt>
      <trkpt lat="45.79713" lon="4.98047">
        <ele>174.6</ele>
        <time>2011-04-24T09:07:00Z</time>
      </trkpt>
      <trkpt lat="45.79719" lon="4.98061">
        <ele>174.5</ele>
        <time>2011-04-24T09:07:04Z</time>
      </trkpt>
      <trkpt lat="45.79721" lon="4.98068">
        <ele>174.8</ele>
        <time>2011-04-24T09:07:06Z</time>
      </trkpt>
      <trkpt lat="45.79723" lon="4.98076">
        <ele>174.3</ele>
        <time>2011-04-24T09:07:08Z</time>
      </trkpt>
      <trkpt lat="45.79724" lon="4.9808">
        <ele>173.6</ele>
        <time>2011-04-24T09:07:09Z</time>
      </trkpt>
      <trkpt lat="45.79724" lon="4.98084">
        <ele>173</ele>
        <time>2011-04-24T09:07:10Z</time>
      </trkpt>
      <trkpt lat="45.79724" lon="4.981">
        <ele>170.8</ele>
        <time>2011-04-24T09:07:14Z</time>
      </trkpt>
      <trkpt lat="45.79725" lon="4.98103">
        <ele>169.8</ele>
        <time>2011-04-24T09:07:15Z</time>
      </trkpt>
      <trkpt lat="45.7973" lon="4.98109">
        <ele>168.1</ele>
        <time>2011-04-24T09:07:17Z</time>
      </trkpt>
      <trkpt lat="45.79735" lon="4.98118">
        <ele>166.1</ele>
        <time>2011-04-24T09:07:20Z</time>
      </trkpt>
      <trkpt lat="45.79734" lon="4.98125">
        <ele>167.8</ele>
        <time>2011-04-24T09:07:22Z</time>
      </trkpt>
      <trkpt lat="45.79734" lon="4.98127">
        <ele>168.3</ele>
        <time>2011-04-24T09:07:23Z</time>
      </trkpt>
      <trkpt lat="45.79734" lon="4.9813">
        <ele>169.1</ele>
        <time>2011-04-24T09:07:24Z</time>
      </trkpt>
      <trkpt lat="45.79735" lon="4.98134">
        <ele>169.6</ele>
        <time>2011-04-24T09:07:25Z</time>
      </trkpt>
      <trkpt lat="45.79736" lon="4.98138">
        <ele>169.6</ele>
        <time>2011-04-24T09:07:26Z</time>
      </trkpt>
      <trkpt lat="45.79738" lon="4.98141">
        <ele>172</ele>
        <time>2011-04-24T09:07:27Z</time>
      </trkpt>
      <trkpt lat="45.7974" lon="4.98146">
        <ele>172.8</ele>
        <time>2011-04-24T09:07:28Z</time>
      </trkpt>
      <trkpt lat="45.7974" lon="4.98155">
        <ele>174.3</ele>
        <time>2011-04-24T09:07:30Z</time>
      </trkpt>
      <trkpt lat="45.79742" lon="4.98179">
        <ele>174.5</ele>
        <time>2011-04-24T09:07:35Z</time>
      </trkpt>
      <trkpt lat="45.79743" lon="4.98183">
        <ele>174.8</ele>
        <time>2011-04-24T09:07:36Z</time>
      </trkpt>
      <trkpt lat="45.79742" lon="4.98187">
        <ele>175</ele>
        <time>2011-04-24T09:07:37Z</time>
      </trkpt>
      <trkpt lat="45.79737" lon="4.98227">
        <ele>174.8</ele>
        <time>2011-04-24T09:07:48Z</time>
      </trkpt>
      <trkpt lat="45.79734" lon="4.98231">
        <ele>175.3</ele>
        <time>2011-04-24T09:07:49Z</time>
      </trkpt>
      <trkpt lat="45.79733" lon="4.98234">
        <ele>175.5</ele>
        <time>2011-04-24T09:07:50Z</time>
      </trkpt>
      <trkpt lat="45.79731" lon="4.98239">
        <ele>176.6</ele>
        <time>2011-04-24T09:07:51Z</time>
      </trkpt>
      <trkpt lat="45.7973" lon="4.98243">
        <ele>176.8</ele>
        <time>2011-04-24T09:07:52Z</time>
      </trkpt>
      <trkpt lat="45.79721" lon="4.98264">
        <ele>177.8</ele>
        <time>2011-04-24T09:07:58Z</time>
      </trkpt>
      <trkpt lat="45.79721" lon="4.98267">
        <ele>177.8</ele>
        <time>2011-04-24T09:07:59Z</time>
      </trkpt>
      <trkpt lat="45.7972" lon="4.98272">
        <ele>179</ele>
        <time>2011-04-24T09:08:00Z</time>
      </trkpt>
      <trkpt lat="45.79721" lon="4.98275">
        <ele>179</ele>
        <time>2011-04-24T09:08:01Z</time>
      </trkpt>
      <trkpt lat="45.79723" lon="4.98279">
        <ele>176.6</ele>
        <time>2011-04-24T09:08:02Z</time>
      </trkpt>
      <trkpt lat="45.79724" lon="4.98286">
        <ele>176.8</ele>
        <time>2011-04-24T09:08:04Z</time>
      </trkpt>
      <trkpt lat="45.79727" lon="4.98294">
        <ele>175.5</ele>
        <time>2011-04-24T09:08:06Z</time>
      </trkpt>
      <trkpt lat="45.79734" lon="4.98323">
        <ele>173.1</ele>
        <time>2011-04-24T09:08:14Z</time>
      </trkpt>
      <trkpt lat="45.79738" lon="4.98348">
        <ele>177</ele>
        <time>2011-04-24T09:08:21Z</time>
      </trkpt>
      <trkpt lat="45.79741" lon="4.98355">
        <ele>176.5</ele>
        <time>2011-04-24T09:08:23Z</time>
      </trkpt>
      <trkpt lat="45.79784" lon="4.98494">
        <ele>172.6</ele>
        <time>2011-04-24T09:09:00Z</time>
      </trkpt>
      <trkpt lat="45.79785" lon="4.98497">
        <ele>172.8</ele>
        <time>2011-04-24T09:09:01Z</time>
      </trkpt>
      <trkpt lat="45.79793" lon="4.98531">
        <ele>173.3</ele>
        <time>2011-04-24T09:09:10Z</time>
      </trkpt>
      <trkpt lat="45.79793" lon="4.98553">
        <ele>172.8</ele>
        <time>2011-04-24T09:09:15Z</time>
      </trkpt>
      <trkpt lat="45.79791" lon="4.98558">
        <ele>172.8</ele>
        <time>2011-04-24T09:09:16Z</time>
      </trkpt>
      <trkpt lat="45.79785" lon="4.98577">
        <ele>172.6</ele>
        <time>2011-04-24T09:09:21Z</time>
      </trkpt>
      <trkpt lat="45.79784" lon="4.98581">
        <ele>172.6</ele>
        <time>2011-04-24T09:09:22Z</time>
      </trkpt>
      <trkpt lat="45.7978" lon="4.98598">
        <ele>171.3</ele>
        <time>2011-04-24T09:09:27Z</time>
      </trkpt>
      <trkpt lat="45.79778" lon="4.98602">
        <ele>171.3</ele>
        <time>2011-04-24T09:09:28Z</time>
      </trkpt>
      <trkpt lat="45.79773" lon="4.98612">
        <ele>173.8</ele>
        <time>2011-04-24T09:09:31Z</time>
      </trkpt>
      <trkpt lat="45.79771" lon="4.98615">
        <ele>173.8</ele>
        <time>2011-04-24T09:09:32Z</time>
      </trkpt>
      <trkpt lat="45.79769" lon="4.98618">
        <ele>176.8</ele>
        <time>2011-04-24T09:09:33Z</time>
      </trkpt>
      <trkpt lat="45.79768" lon="4.98622">
        <ele>176.3</ele>
        <time>2011-04-24T09:09:34Z</time>
      </trkpt>
      <trkpt lat="45.79763" lon="4.98639">
        <ele>175.6</ele>
        <time>2011-04-24T09:09:39Z</time>
      </trkpt>
      <trkpt lat="45.79761" lon="4.9865">
        <ele>174.8</ele>
        <time>2011-04-24T09:09:42Z</time>
      </trkpt>
      <trkpt lat="45.79761" lon="4.98654">
        <ele>174.3</ele>
        <time>2011-04-24T09:09:43Z</time>
      </trkpt>
      <trkpt lat="45.79764" lon="4.98661">
        <ele>170.6</ele>
        <time>2011-04-24T09:09:45Z</time>
      </trkpt>
      <trkpt lat="45.79765" lon="4.98664">
        <ele>170.1</ele>
        <time>2011-04-24T09:09:46Z</time>
      </trkpt>
      <trkpt lat="45.79765" lon="4.98668">
        <ele>170.3</ele>
        <time>2011-04-24T09:09:47Z</time>
      </trkpt>
      <trkpt lat="45.79766" lon="4.98671">
        <ele>170.1</ele>
        <time>2011-04-24T09:09:48Z</time>
      </trkpt>
      <trkpt lat="45.79767" lon="4.98684">
        <ele>173.8</ele>
        <time>2011-04-24T09:09:52Z</time>
      </trkpt>
      <trkpt lat="45.79769" lon="4.98687">
        <ele>174.5</ele>
        <time>2011-04-24T09:09:53Z</time>
      </trkpt>
      <trkpt lat="45.79768" lon="4.9869">
        <ele>175.1</ele>
        <time>2011-04-24T09:09:54Z</time>
      </trkpt>
      <trkpt lat="45.7977" lon="4.98693">
        <ele>174.6</ele>
        <time>2011-04-24T09:09:55Z</time>
      </trkpt>
      <trkpt lat="45.79771" lon="4.98696">
        <ele>174.3</ele>
        <time>2011-04-24T09:09:56Z</time>
      </trkpt>
      <trkpt lat="45.79772" lon="4.987">
        <ele>174.1</ele>
        <time>2011-04-24T09:09:57Z</time>
      </trkpt>
      <trkpt lat="45.79772" lon="4.98704">
        <ele>174.3</ele>
        <time>2011-04-24T09:09:58Z</time>
      </trkpt>
      <trkpt lat="45.7977" lon="4.98712">
        <ele>174.6</ele>
        <time>2011-04-24T09:10:00Z</time>
      </trkpt>
      <trkpt lat="45.79769" lon="4.98716">
        <ele>175.1</ele>
        <time>2011-04-24T09:10:01Z</time>
      </trkpt>
      <trkpt lat="45.79765" lon="4.9872">
        <ele>178.3</ele>
        <time>2011-04-24T09:10:02Z</time>
      </trkpt>
      <trkpt lat="45.79763" lon="4.98727">
        <ele>181.3</ele>
        <time>2011-04-24T09:10:04Z</time>
      </trkpt>
      <trkpt lat="45.79765" lon="4.98731">
        <ele>183.1</ele>
        <time>2011-04-24T09:10:05Z</time>
      </trkpt>
      <trkpt lat="45.79771" lon="4.98734">
        <ele>182.8</ele>
        <time>2011-04-24T09:10:06Z</time>
      </trkpt>
      <trkpt lat="45.79772" lon="4.98737">
        <ele>182.6</ele>
        <time>2011-04-24T09:10:07Z</time>
      </trkpt>
      <trkpt lat="45.79776" lon="4.98739">
        <ele>184.1</ele>
        <time>2011-04-24T09:10:08Z</time>
      </trkpt>
      <trkpt lat="45.79778" lon="4.98741">
        <ele>183.6</ele>
        <time>2011-04-24T09:10:09Z</time>
      </trkpt>
      <trkpt lat="45.79785" lon="4.98748">
        <ele>186</ele>
        <time>2011-04-24T09:10:11Z</time>
      </trkpt>
      <trkpt lat="45.79789" lon="4.98751">
        <ele>185.8</ele>
        <time>2011-04-24T09:10:12Z</time>
      </trkpt>
      <trkpt lat="45.79792" lon="4.98754">
        <ele>186</ele>
        <time>2011-04-24T09:10:13Z</time>
      </trkpt>
      <trkpt lat="45.79796" lon="4.98763">
        <ele>186.5</ele>
        <time>2011-04-24T09:10:15Z</time>
      </trkpt>
      <trkpt lat="45.79797" lon="4.98774">
        <ele>182.8</ele>
        <time>2011-04-24T09:10:18Z</time>
      </trkpt>
      <trkpt lat="45.79798" lon="4.98798">
        <ele>181.1</ele>
        <time>2011-04-24T09:10:24Z</time>
      </trkpt>
      <trkpt lat="45.79798" lon="4.98802">
        <ele>181.1</ele>
        <time>2011-04-24T09:10:25Z</time>
      </trkpt>
      <trkpt lat="45.79799" lon="4.98806">
        <ele>181.8</ele>
        <time>2011-04-24T09:10:26Z</time>
      </trkpt>
      <trkpt lat="45.79803" lon="4.98822">
        <ele>181.3</ele>
        <time>2011-04-24T09:10:30Z</time>
      </trkpt>
      <trkpt lat="45.79804" lon="4.98826">
        <ele>181.3</ele>
        <time>2011-04-24T09:10:31Z</time>
      </trkpt>
      <trkpt lat="45.79805" lon="4.9883">
        <ele>180.3</ele>
        <time>2011-04-24T09:10:32Z</time>
      </trkpt>
      <trkpt lat="45.79805" lon="4.98834">
        <ele>180.3</ele>
        <time>2011-04-24T09:10:33Z</time>
      </trkpt>
      <trkpt lat="45.7981" lon="4.98845">
        <ele>177.3</ele>
        <time>2011-04-24T09:10:36Z</time>
      </trkpt>
      <trkpt lat="45.7981" lon="4.9885">
        <ele>177.3</ele>
        <time>2011-04-24T09:10:37Z</time>
      </trkpt>
      <trkpt lat="45.79811" lon="4.98854">
        <ele>176.8</ele>
        <time>2011-04-24T09:10:38Z</time>
      </trkpt>
      <trkpt lat="45.79808" lon="4.98861">
        <ele>176.1</ele>
        <time>2011-04-24T09:10:40Z</time>
      </trkpt>
      <trkpt lat="45.79809" lon="4.98866">
        <ele>175.1</ele>
        <time>2011-04-24T09:10:41Z</time>
      </trkpt>
      <trkpt lat="45.79809" lon="4.9887">
        <ele>174.6</ele>
        <time>2011-04-24T09:10:42Z</time>
      </trkpt>
      <trkpt lat="45.79808" lon="4.98874">
        <ele>174.5</ele>
        <time>2011-04-24T09:10:43Z</time>
      </trkpt>
      <trkpt lat="45.79809" lon="4.98878">
        <ele>174.3</ele>
        <time>2011-04-24T09:10:44Z</time>
      </trkpt>
      <trkpt lat="45.79807" lon="4.98886">
        <ele>175.3</ele>
        <time>2011-04-24T09:10:46Z</time>
      </trkpt>
      <trkpt lat="45.79803" lon="4.98897">
        <ele>176</ele>
        <time>2011-04-24T09:10:49Z</time>
      </trkpt>
      <trkpt lat="45.79801" lon="4.98902">
        <ele>175.5</ele>
        <time>2011-04-24T09:10:50Z</time>
      </trkpt>
      <trkpt lat="45.798" lon="4.98909">
        <ele>175.3</ele>
        <time>2011-04-24T09:10:52Z</time>
      </trkpt>
      <trkpt lat="45.79798" lon="4.98917">
        <ele>177.1</ele>
        <time>2011-04-24T09:10:54Z</time>
      </trkpt>
      <trkpt lat="45.79798" lon="4.98932">
        <ele>174.8</ele>
        <time>2011-04-24T09:10:58Z</time>
      </trkpt>
      <trkpt lat="45.79797" lon="4.98936">
        <ele>174.6</ele>
        <time>2011-04-24T09:10:59Z</time>
      </trkpt>
      <trkpt lat="45.79796" lon="4.98951">
        <ele>176</ele>
        <time>2011-04-24T09:11:03Z</time>
      </trkpt>
      <trkpt lat="45.79796" lon="4.98954">
        <ele>175.6</ele>
        <time>2011-04-24T09:11:04Z</time>
      </trkpt>
      <trkpt lat="45.79799" lon="4.98956">
        <ele>173.6</ele>
        <time>2011-04-24T09:11:05Z</time>
      </trkpt>
      <trkpt lat="45.79801" lon="4.98955">
        <ele>172.8</ele>
        <time>2011-04-24T09:11:06Z</time>
      </trkpt>
      <trkpt lat="45.7982" lon="4.98949">
        <ele>170.8</ele>
        <time>2011-04-24T09:11:14Z</time>
      </trkpt>
      <trkpt lat="45.79837" lon="4.98941">
        <ele>172.3</ele>
        <time>2011-04-24T09:11:21Z</time>
      </trkpt>
      <trkpt lat="45.79841" lon="4.98937">
        <ele>173.6</ele>
        <time>2011-04-24T09:11:23Z</time>
      </trkpt>
      <trkpt lat="45.79844" lon="4.98932">
        <ele>174.8</ele>
        <time>2011-04-24T09:11:25Z</time>
      </trkpt>
      <trkpt lat="45.79846" lon="4.98929">
        <ele>174.8</ele>
        <time>2011-04-24T09:11:26Z</time>
      </trkpt>
      <trkpt lat="45.79848" lon="4.98926">
        <ele>176</ele>
        <time>2011-04-24T09:11:27Z</time>
      </trkpt>
      <trkpt lat="45.7985" lon="4.98924">
        <ele>176</ele>
        <time>2011-04-24T09:11:28Z</time>
      </trkpt>
      <trkpt lat="45.79856" lon="4.9892">
        <ele>178.6</ele>
        <time>2011-04-24T09:11:31Z</time>
      </trkpt>
      <trkpt lat="45.79859" lon="4.98919">
        <ele>178.6</ele>
        <time>2011-04-24T09:11:32Z</time>
      </trkpt>
      <trkpt lat="45.79861" lon="4.98917">
        <ele>180.6</ele>
        <time>2011-04-24T09:11:33Z</time>
      </trkpt>
      <trkpt lat="45.79863" lon="4.98915">
        <ele>180.6</ele>
        <time>2011-04-24T09:11:34Z</time>
      </trkpt>
      <trkpt lat="45.79864" lon="4.98912">
        <ele>180.8</ele>
        <time>2011-04-24T09:11:35Z</time>
      </trkpt>
      <trkpt lat="45.79866" lon="4.9891">
        <ele>180.8</ele>
        <time>2011-04-24T09:11:36Z</time>
      </trkpt>
      <trkpt lat="45.7987" lon="4.9891">
        <ele>181.8</ele>
        <time>2011-04-24T09:11:37Z</time>
      </trkpt>
      <trkpt lat="45.79876" lon="4.98908">
        <ele>181.1</ele>
        <time>2011-04-24T09:11:39Z</time>
      </trkpt>
      <trkpt lat="45.79879" lon="4.98904">
        <ele>182.8</ele>
        <time>2011-04-24T09:11:41Z</time>
      </trkpt>
      <trkpt lat="45.79882" lon="4.98903">
        <ele>181.8</ele>
        <time>2011-04-24T09:11:42Z</time>
      </trkpt>
      <trkpt lat="45.79885" lon="4.98902">
        <ele>180.8</ele>
        <time>2011-04-24T09:11:43Z</time>
      </trkpt>
      <trkpt lat="45.79887" lon="4.98901">
        <ele>181.8</ele>
        <time>2011-04-24T09:11:44Z</time>
      </trkpt>
      <trkpt lat="45.79915" lon="4.98883">
        <ele>179.6</ele>
        <time>2011-04-24T09:11:55Z</time>
      </trkpt>
      <trkpt lat="45.79932" lon="4.98875">
        <ele>177.6</ele>
        <time>2011-04-24T09:12:01Z</time>
      </trkpt>
      <trkpt lat="45.79959" lon="4.98862">
        <ele>176.3</ele>
        <time>2011-04-24T09:12:11Z</time>
      </trkpt>
      <trkpt lat="45.79962" lon="4.9886">
        <ele>176.8</ele>
        <time>2011-04-24T09:12:12Z</time>
      </trkpt>
      <trkpt lat="45.79976" lon="4.98853">
        <ele>177</ele>
        <time>2011-04-24T09:12:17Z</time>
      </trkpt>
      <trkpt lat="45.80071" lon="4.98802">
        <ele>176.1</ele>
        <time>2011-04-24T09:12:53Z</time>
      </trkpt>
      <trkpt lat="45.80074" lon="4.98801">
        <ele>176.1</ele>
        <time>2011-04-24T09:12:54Z</time>
      </trkpt>
      <trkpt lat="45.80105" lon="4.98794">
        <ele>177.6</ele>
        <time>2011-04-24T09:13:05Z</time>
      </trkpt>
      <trkpt lat="45.80108" lon="4.98792">
        <ele>177.6</ele>
        <time>2011-04-24T09:13:06Z</time>
      </trkpt>
      <trkpt lat="45.80113" lon="4.98787">
        <ele>177.3</ele>
        <time>2011-04-24T09:13:09Z</time>
      </trkpt>
      <trkpt lat="45.80115" lon="4.98785">
        <ele>177.3</ele>
        <time>2011-04-24T09:13:10Z</time>
      </trkpt>
      <trkpt lat="45.80132" lon="4.98773">
        <ele>176.6</ele>
        <time>2011-04-24T09:13:17Z</time>
      </trkpt>
      <trkpt lat="45.80135" lon="4.98771">
        <ele>176.6</ele>
        <time>2011-04-24T09:13:18Z</time>
      </trkpt>
      <trkpt lat="45.8016" lon="4.98762">
        <ele>175.1</ele>
        <time>2011-04-24T09:13:27Z</time>
      </trkpt>
      <trkpt lat="45.80163" lon="4.98763">
        <ele>175.1</ele>
        <time>2011-04-24T09:13:28Z</time>
      </trkpt>
      <trkpt lat="45.80166" lon="4.98764">
        <ele>174.8</ele>
        <time>2011-04-24T09:13:29Z</time>
      </trkpt>
      <trkpt lat="45.80167" lon="4.98765">
        <ele>175.8</ele>
        <time>2011-04-24T09:13:30Z</time>
      </trkpt>
      <trkpt lat="45.80169" lon="4.98767">
        <ele>175.6</ele>
        <time>2011-04-24T09:13:31Z</time>
      </trkpt>
      <trkpt lat="45.80169" lon="4.98769">
        <ele>175</ele>
        <time>2011-04-24T09:13:32Z</time>
      </trkpt>
      <trkpt lat="45.80169" lon="4.9877">
        <ele>175.3</ele>
        <time>2011-04-24T09:13:33Z</time>
      </trkpt>
      <trkpt lat="45.80173" lon="4.9879">
        <ele>177.6</ele>
        <time>2011-04-24T09:13:39Z</time>
      </trkpt>
      <trkpt lat="45.80174" lon="4.98793">
        <ele>176.6</ele>
        <time>2011-04-24T09:13:40Z</time>
      </trkpt>
      <trkpt lat="45.80181" lon="4.98809">
        <ele>179.5</ele>
        <time>2011-04-24T09:13:44Z</time>
      </trkpt>
      <trkpt lat="45.80181" lon="4.98814">
        <ele>180.8</ele>
        <time>2011-04-24T09:13:45Z</time>
      </trkpt>
      <trkpt lat="45.80182" lon="4.98817">
        <ele>181.8</ele>
        <time>2011-04-24T09:13:46Z</time>
      </trkpt>
      <trkpt lat="45.80184" lon="4.98824">
        <ele>180.3</ele>
        <time>2011-04-24T09:13:48Z</time>
      </trkpt>
      <trkpt lat="45.80185" lon="4.98828">
        <ele>179.3</ele>
        <time>2011-04-24T09:13:49Z</time>
      </trkpt>
      <trkpt lat="45.80187" lon="4.98832">
        <ele>178.8</ele>
        <time>2011-04-24T09:13:50Z</time>
      </trkpt>
      <trkpt lat="45.80189" lon="4.98835">
        <ele>178.8</ele>
        <time>2011-04-24T09:13:51Z</time>
      </trkpt>
      <trkpt lat="45.80189" lon="4.98838">
        <ele>176.6</ele>
        <time>2011-04-24T09:13:52Z</time>
      </trkpt>
      <trkpt lat="45.8019" lon="4.98841">
        <ele>176.3</ele>
        <time>2011-04-24T09:13:53Z</time>
      </trkpt>
      <trkpt lat="45.80191" lon="4.98844">
        <ele>175.8</ele>
        <time>2011-04-24T09:13:54Z</time>
      </trkpt>
      <trkpt lat="45.80192" lon="4.98848">
        <ele>173.6</ele>
        <time>2011-04-24T09:13:55Z</time>
      </trkpt>
      <trkpt lat="45.80194" lon="4.98853">
        <ele>173.3</ele>
        <time>2011-04-24T09:13:56Z</time>
      </trkpt>
      <trkpt lat="45.80196" lon="4.98857">
        <ele>172.6</ele>
        <time>2011-04-24T09:13:57Z</time>
      </trkpt>
      <trkpt lat="45.802" lon="4.98866">
        <ele>172.8</ele>
        <time>2011-04-24T09:13:59Z</time>
      </trkpt>
      <trkpt lat="45.802" lon="4.98869">
        <ele>174</ele>
        <time>2011-04-24T09:14:00Z</time>
      </trkpt>
      <trkpt lat="45.80202" lon="4.98873">
        <ele>173.8</ele>
        <time>2011-04-24T09:14:01Z</time>
      </trkpt>
      <trkpt lat="45.80202" lon="4.98878">
        <ele>174.6</ele>
        <time>2011-04-24T09:14:02Z</time>
      </trkpt>
      <trkpt lat="45.80202" lon="4.98882">
        <ele>175.3</ele>
        <time>2011-04-24T09:14:03Z</time>
      </trkpt>
      <trkpt lat="45.80203" lon="4.98885">
        <ele>175.3</ele>
        <time>2011-04-24T09:14:04Z</time>
      </trkpt>
      <trkpt lat="45.80202" lon="4.98891">
        <ele>176.6</ele>
        <time>2011-04-24T09:14:06Z</time>
      </trkpt>
      <trkpt lat="45.80202" lon="4.98895">
        <ele>176.6</ele>
        <time>2011-04-24T09:14:07Z</time>
      </trkpt>
      <trkpt lat="45.80206" lon="4.98917">
        <ele>172.1</ele>
        <time>2011-04-24T09:14:12Z</time>
      </trkpt>
      <trkpt lat="45.80207" lon="4.98924">
        <ele>171.1</ele>
        <time>2011-04-24T09:14:14Z</time>
      </trkpt>
      <trkpt lat="45.80208" lon="4.98931">
        <ele>170.8</ele>
        <time>2011-04-24T09:14:16Z</time>
      </trkpt>
      <trkpt lat="45.80206" lon="4.98972">
        <ele>171</ele>
        <time>2011-04-24T09:14:26Z</time>
      </trkpt>
      <trkpt lat="45.80207" lon="4.98976">
        <ele>171</ele>
        <time>2011-04-24T09:14:27Z</time>
      </trkpt>
      <trkpt lat="45.80207" lon="4.98981">
        <ele>171.6</ele>
        <time>2011-04-24T09:14:28Z</time>
      </trkpt>
      <trkpt lat="45.80208" lon="4.98988">
        <ele>172.5</ele>
        <time>2011-04-24T09:14:30Z</time>
      </trkpt>
      <trkpt lat="45.80208" lon="4.98992">
        <ele>172.5</ele>
        <time>2011-04-24T09:14:31Z</time>
      </trkpt>
      <trkpt lat="45.80202" lon="4.99038">
        <ele>177.1</ele>
        <time>2011-04-24T09:14:42Z</time>
      </trkpt>
      <trkpt lat="45.80194" lon="4.99074">
        <ele>178.1</ele>
        <time>2011-04-24T09:14:51Z</time>
      </trkpt>
      <trkpt lat="45.80192" lon="4.99084">
        <ele>176.5</ele>
        <time>2011-04-24T09:14:54Z</time>
      </trkpt>
      <trkpt lat="45.8019" lon="4.99088">
        <ele>176.3</ele>
        <time>2011-04-24T09:14:55Z</time>
      </trkpt>
      <trkpt lat="45.80187" lon="4.99092">
        <ele>175.8</ele>
        <time>2011-04-24T09:14:57Z</time>
      </trkpt>
      <trkpt lat="45.80184" lon="4.99094">
        <ele>176.1</ele>
        <time>2011-04-24T09:14:58Z</time>
      </trkpt>
      <trkpt lat="45.80183" lon="4.99098">
        <ele>175.8</ele>
        <time>2011-04-24T09:14:59Z</time>
      </trkpt>
      <trkpt lat="45.80181" lon="4.99107">
        <ele>174.8</ele>
        <time>2011-04-24T09:15:01Z</time>
      </trkpt>
      <trkpt lat="45.80179" lon="4.99125">
        <ele>173.3</ele>
        <time>2011-04-24T09:15:05Z</time>
      </trkpt>
      <trkpt lat="45.80177" lon="4.99143">
        <ele>173.6</ele>
        <time>2011-04-24T09:15:10Z</time>
      </trkpt>
      <trkpt lat="45.80175" lon="4.99147">
        <ele>174.3</ele>
        <time>2011-04-24T09:15:11Z</time>
      </trkpt>
      <trkpt lat="45.80175" lon="4.9915">
        <ele>174.3</ele>
        <time>2011-04-24T09:15:12Z</time>
      </trkpt>
      <trkpt lat="45.80171" lon="4.99161">
        <ele>174.3</ele>
        <time>2011-04-24T09:15:15Z</time>
      </trkpt>
      <trkpt lat="45.80163" lon="4.99182">
        <ele>177.8</ele>
        <time>2011-04-24T09:15:21Z</time>
      </trkpt>
      <trkpt lat="45.80155" lon="4.99198">
        <ele>177.8</ele>
        <time>2011-04-24T09:15:26Z</time>
      </trkpt>
      <trkpt lat="45.80153" lon="4.99202">
        <ele>177.6</ele>
        <time>2011-04-24T09:15:27Z</time>
      </trkpt>
      <trkpt lat="45.8015" lon="4.99204">
        <ele>176.3</ele>
        <time>2011-04-24T09:15:28Z</time>
      </trkpt>
      <trkpt lat="45.80142" lon="4.9922">
        <ele>173.1</ele>
        <time>2011-04-24T09:15:34Z</time>
      </trkpt>
      <trkpt lat="45.8012" lon="4.99249">
        <ele>177.6</ele>
        <time>2011-04-24T09:15:45Z</time>
      </trkpt>
      <trkpt lat="45.80114" lon="4.99263">
        <ele>175.6</ele>
        <time>2011-04-24T09:15:49Z</time>
      </trkpt>
      <trkpt lat="45.80109" lon="4.99277">
        <ele>175.3</ele>
        <time>2011-04-24T09:15:53Z</time>
      </trkpt>
      <trkpt lat="45.80098" lon="4.99304">
        <ele>175.1</ele>
        <time>2011-04-24T09:16:01Z</time>
      </trkpt>
      <trkpt lat="45.80095" lon="4.9931">
        <ele>174.8</ele>
        <time>2011-04-24T09:16:03Z</time>
      </trkpt>
      <trkpt lat="45.80092" lon="4.99313">
        <ele>174.8</ele>
        <time>2011-04-24T09:16:04Z</time>
      </trkpt>
      <trkpt lat="45.80074" lon="4.99326">
        <ele>174.5</ele>
        <time>2011-04-24T09:16:11Z</time>
      </trkpt>
      <trkpt lat="45.80074" lon="4.99329">
        <ele>174.5</ele>
        <time>2011-04-24T09:16:12Z</time>
      </trkpt>
      <trkpt lat="45.80071" lon="4.99334">
        <ele>176.1</ele>
        <time>2011-04-24T09:16:14Z</time>
      </trkpt>
      <trkpt lat="45.80069" lon="4.99337">
        <ele>176</ele>
        <time>2011-04-24T09:16:15Z</time>
      </trkpt>
      <trkpt lat="45.80061" lon="4.99347">
        <ele>175.6</ele>
        <time>2011-04-24T09:16:19Z</time>
      </trkpt>
      <trkpt lat="45.80058" lon="4.9935">
        <ele>175.6</ele>
        <time>2011-04-24T09:16:20Z</time>
      </trkpt>
      <trkpt lat="45.80051" lon="4.99361">
        <ele>177.8</ele>
        <time>2011-04-24T09:16:24Z</time>
      </trkpt>
      <trkpt lat="45.80049" lon="4.99365">
        <ele>178.1</ele>
        <time>2011-04-24T09:16:25Z</time>
      </trkpt>
      <trkpt lat="45.80046" lon="4.99372">
        <ele>178.5</ele>
        <time>2011-04-24T09:16:27Z</time>
      </trkpt>
      <trkpt lat="45.80044" lon="4.99375">
        <ele>178.6</ele>
        <time>2011-04-24T09:16:28Z</time>
      </trkpt>
      <trkpt lat="45.80042" lon="4.99378">
        <ele>178.1</ele>
        <time>2011-04-24T09:16:29Z</time>
      </trkpt>
      <trkpt lat="45.79996" lon="4.99434">
        <ele>179.8</ele>
        <time>2011-04-24T09:16:50Z</time>
      </trkpt>
      <trkpt lat="45.79987" lon="4.99444">
        <ele>181</ele>
        <time>2011-04-24T09:16:54Z</time>
      </trkpt>
      <trkpt lat="45.79985" lon="4.99446">
        <ele>181</ele>
        <time>2011-04-24T09:16:55Z</time>
      </trkpt>
      <trkpt lat="45.79979" lon="4.99454">
        <ele>180.8</ele>
        <time>2011-04-24T09:16:58Z</time>
      </trkpt>
      <trkpt lat="45.79977" lon="4.99457">
        <ele>180.8</ele>
        <time>2011-04-24T09:16:59Z</time>
      </trkpt>
      <trkpt lat="45.79943" lon="4.99492">
        <ele>181.6</ele>
        <time>2011-04-24T09:17:14Z</time>
      </trkpt>
      <trkpt lat="45.79941" lon="4.99494">
        <ele>181.6</ele>
        <time>2011-04-24T09:17:15Z</time>
      </trkpt>
      <trkpt lat="45.79927" lon="4.99513">
        <ele>181.6</ele>
        <time>2011-04-24T09:17:22Z</time>
      </trkpt>
      <trkpt lat="45.79918" lon="4.99522">
        <ele>182.5</ele>
        <time>2011-04-24T09:17:26Z</time>
      </trkpt>
      <trkpt lat="45.79883" lon="4.99563">
        <ele>175.5</ele>
        <time>2011-04-24T09:17:43Z</time>
      </trkpt>
      <trkpt lat="45.79881" lon="4.99566">
        <ele>176.1</ele>
        <time>2011-04-24T09:17:44Z</time>
      </trkpt>
      <trkpt lat="45.79868" lon="4.99589">
        <ele>177.3</ele>
        <time>2011-04-24T09:17:51Z</time>
      </trkpt>
      <trkpt lat="45.7986" lon="4.99598">
        <ele>179.5</ele>
        <time>2011-04-24T09:17:55Z</time>
      </trkpt>
      <trkpt lat="45.79844" lon="4.99616">
        <ele>182.6</ele>
        <time>2011-04-24T09:18:02Z</time>
      </trkpt>
      <trkpt lat="45.79831" lon="4.99635">
        <ele>181.6</ele>
        <time>2011-04-24T09:18:09Z</time>
      </trkpt>
      <trkpt lat="45.79829" lon="4.99638">
        <ele>181.3</ele>
        <time>2011-04-24T09:18:10Z</time>
      </trkpt>
      <trkpt lat="45.79824" lon="4.99644">
        <ele>182.3</ele>
        <time>2011-04-24T09:18:13Z</time>
      </trkpt>
      <trkpt lat="45.79818" lon="4.99648">
        <ele>184.1</ele>
        <time>2011-04-24T09:18:15Z</time>
      </trkpt>
      <trkpt lat="45.79803" lon="4.99661">
        <ele>189.5</ele>
        <time>2011-04-24T09:18:20Z</time>
      </trkpt>
      <trkpt lat="45.79801" lon="4.99664">
        <ele>190.1</ele>
        <time>2011-04-24T09:18:21Z</time>
      </trkpt>
      <trkpt lat="45.79797" lon="4.99672">
        <ele>188.8</ele>
        <time>2011-04-24T09:18:24Z</time>
      </trkpt>
      <trkpt lat="45.79782" lon="4.99703">
        <ele>186.1</ele>
        <time>2011-04-24T09:18:34Z</time>
      </trkpt>
      <trkpt lat="45.79778" lon="4.99721">
        <ele>180.5</ele>
        <time>2011-04-24T09:18:39Z</time>
      </trkpt>
      <trkpt lat="45.79772" lon="4.99734">
        <ele>181</ele>
        <time>2011-04-24T09:18:43Z</time>
      </trkpt>
      <trkpt lat="45.79767" lon="4.99746">
        <ele>181.3</ele>
        <time>2011-04-24T09:18:47Z</time>
      </trkpt>
      <trkpt lat="45.79766" lon="4.99749">
        <ele>181.3</ele>
        <time>2011-04-24T09:18:48Z</time>
      </trkpt>
      <trkpt lat="45.79766" lon="4.99752">
        <ele>179.5</ele>
        <time>2011-04-24T09:18:49Z</time>
      </trkpt>
      <trkpt lat="45.79763" lon="4.99759">
        <ele>179.3</ele>
        <time>2011-04-24T09:18:51Z</time>
      </trkpt>
      <trkpt lat="45.79761" lon="4.99763">
        <ele>179.3</ele>
        <time>2011-04-24T09:18:52Z</time>
      </trkpt>
      <trkpt lat="45.79759" lon="4.99765">
        <ele>181.6</ele>
        <time>2011-04-24T09:18:53Z</time>
      </trkpt>
      <trkpt lat="45.79754" lon="4.99774">
        <ele>180.6</ele>
        <time>2011-04-24T09:18:56Z</time>
      </trkpt>
      <trkpt lat="45.79752" lon="4.99777">
        <ele>182.1</ele>
        <time>2011-04-24T09:18:57Z</time>
      </trkpt>
      <trkpt lat="45.79746" lon="4.9979">
        <ele>185.6</ele>
        <time>2011-04-24T09:19:01Z</time>
      </trkpt>
      <trkpt lat="45.79746" lon="4.99793">
        <ele>185.6</ele>
        <time>2011-04-24T09:19:02Z</time>
      </trkpt>
      <trkpt lat="45.79744" lon="4.99797">
        <ele>186.1</ele>
        <time>2011-04-24T09:19:03Z</time>
      </trkpt>
      <trkpt lat="45.79743" lon="4.99799">
        <ele>187</ele>
        <time>2011-04-24T09:19:04Z</time>
      </trkpt>
      <trkpt lat="45.79741" lon="4.99801">
        <ele>186.3</ele>
        <time>2011-04-24T09:19:05Z</time>
      </trkpt>
      <trkpt lat="45.79733" lon="4.99807">
        <ele>183.3</ele>
        <time>2011-04-24T09:19:08Z</time>
      </trkpt>
      <trkpt lat="45.79731" lon="4.99809">
        <ele>182.1</ele>
        <time>2011-04-24T09:19:09Z</time>
      </trkpt>
      <trkpt lat="45.79716" lon="4.99825">
        <ele>180.1</ele>
        <time>2011-04-24T09:19:15Z</time>
      </trkpt>
      <trkpt lat="45.79715" lon="4.99828">
        <ele>180.6</ele>
        <time>2011-04-24T09:19:16Z</time>
      </trkpt>
      <trkpt lat="45.79705" lon="4.99851">
        <ele>178.5</ele>
        <time>2011-04-24T09:19:23Z</time>
      </trkpt>
      <trkpt lat="45.79699" lon="4.9986">
        <ele>178.6</ele>
        <time>2011-04-24T09:19:26Z</time>
      </trkpt>
      <trkpt lat="45.79686" lon="4.99881">
        <ele>176.3</ele>
        <time>2011-04-24T09:19:33Z</time>
      </trkpt>
      <trkpt lat="45.79685" lon="4.99885">
        <ele>176.3</ele>
        <time>2011-04-24T09:19:34Z</time>
      </trkpt>
      <trkpt lat="45.79685" lon="4.9989">
        <ele>175.6</ele>
        <time>2011-04-24T09:19:35Z</time>
      </trkpt>
      <trkpt lat="45.79684" lon="4.99894">
        <ele>174.6</ele>
        <time>2011-04-24T09:19:36Z</time>
      </trkpt>
      <trkpt lat="45.7968" lon="4.99911">
        <ele>174.1</ele>
        <time>2011-04-24T09:19:42Z</time>
      </trkpt>
      <trkpt lat="45.7968" lon="4.99914">
        <ele>173.8</ele>
        <time>2011-04-24T09:19:43Z</time>
      </trkpt>
      <trkpt lat="45.79674" lon="4.99941">
        <ele>172</ele>
        <time>2011-04-24T09:19:51Z</time>
      </trkpt>
      <trkpt lat="45.79673" lon="4.99945">
        <ele>171.6</ele>
        <time>2011-04-24T09:19:52Z</time>
      </trkpt>
      <trkpt lat="45.79661" lon="4.99974">
        <ele>180.1</ele>
        <time>2011-04-24T09:19:59Z</time>
      </trkpt>
      <trkpt lat="45.7966" lon="4.99978">
        <ele>179.3</ele>
        <time>2011-04-24T09:20:00Z</time>
      </trkpt>
      <trkpt lat="45.79661" lon="4.9999">
        <ele>174.8</ele>
        <time>2011-04-24T09:20:03Z</time>
      </trkpt>
      <trkpt lat="45.79661" lon="5.00008">
        <ele>172.3</ele>
        <time>2011-04-24T09:20:08Z</time>
      </trkpt>
      <trkpt lat="45.79652" lon="5.00071">
        <ele>176.5</ele>
        <time>2011-04-24T09:20:23Z</time>
      </trkpt>
      <trkpt lat="45.79651" lon="5.00075">
        <ele>176.8</ele>
        <time>2011-04-24T09:20:24Z</time>
      </trkpt>
      <trkpt lat="45.7965" lon="5.0008">
        <ele>176.8</ele>
        <time>2011-04-24T09:20:25Z</time>
      </trkpt>
      <trkpt lat="45.79649" lon="5.00084">
        <ele>179.3</ele>
        <time>2011-04-24T09:20:26Z</time>
      </trkpt>
      <trkpt lat="45.79648" lon="5.00088">
        <ele>179.3</ele>
        <time>2011-04-24T09:20:27Z</time>
      </trkpt>
      <trkpt lat="45.79647" lon="5.00092">
        <ele>179.3</ele>
        <time>2011-04-24T09:20:28Z</time>
      </trkpt>
      <trkpt lat="45.79647" lon="5.00096">
        <ele>178.8</ele>
        <time>2011-04-24T09:20:29Z</time>
      </trkpt>
      <trkpt lat="45.79647" lon="5.00105">
        <ele>178.8</ele>
        <time>2011-04-24T09:20:31Z</time>
      </trkpt>
      <trkpt lat="45.79645" lon="5.00109">
        <ele>179.8</ele>
        <time>2011-04-24T09:20:32Z</time>
      </trkpt>
      <trkpt lat="45.7963" lon="5.0015">
        <ele>180.1</ele>
        <time>2011-04-24T09:20:43Z</time>
      </trkpt>
      <trkpt lat="45.79628" lon="5.00153">
        <ele>180.6</ele>
        <time>2011-04-24T09:20:44Z</time>
      </trkpt>
      <trkpt lat="45.79618" lon="5.00168">
        <ele>181.6</ele>
        <time>2011-04-24T09:20:49Z</time>
      </trkpt>
      <trkpt lat="45.79601" lon="5.00187">
        <ele>180.5</ele>
        <time>2011-04-24T09:20:56Z</time>
      </trkpt>
      <trkpt lat="45.79599" lon="5.0019">
        <ele>180.6</ele>
        <time>2011-04-24T09:20:57Z</time>
      </trkpt>
      <trkpt lat="45.79574" lon="5.00213">
        <ele>177.3</ele>
        <time>2011-04-24T09:21:07Z</time>
      </trkpt>
      <trkpt lat="45.79572" lon="5.00213">
        <ele>177.6</ele>
        <time>2011-04-24T09:21:08Z</time>
      </trkpt>
      <trkpt lat="45.79565" lon="5.00213">
        <ele>179.1</ele>
        <time>2011-04-24T09:21:10Z</time>
      </trkpt>
      <trkpt lat="45.79562" lon="5.00211">
        <ele>180</ele>
        <time>2011-04-24T09:21:11Z</time>
      </trkpt>
      <trkpt lat="45.79541" lon="5.00203">
        <ele>183.3</ele>
        <time>2011-04-24T09:21:19Z</time>
      </trkpt>
      <trkpt lat="45.79533" lon="5.00203">
        <ele>182.1</ele>
        <time>2011-04-24T09:21:22Z</time>
      </trkpt>
      <trkpt lat="45.79528" lon="5.00205">
        <ele>180.8</ele>
        <time>2011-04-24T09:21:24Z</time>
      </trkpt>
      <trkpt lat="45.79524" lon="5.00208">
        <ele>181.3</ele>
        <time>2011-04-24T09:21:26Z</time>
      </trkpt>
      <trkpt lat="45.79523" lon="5.00211">
        <ele>181.3</ele>
        <time>2011-04-24T09:21:27Z</time>
      </trkpt>
      <trkpt lat="45.79521" lon="5.00213">
        <ele>180.3</ele>
        <time>2011-04-24T09:21:28Z</time>
      </trkpt>
      <trkpt lat="45.79519" lon="5.00215">
        <ele>180.3</ele>
        <time>2011-04-24T09:21:29Z</time>
      </trkpt>
      <trkpt lat="45.79516" lon="5.00219">
        <ele>182.6</ele>
        <time>2011-04-24T09:21:31Z</time>
      </trkpt>
      <trkpt lat="45.79515" lon="5.00222">
        <ele>181.8</ele>
        <time>2011-04-24T09:21:32Z</time>
      </trkpt>
      <trkpt lat="45.79514" lon="5.00225">
        <ele>181.3</ele>
        <time>2011-04-24T09:21:33Z</time>
      </trkpt>
      <trkpt lat="45.79515" lon="5.00229">
        <ele>181.3</ele>
        <time>2011-04-24T09:21:34Z</time>
      </trkpt>
      <trkpt lat="45.79514" lon="5.00237">
        <ele>183.6</ele>
        <time>2011-04-24T09:21:36Z</time>
      </trkpt>
      <trkpt lat="45.79514" lon="5.0024">
        <ele>184</ele>
        <time>2011-04-24T09:21:37Z</time>
      </trkpt>
      <trkpt lat="45.79513" lon="5.00249">
        <ele>185.3</ele>
        <time>2011-04-24T09:21:40Z</time>
      </trkpt>
      <trkpt lat="45.79512" lon="5.00252">
        <ele>186.1</ele>
        <time>2011-04-24T09:21:41Z</time>
      </trkpt>
      <trkpt lat="45.79507" lon="5.00259">
        <ele>184.3</ele>
        <time>2011-04-24T09:21:44Z</time>
      </trkpt>
      <trkpt lat="45.79503" lon="5.00264">
        <ele>183.5</ele>
        <time>2011-04-24T09:21:46Z</time>
      </trkpt>
      <trkpt lat="45.79502" lon="5.00267">
        <ele>182.6</ele>
        <time>2011-04-24T09:21:47Z</time>
      </trkpt>
      <trkpt lat="45.79501" lon="5.00271">
        <ele>182.3</ele>
        <time>2011-04-24T09:21:48Z</time>
      </trkpt>
      <trkpt lat="45.79501" lon="5.00279">
        <ele>183.8</ele>
        <time>2011-04-24T09:21:50Z</time>
      </trkpt>
      <trkpt lat="45.79503" lon="5.00284">
        <ele>183.8</ele>
        <time>2011-04-24T09:21:51Z</time>
      </trkpt>
      <trkpt lat="45.79502" lon="5.00287">
        <ele>184.6</ele>
        <time>2011-04-24T09:21:52Z</time>
      </trkpt>
      <trkpt lat="45.79502" lon="5.0029">
        <ele>184.6</ele>
        <time>2011-04-24T09:21:53Z</time>
      </trkpt>
      <trkpt lat="45.79502" lon="5.00294">
        <ele>186.5</ele>
        <time>2011-04-24T09:21:54Z</time>
      </trkpt>
      <trkpt lat="45.79502" lon="5.00298">
        <ele>187.3</ele>
        <time>2011-04-24T09:21:55Z</time>
      </trkpt>
      <trkpt lat="45.795" lon="5.00301">
        <ele>187.8</ele>
        <time>2011-04-24T09:21:56Z</time>
      </trkpt>
      <trkpt lat="45.79495" lon="5.00303">
        <ele>187.8</ele>
        <time>2011-04-24T09:21:57Z</time>
      </trkpt>
      <trkpt lat="45.79492" lon="5.00305">
        <ele>186.1</ele>
        <time>2011-04-24T09:21:58Z</time>
      </trkpt>
      <trkpt lat="45.79487" lon="5.00306">
        <ele>186.1</ele>
        <time>2011-04-24T09:21:59Z</time>
      </trkpt>
      <trkpt lat="45.79479" lon="5.00306">
        <ele>180.8</ele>
        <time>2011-04-24T09:22:00Z</time>
      </trkpt>
      <trkpt lat="45.79476" lon="5.00309">
        <ele>180.8</ele>
        <time>2011-04-24T09:22:01Z</time>
      </trkpt>
      <trkpt lat="45.79461" lon="5.00322">
        <ele>180.3</ele>
        <time>2011-04-24T09:22:06Z</time>
      </trkpt>
      <trkpt lat="45.79445" lon="5.00331">
        <ele>180.1</ele>
        <time>2011-04-24T09:22:10Z</time>
      </trkpt>
      <trkpt lat="45.79444" lon="5.00334">
        <ele>180.1</ele>
        <time>2011-04-24T09:22:11Z</time>
      </trkpt>
      <trkpt lat="45.79443" lon="5.00338">
        <ele>182.6</ele>
        <time>2011-04-24T09:22:12Z</time>
      </trkpt>
      <trkpt lat="45.79442" lon="5.00342">
        <ele>182.6</ele>
        <time>2011-04-24T09:22:13Z</time>
      </trkpt>
      <trkpt lat="45.79441" lon="5.00344">
        <ele>185.1</ele>
        <time>2011-04-24T09:22:14Z</time>
      </trkpt>
      <trkpt lat="45.79439" lon="5.00348">
        <ele>185.8</ele>
        <time>2011-04-24T09:22:15Z</time>
      </trkpt>
      <trkpt lat="45.79437" lon="5.0035">
        <ele>186.1</ele>
        <time>2011-04-24T09:22:16Z</time>
      </trkpt>
      <trkpt lat="45.79432" lon="5.00355">
        <ele>186</ele>
        <time>2011-04-24T09:22:18Z</time>
      </trkpt>
      <trkpt lat="45.79431" lon="5.00359">
        <ele>189.3</ele>
        <time>2011-04-24T09:22:19Z</time>
      </trkpt>
      <trkpt lat="45.79431" lon="5.00364">
        <ele>190.6</ele>
        <time>2011-04-24T09:22:20Z</time>
      </trkpt>
      <trkpt lat="45.79423" lon="5.00364">
        <ele>190.6</ele>
        <time>2011-04-24T09:22:21Z</time>
      </trkpt>
      <trkpt lat="45.79422" lon="5.00367">
        <ele>185.8</ele>
        <time>2011-04-24T09:22:22Z</time>
      </trkpt>
      <trkpt lat="45.7942" lon="5.00369">
        <ele>185.6</ele>
        <time>2011-04-24T09:22:23Z</time>
      </trkpt>
      <trkpt lat="45.7942" lon="5.00373">
        <ele>186.3</ele>
        <time>2011-04-24T09:22:24Z</time>
      </trkpt>
      <trkpt lat="45.79417" lon="5.00379">
        <ele>186.1</ele>
        <time>2011-04-24T09:22:26Z</time>
      </trkpt>
      <trkpt lat="45.79413" lon="5.0038">
        <ele>182.1</ele>
        <time>2011-04-24T09:22:27Z</time>
      </trkpt>
      <trkpt lat="45.79412" lon="5.00383">
        <ele>183</ele>
        <time>2011-04-24T09:22:28Z</time>
      </trkpt>
      <trkpt lat="45.79409" lon="5.00389">
        <ele>184.1</ele>
        <time>2011-04-24T09:22:30Z</time>
      </trkpt>
      <trkpt lat="45.79405" lon="5.00394">
        <ele>183.8</ele>
        <time>2011-04-24T09:22:32Z</time>
      </trkpt>
      <trkpt lat="45.79404" lon="5.00396">
        <ele>183.1</ele>
        <time>2011-04-24T09:22:33Z</time>
      </trkpt>
      <trkpt lat="45.79403" lon="5.00399">
        <ele>183.1</ele>
        <time>2011-04-24T09:22:34Z</time>
      </trkpt>
      <trkpt lat="45.79397" lon="5.00404">
        <ele>181.1</ele>
        <time>2011-04-24T09:22:36Z</time>
      </trkpt>
      <trkpt lat="45.79387" lon="5.0041">
        <ele>182.8</ele>
        <time>2011-04-24T09:22:40Z</time>
      </trkpt>
      <trkpt lat="45.79383" lon="5.00415">
        <ele>183</ele>
        <time>2011-04-24T09:22:42Z</time>
      </trkpt>
      <trkpt lat="45.79358" lon="5.0044">
        <ele>181.5</ele>
        <time>2011-04-24T09:22:52Z</time>
      </trkpt>
      <trkpt lat="45.79355" lon="5.00442">
        <ele>182.6</ele>
        <time>2011-04-24T09:22:53Z</time>
      </trkpt>
      <trkpt lat="45.79333" lon="5.00452">
        <ele>177.8</ele>
        <time>2011-04-24T09:23:01Z</time>
      </trkpt>
      <trkpt lat="45.7933" lon="5.00452">
        <ele>177.8</ele>
        <time>2011-04-24T09:23:02Z</time>
      </trkpt>
      <trkpt lat="45.79309" lon="5.00465">
        <ele>172.1</ele>
        <time>2011-04-24T09:23:11Z</time>
      </trkpt>
      <trkpt lat="45.79307" lon="5.00468">
        <ele>172.1</ele>
        <time>2011-04-24T09:23:12Z</time>
      </trkpt>
      <trkpt lat="45.79303" lon="5.0047">
        <ele>172.3</ele>
        <time>2011-04-24T09:23:13Z</time>
      </trkpt>
      <trkpt lat="45.79267" lon="5.00492">
        <ele>178.6</ele>
        <time>2011-04-24T09:23:26Z</time>
      </trkpt>
      <trkpt lat="45.79264" lon="5.00494">
        <ele>178.3</ele>
        <time>2011-04-24T09:23:27Z</time>
      </trkpt>
      <trkpt lat="45.79257" lon="5.005">
        <ele>177</ele>
        <time>2011-04-24T09:23:30Z</time>
      </trkpt>
      <trkpt lat="45.79227" lon="5.00516">
        <ele>172.1</ele>
        <time>2011-04-24T09:23:41Z</time>
      </trkpt>
      <trkpt lat="45.79177" lon="5.00543">
        <ele>179.3</ele>
        <time>2011-04-24T09:24:00Z</time>
      </trkpt>
      <trkpt lat="45.79175" lon="5.00546">
        <ele>179.3</ele>
        <time>2011-04-24T09:24:01Z</time>
      </trkpt>
      <trkpt lat="45.79173" lon="5.00549">
        <ele>178.3</ele>
        <time>2011-04-24T09:24:02Z</time>
      </trkpt>
      <trkpt lat="45.79171" lon="5.00551">
        <ele>178.3</ele>
        <time>2011-04-24T09:24:03Z</time>
      </trkpt>
      <trkpt lat="45.79143" lon="5.00571">
        <ele>178.1</ele>
        <time>2011-04-24T09:24:14Z</time>
      </trkpt>
      <trkpt lat="45.79138" lon="5.00574">
        <ele>178.6</ele>
        <time>2011-04-24T09:24:16Z</time>
      </trkpt>
      <trkpt lat="45.79136" lon="5.00577">
        <ele>178.6</ele>
        <time>2011-04-24T09:24:17Z</time>
      </trkpt>
      <trkpt lat="45.79133" lon="5.00579">
        <ele>179.8</ele>
        <time>2011-04-24T09:24:18Z</time>
      </trkpt>
      <trkpt lat="45.79111" lon="5.00595">
        <ele>179.5</ele>
        <time>2011-04-24T09:24:27Z</time>
      </trkpt>
      <trkpt lat="45.79109" lon="5.00598">
        <ele>178.6</ele>
        <time>2011-04-24T09:24:28Z</time>
      </trkpt>
      <trkpt lat="45.79105" lon="5.00602">
        <ele>181.1</ele>
        <time>2011-04-24T09:24:30Z</time>
      </trkpt>
      <trkpt lat="45.79103" lon="5.00604">
        <ele>181.1</ele>
        <time>2011-04-24T09:24:31Z</time>
      </trkpt>
      <trkpt lat="45.79067" lon="5.00633">
        <ele>183.1</ele>
        <time>2011-04-24T09:24:46Z</time>
      </trkpt>
      <trkpt lat="45.79049" lon="5.00648">
        <ele>182.3</ele>
        <time>2011-04-24T09:24:54Z</time>
      </trkpt>
      <trkpt lat="45.79022" lon="5.00673">
        <ele>185.8</ele>
        <time>2011-04-24T09:25:05Z</time>
      </trkpt>
      <trkpt lat="45.79019" lon="5.00675">
        <ele>185.8</ele>
        <time>2011-04-24T09:25:06Z</time>
      </trkpt>
      <trkpt lat="45.78981" lon="5.00724">
        <ele>190.3</ele>
        <time>2011-04-24T09:25:24Z</time>
      </trkpt>
      <trkpt lat="45.78969" lon="5.00739">
        <ele>191</ele>
        <time>2011-04-24T09:25:29Z</time>
      </trkpt>
      <trkpt lat="45.78932" lon="5.00787">
        <ele>184.6</ele>
        <time>2011-04-24T09:25:46Z</time>
      </trkpt>
      <trkpt lat="45.7893" lon="5.00789">
        <ele>184.6</ele>
        <time>2011-04-24T09:25:47Z</time>
      </trkpt>
      <trkpt lat="45.78928" lon="5.00791">
        <ele>183.5</ele>
        <time>2011-04-24T09:25:48Z</time>
      </trkpt>
      <trkpt lat="45.78926" lon="5.00794">
        <ele>183.5</ele>
        <time>2011-04-24T09:25:49Z</time>
      </trkpt>
      <trkpt lat="45.78887" lon="5.00833">
        <ele>180.5</ele>
        <time>2011-04-24T09:26:06Z</time>
      </trkpt>
      <trkpt lat="45.78884" lon="5.00835">
        <ele>180.5</ele>
        <time>2011-04-24T09:26:07Z</time>
      </trkpt>
      <trkpt lat="45.78871" lon="5.0085">
        <ele>178.3</ele>
        <time>2011-04-24T09:26:13Z</time>
      </trkpt>
      <trkpt lat="45.78836" lon="5.0089">
        <ele>179.6</ele>
        <time>2011-04-24T09:26:28Z</time>
      </trkpt>
      <trkpt lat="45.78831" lon="5.009">
        <ele>179.8</ele>
        <time>2011-04-24T09:26:31Z</time>
      </trkpt>
      <trkpt lat="45.78821" lon="5.00918">
        <ele>179.1</ele>
        <time>2011-04-24T09:26:37Z</time>
      </trkpt>
      <trkpt lat="45.7881" lon="5.00944">
        <ele>176.6</ele>
        <time>2011-04-24T09:26:45Z</time>
      </trkpt>
      <trkpt lat="45.788" lon="5.00972">
        <ele>175</ele>
        <time>2011-04-24T09:26:53Z</time>
      </trkpt>
      <trkpt lat="45.78798" lon="5.00975">
        <ele>175</ele>
        <time>2011-04-24T09:26:54Z</time>
      </trkpt>
      <trkpt lat="45.78796" lon="5.00978">
        <ele>175.1</ele>
        <time>2011-04-24T09:26:55Z</time>
      </trkpt>
      <trkpt lat="45.78795" lon="5.00982">
        <ele>175.1</ele>
        <time>2011-04-24T09:26:56Z</time>
      </trkpt>
      <trkpt lat="45.78794" lon="5.00985">
        <ele>176</ele>
        <time>2011-04-24T09:26:57Z</time>
      </trkpt>
      <trkpt lat="45.78793" lon="5.00988">
        <ele>176</ele>
        <time>2011-04-24T09:26:58Z</time>
      </trkpt>
      <trkpt lat="45.78792" lon="5.00992">
        <ele>177.3</ele>
        <time>2011-04-24T09:26:59Z</time>
      </trkpt>
      <trkpt lat="45.78792" lon="5.00995">
        <ele>177.3</ele>
        <time>2011-04-24T09:27:00Z</time>
      </trkpt>
      <trkpt lat="45.78792" lon="5.00999">
        <ele>174.6</ele>
        <time>2011-04-24T09:27:01Z</time>
      </trkpt>
      <trkpt lat="45.78792" lon="5.01003">
        <ele>174.6</ele>
        <time>2011-04-24T09:27:02Z</time>
      </trkpt>
      <trkpt lat="45.78793" lon="5.01018">
        <ele>174.1</ele>
        <time>2011-04-24T09:27:06Z</time>
      </trkpt>
      <trkpt lat="45.7879" lon="5.0103">
        <ele>177</ele>
        <time>2011-04-24T09:27:09Z</time>
      </trkpt>
      <trkpt lat="45.7879" lon="5.01034">
        <ele>178.6</ele>
        <time>2011-04-24T09:27:10Z</time>
      </trkpt>
    </trkseg>
  </trk>
</gpx>